GFSNGP_con_3kmhel_000.txt.gz
Helicity
91 65 49 26 11 44 103 131 176 118 107 33 57 50 43 117 135 178 171 274 327 293 222 200 212 180 155 133 118 109 90 78 91 89 84 72 59 49 46 45 44 36 30 33
21 14 37 35 26 52 74 60 103 79 15 67 74 142 146 147 144 180 243 316 283 255 252 247 214 172 138 130 110 94 86 84 93 103 92 66 52 38 34 40 41 43 45 45
29 89 58 -5 16 51 69 67 114 111 85 62 83 121 140 115 137 165 362 411 336 322 255 206 177 162 138 120 107 98 88 92 116 93 81 67 55 39 31 28 27 22 22 16
48 62 55 14 19 74 60 72 98 98 90 101 130 125 170 218 254 308 503 558 442 270 223 200 172 157 132 105 97 97 87 96 83 71 55 36 21 16 15 14 17 26 30 46
55 57 47 33 -4 71 98 95 94 136 42 86 204 198 194 287 480 470 503 445 351 262 191 160 158 123 100 91 75 66 77 67 43 23 13 3 3 11 25 26 40 39 40 40
127 78 19 25 126 185 132 78 149 207 197 223 271 290 295 444 517 470 447 399 316 215 160 147 134 128 103 59 51 58 58 40 18 8 4 13 19 33 39 50 67 69 85 68
68 92 29 5 127 117 112 125 167 167 165 175 237 236 367 519 503 457 389 350 264 163 119 102 118 107 87 68 49 52 42 22 16 13 25 22 31 34 42 52 63 81 88 103
78 87 -16 106 150 138 120 135 150 124 123 189 285 364 446 460 393 353 318 220 170 146 147 131 115 115 95 81 63 50 38 35 31 21 15 11 -2 22 34 50 59 78 100 127
131 92 137 143 82 106 139 160 190 255 226 278 322 435 439 429 348 305 258 214 194 187 168 147 129 109 94 79 62 51 55 45 31 18 16 20 40 52 57 50 60 52 81 92
131 170 156 121 65 109 128 203 246 268 273 295 317 355 306 257 275 224 195 203 185 161 144 120 101 93 76 67 69 73 70 52 36 34 41 79 92 86 100 79 66 76 74 68
140 44 61 107 205 182 120 106 130 147 188 220 268 311 271 224 182 195 193 181 148 142 126 110 98 88 73 77 84 87 80 69 68 84 93 103 114 111 88 82 88 83 85 81
122 81 102 119 134 158 174 146 105 153 227 265 286 264 238 235 201 223 218 154 131 118 105 104 101 96 90 99 103 102 98 101 114 123 132 137 123 114 77 60 43 36 36 44
99 101 111 110 121 176 165 173 170 227 270 277 277 277 246 234 233 210 152 117 104 106 96 96 98 95 96 104 107 103 107 107 126 125 139 134 128 126 109 82 34 20 20 20
89 124 115 163 196 219 216 286 324 332 345 336 252 184 152 152 150 115 102 107 100 92 95 96 100 97 103 99 100 97 101 69 131 152 149 145 137 120 116 97 74 59 42 20
123 127 143 174 228 229 227 217 245 266 237 174 130 134 138 111 100 103 94 86 90 93 98 99 105 101 97 92 94 103 122 147 139 147 145 117 124 117 104 92 86 81 50 24
147 144 169 197 203 210 230 223 168 123 112 149 155 129 116 117 105 100 94 90 99 107 106 109 111 106 89 88 102 128 149 93 92 135 137 125 114 106 98 89 81 68 59 49
134 128 145 171 165 167 105 112 106 158 162 143 126 115 121 111 99 92 87 102 112 117 117 121 122 103 90 125 129 147 158 160 100 132 127 115 110 109 106 98 100 94 91 76
97 110 112 134 160 178 162 185 189 162 137 113 124 112 94 86 94 103 115 122 132 133 132 133 103 113 119 129 134 155 169 166 153 139 122 113 110 109 110 119 117 108 84 74
162 162 201 181 181 188 193 160 137 122 122 120 110 97 96 104 115 127 127 135 136 135 140 126 91 92 138 132 109 156 177 165 146 135 127 93 118 129 124 121 111 99 73 57
152 146 142 152 148 162 161 139 139 131 115 117 113 113 119 121 125 130 141 146 156 161 123 122 127 140 149 143 99 160 165 150 139 134 139 121 130 143 134 101 89 92 77 52
97 117 142 145 142 135 140 147 146 129 124 129 122 118 126 128 134 143 158 177 144 133 111 98 142 168 170 137 132 155 152 147 141 144 149 153 150 137 133 110 99 41 6 27
115 126 120 115 127 142 156 160 159 141 122 111 111 121 130 137 147 159 177 175 163 82 124 162 170 128 121 75 142 147 149 147 154 157 158 154 153 144 138 127 99 90 -31 23
140 149 133 152 159 170 198 188 150 126 117 120 129 136 150 163 171 178 179 148 150 126 130 166 120 70 62 113 134 138 144 151 161 167 169 170 168 154 150 128 78 44 58 58
164 164 183 199 232 245 193 167 155 147 143 139 144 144 148 170 175 174 175 127 93 103 130 131 100 48 36 114 133 147 156 163 171 174 172 125 165 158 145 132 105 75 42 38
190 220 245 243 225 204 187 175 164 142 137 135 133 147 151 174 201 183 170 166 101 101 142 92 49 37 107 135 148 156 162 167 168 162 160 171 173 164 144 137 114 83 49 38
206 181 184 184 212 230 216 194 174 157 150 157 165 169 170 167 170 150 156 122 138 102 135 143 143 126 138 150 144 148 160 157 155 165 141 141 150 155 130 114 109 94 5 10
199 213 238 230 209 195 182 165 159 150 150 157 165 153 148 147 145 126 114 141 138 140 146 154 160 145 137 142 140 150 157 159 124 132 136 140 151 155 138 99 69 -10 -18 5

GFSNGP_con_3kmhel_003.txt.gz
Helicity
71 61 61 37 28 47 61 122 112 123 69 68 51 42 24 71 140 194 222 290 281 330 329 282 235 201 161 142 121 106 103 103 103 99 89 69 70 72 70 70 69 63 58 64
74 56 34 15 -6 15 35 67 83 71 -11 134 129 109 115 62 75 139 238 290 339 368 316 249 209 168 141 111 98 95 106 114 112 100 81 76 73 71 65 60 55 53 55 55
50 82 31 5 19 69 72 91 86 89 101 65 94 90 73 91 113 227 310 321 351 353 288 245 218 178 155 124 90 123 135 126 103 79 69 63 56 51 46 42 43 55 64 58
56 74 38 34 63 52 45 32 39 78 63 55 58 88 132 104 230 356 371 317 369 342 303 269 217 161 111 120 172 166 127 104 81 72 62 50 39 35 34 30 31 37 42 57
75 70 6 34 75 66 60 34 22 53 71 63 112 175 191 208 292 302 287 360 375 264 187 165 153 118 196 213 181 156 126 106 81 63 60 49 41 29 25 23 18 11 20 32
80 67 49 23 49 31 9 39 111 154 132 118 144 131 179 284 333 426 414 386 341 218 179 188 226 236 209 171 144 120 109 86 66 59 49 47 41 39 41 42 26 18 20 56
81 71 38 48 23 59 87 95 136 109 98 96 165 183 321 449 459 420 349 273 224 216 222 257 200 178 156 121 118 99 85 74 70 72 73 66 72 68 58 32 28 44 47 57
92 79 39 105 169 101 103 110 145 199 209 192 303 373 388 411 386 320 274 270 225 241 228 188 177 158 132 125 103 88 80 77 78 90 100 90 72 71 50 46 47 55 63 81
76 57 112 169 72 78 103 133 146 163 185 197 262 274 304 294 298 273 254 237 258 241 207 182 161 119 118 107 88 81 83 81 96 108 103 75 79 69 67 72 83 86 95 110
118 108 116 85 53 16 14 28 45 77 106 144 159 211 264 300 317 281 262 277 258 215 175 174 132 102 89 82 79 79 82 93 108 109 81 93 85 72 88 88 97 103 105 98
64 22 44 104 90 67 38 20 53 98 87 80 111 186 243 264 257 260 287 254 223 171 149 133 112 90 78 70 76 86 99 113 121 119 110 112 99 94 93 104 96 101 94 89
92 114 114 55 88 107 125 116 87 113 88 89 95 125 164 203 238 200 176 184 154 134 123 119 103 87 83 95 105 120 127 131 129 123 120 111 96 103 81 64 50 42 34 45
117 109 88 86 127 128 113 95 80 102 128 167 150 166 186 189 194 178 153 140 131 115 99 94 94 97 107 118 126 122 131 128 135 121 127 117 115 122 124 114 44 28 18 25
124 123 142 116 94 97 130 156 163 167 161 157 169 194 222 210 173 153 136 116 100 95 94 102 109 111 130 135 129 128 129 84 144 153 133 120 126 135 139 113 95 77 34 13
157 145 124 135 132 149 141 151 152 164 166 159 174 198 184 160 139 109 101 102 99 98 102 117 124 109 126 132 124 126 142 151 144 135 141 125 145 145 123 107 106 96 61 32
154 132 132 134 86 85 100 111 123 135 152 169 151 146 127 116 99 91 94 97 116 120 114 111 108 121 131 136 129 144 154 98 110 152 160 164 150 130 118 113 118 120 100 71
159 118 106 84 50 64 75 101 132 122 133 132 104 105 113 114 109 103 106 111 115 106 109 125 143 141 142 130 147 156 174 163 106 151 161 147 136 125 121 117 118 117 108 105
82 69 46 31 36 55 70 94 107 122 126 106 125 127 117 110 100 101 106 113 123 139 145 172 151 142 138 138 156 167 170 166 162 155 151 136 120 111 115 118 129 117 89 98
47 46 52 54 66 74 91 107 127 135 137 137 135 118 101 94 100 110 120 138 141 157 149 145 107 108 148 147 121 159 163 156 160 158 143 100 116 123 131 132 128 118 84 71
73 81 102 127 142 141 147 152 150 141 130 134 119 106 95 95 108 121 137 149 142 175 155 140 131 143 149 154 116 147 151 151 153 142 143 120 129 136 132 101 92 99 53 67
48 71 98 131 141 162 156 152 148 130 120 125 112 102 111 108 122 128 136 150 132 135 124 107 145 155 161 125 112 137 141 142 140 137 139 148 146 138 127 114 107 18 18 39
76 87 109 135 146 149 151 156 146 143 140 126 113 114 120 116 127 138 139 162 164 94 130 152 149 117 112 71 129 130 133 131 140 147 147 140 141 142 139 128 111 56 78 74
92 112 144 157 164 152 160 154 153 164 156 142 131 126 133 138 139 139 151 143 152 124 133 152 104 62 56 111 126 128 131 132 141 147 153 159 158 160 164 152 127 105 100 59
126 145 165 175 178 182 169 164 166 169 176 156 140 130 138 145 151 156 171 128 95 112 129 113 85 49 46 116 129 139 148 152 152 158 161 107 155 155 148 140 112 101 90 53
142 181 223 247 209 162 152 168 194 188 173 157 140 129 127 143 166 154 161 162 106 111 130 79 49 45 110 137 149 150 151 160 157 142 130 127 123 127 138 136 114 94 70 45
181 196 193 171 163 162 184 215 192 170 162 158 151 139 140 151 161 147 152 118 129 88 122 133 133 115 132 148 143 148 152 152 140 136 99 103 115 124 125 117 102 93 83 66
194 188 191 191 168 170 188 189 172 150 149 145 135 124 131 133 135 124 114 140 124 121 131 136 137 129 131 141 144 156 156 159 118 115 112 120 99 61 34 35 109 93 78 37

GFSNGP_con_3kmhel_006.txt.gz
Helicity
89 60 73 62 87 86 98 101 54 55 49 69 88 82 52 42 122 206 208 220 269 284 263 200 193 236 178 156 154 136 114 101 98 117 128 118 115 100 88 80 75 67 68 68
85 86 58 45 49 41 48 64 51 53 -2 46 64 76 110 117 122 122 140 233 281 267 220 175 193 210 180 156 126 98 87 97 118 136 133 115 101 100 96 90 82 74 72 71
74 81 44 14 29 60 79 90 46 6 58 82 73 86 114 63 70 125 220 244 259 262 229 220 198 167 153 137 108 159 147 158 158 144 127 109 93 86 78 65 55 55 54 53
13 58 39 56 67 58 93 127 89 88 81 70 73 47 77 82 83 170 250 302 296 266 265 224 187 152 89 170 238 196 153 148 142 128 119 86 74 67 64 61 66 70 68 68
46 61 60 76 112 108 97 121 112 116 107 81 62 95 81 42 61 137 228 259 285 269 222 186 119 82 189 270 224 197 182 152 143 121 96 85 83 80 87 86 88 82 70 67
100 71 51 79 112 83 74 100 134 102 104 77 73 44 -49 -3 125 279 327 307 279 229 217 139 84 216 272 226 205 180 155 132 118 94 87 85 79 85 94 104 102 98 96 82
83 47 62 59 76 48 105 91 135 107 84 53 33 61 94 186 228 263 266 279 281 190 193 217 207 226 236 197 174 145 123 109 98 88 81 66 81 97 102 103 89 97 98 89
120 85 53 98 102 112 118 124 102 87 70 63 67 92 147 180 158 173 298 333 298 253 234 229 259 233 188 164 138 129 116 101 87 80 80 80 92 112 108 105 102 101 80 75
78 73 103 158 134 122 104 90 68 60 44 46 58 79 103 145 228 268 310 334 303 260 229 246 228 186 160 146 130 116 102 87 83 91 102 91 110 116 116 97 98 89 87 98
113 130 160 83 103 74 35 17 -12 -11 47 81 80 92 153 191 230 268 287 261 210 229 217 196 168 141 131 124 117 109 105 101 104 104 90 118 117 108 111 102 95 96 108 122
84 81 112 135 97 18 5 32 59 87 82 80 98 111 148 179 193 211 195 187 204 177 160 149 138 130 125 123 117 114 114 109 112 127 128 124 113 116 102 103 93 124 130 127
57 65 112 116 113 98 115 113 75 84 123 155 141 123 161 178 206 203 204 202 180 155 140 124 120 111 122 122 117 121 125 139 152 149 132 126 124 124 79 75 86 84 63 76
92 96 77 89 108 90 106 118 134 150 152 144 163 148 168 194 187 195 202 182 150 132 125 121 124 128 139 135 134 135 152 160 163 143 137 135 133 133 134 119 75 56 34 29
133 147 164 141 137 166 169 156 136 147 152 150 134 143 164 176 195 193 171 148 133 124 130 140 140 134 142 140 148 161 172 121 158 157 148 146 140 145 156 148 125 103 55 30
163 195 163 170 186 160 105 65 66 84 104 122 135 151 171 185 171 161 147 140 142 136 126 131 139 124 135 136 146 163 174 179 171 161 157 132 154 157 146 131 117 116 103 66
172 168 184 164 104 74 58 54 77 100 117 127 142 157 151 146 145 154 156 140 128 108 107 126 120 117 129 152 167 186 199 126 131 158 157 157 159 148 133 121 117 122 111 92
215 198 156 121 81 59 42 56 61 81 108 115 121 128 139 152 148 126 104 95 99 101 99 109 116 135 158 171 188 211 206 185 114 160 162 152 147 133 133 130 124 125 128 112
128 114 86 70 49 46 50 71 85 98 109 105 125 143 131 120 102 105 109 97 96 104 109 129 135 144 154 173 190 200 192 173 163 161 158 152 133 118 118 124 132 129 132 118
52 55 52 46 34 56 75 99 109 122 128 137 140 105 100 108 117 109 100 98 98 107 110 126 107 126 164 162 148 181 174 167 163 155 142 101 131 131 133 132 134 132 126 114
59 65 61 64 77 103 105 125 138 130 125 139 125 123 115 119 122 107 107 110 105 128 129 125 129 153 167 169 120 151 145 138 139 136 132 113 125 135 139 103 105 115 112 98
33 37 57 78 97 110 118 150 159 138 136 134 134 132 133 125 122 115 116 124 114 117 124 107 144 161 170 137 118 132 142 142 135 132 135 135 131 129 123 120 116 117 103 74
77 86 89 108 127 133 148 154 147 161 164 155 151 150 153 131 129 133 130 138 142 89 132 153 158 122 126 76 133 139 139 135 138 141 142 141 144 143 136 132 125 112 68 38
100 105 101 123 133 141 169 157 152 155 152 155 156 158 163 155 149 141 137 126 147 126 132 148 110 77 74 129 146 148 136 133 142 146 152 153 153 154 152 130 106 95 90 54
133 120 115 122 160 188 167 175 159 157 168 172 173 168 164 158 163 152 162 121 98 113 134 130 108 68 64 137 142 142 147 148 152 161 164 114 151 131 111 90 88 100 74 -2
124 123 143 174 173 170 183 189 202 202 197 185 173 166 160 165 175 153 159 156 106 116 146 101 67 61 119 141 144 141 143 157 157 143 140 136 121 117 110 97 78 72 -4 30
128 122 144 146 159 176 175 193 190 189 192 185 171 156 151 154 164 158 160 123 133 114 141 135 127 113 126 136 130 133 146 151 142 146 117 126 131 126 111 91 -6 4 9 63
146 161 199 196 190 179 183 185 185 183 179 167 154 135 140 147 140 130 117 140 143 142 136 130 129 118 117 129 131 143 149 160 124 123 117 122 128 125 103 27 -7 -1 12 33

GFSNGP_con_3kmhel_009.txt.gz
Helicity
143 103 122 102 156 162 153 151 108 54 69 87 93 104 118 122 147 140 190 258 246 235 229 243 201 193 216 225 198 123 115 113 106 137 118 99 104 105 95 87 84 78 74 72
131 143 88 89 89 102 121 102 79 76 56 41 130 161 162 129 119 126 183 194 204 221 240 204 237 241 228 186 146 130 117 99 168 136 113 123 131 129 115 98 84 75 72 70
87 99 97 79 48 83 103 100 94 86 76 170 157 128 153 133 88 76 108 175 222 235 219 244 254 236 202 182 126 113 84 153 152 137 138 138 127 112 98 79 60 65 74 84
64 100 70 61 98 89 114 152 167 198 175 145 99 113 87 62 21 1 68 141 202 208 255 286 248 255 191 118 111 90 135 162 142 147 142 129 113 96 86 78 82 86 82 82
71 108 83 79 82 120 114 174 203 162 167 135 89 96 75 42 -6 -33 70 162 197 258 287 287 283 208 91 69 122 164 163 141 138 145 138 127 119 105 93 95 89 81 81 89
47 43 20 32 171 202 158 126 173 162 128 92 53 81 -7 -24 9 88 185 224 250 266 275 247 162 102 67 111 185 175 140 130 131 136 133 124 113 103 94 95 95 105 108 84
126 70 83 80 108 139 127 82 119 104 68 32 15 -22 1 45 96 147 186 225 258 255 252 208 152 124 156 191 187 140 132 126 126 119 125 113 113 102 104 108 105 105 103 92
132 89 38 117 151 112 96 102 85 64 41 50 44 47 54 71 122 156 209 251 259 246 229 213 163 157 196 194 143 132 125 123 121 120 113 98 104 123 124 125 122 118 101 101
90 89 95 108 91 107 81 68 53 54 25 12 15 19 37 63 115 154 196 232 239 237 206 159 180 200 188 151 139 121 120 119 122 115 109 108 147 144 139 118 121 111 112 116
119 100 112 110 149 125 90 58 28 15 11 44 55 72 76 121 149 188 210 211 206 191 195 212 188 176 141 120 119 122 122 119 114 124 115 152 162 143 144 143 132 129 126 146
121 117 131 121 123 90 57 52 48 69 83 96 125 134 129 132 158 192 214 214 213 217 201 174 146 127 133 136 131 125 124 128 134 151 161 163 157 155 145 144 126 132 150 159
76 86 132 108 94 73 52 59 87 99 128 157 143 129 143 157 178 204 204 214 208 192 172 148 133 128 139 129 125 136 145 150 158 160 164 161 166 167 111 86 65 59 75 99
101 100 104 116 125 126 136 159 174 174 153 122 140 166 181 189 197 201 214 198 185 152 145 138 128 123 127 130 133 141 155 152 159 158 173 181 182 176 156 115 71 55 57 57
93 104 117 116 128 162 186 173 153 130 124 142 165 171 190 200 206 196 184 157 140 136 133 127 126 127 131 127 135 146 153 116 166 182 185 183 173 164 164 158 138 129 83 54
121 155 147 142 153 167 155 146 125 85 93 111 129 136 156 166 157 149 147 134 127 128 135 138 140 122 126 127 133 142 148 164 167 176 181 154 171 164 155 144 142 143 128 89
156 175 178 190 188 156 136 95 72 65 74 81 89 110 125 141 148 149 135 137 159 152 150 141 113 107 113 122 131 150 157 111 134 166 169 159 161 152 145 145 143 137 131 125
158 180 215 185 122 94 64 68 63 49 68 95 105 126 142 142 146 140 135 147 150 130 110 106 98 103 114 119 135 152 161 160 113 162 159 153 157 151 153 160 157 151 149 133
231 200 135 106 73 60 59 70 85 79 103 106 139 151 147 148 135 135 142 134 123 116 111 108 106 113 119 132 146 159 160 152 152 152 154 155 142 135 140 151 152 150 151 136
158 114 72 47 54 65 80 96 108 127 145 157 168 142 142 146 147 140 138 124 117 118 111 112 96 106 129 125 121 149 149 155 154 154 150 111 135 143 155 146 148 140 131 127
100 50 32 40 47 81 86 112 128 150 156 173 175 162 143 146 149 140 150 143 130 139 130 117 113 128 128 128 99 135 142 140 140 148 150 133 145 146 142 119 124 129 115 100
70 39 36 60 73 89 102 124 143 140 156 176 178 160 150 154 167 163 164 159 139 127 123 96 119 128 138 113 106 137 148 150 149 151 153 149 145 145 142 138 130 126 111 95
104 113 91 85 101 103 112 131 146 163 183 177 170 173 180 163 166 173 168 160 150 91 114 125 131 97 103 78 138 143 147 145 148 149 151 149 152 151 149 142 128 116 88 92
110 111 115 121 125 129 145 155 163 187 185 181 173 174 186 188 189 180 155 126 135 110 120 128 91 75 81 132 148 154 139 134 141 147 154 155 159 165 159 134 111 100 58 -39
113 119 130 147 160 178 159 169 185 187 186 190 188 197 187 180 184 162 154 118 100 104 115 113 101 81 85 149 146 138 135 139 149 163 162 114 160 148 116 108 107 101 -39 -23
116 133 162 170 164 160 153 182 208 208 197 188 187 186 181 176 158 145 133 129 97 111 130 95 79 82 130 135 133 134 134 145 154 146 150 159 146 134 121 115 102 -9 -21 -23
151 149 159 154 164 168 174 192 193 187 179 178 171 177 166 149 141 140 138 114 127 107 133 137 138 122 127 132 125 125 133 142 138 150 134 146 141 126 114 102 17 -11 -7 2
183 180 190 194 199 195 189 189 190 183 178 165 147 139 134 128 122 124 112 127 129 132 137 138 136 121 117 120 118 133 139 148 122 133 131 134 125 114 103 21 -15 -18 -13 -7

GFSNGP_con_3kmhel_012.txt.gz
Helicity
130 110 184 176 169 204 185 158 128 59 80 96 113 108 123 147 164 174 157 195 239 261 263 254 264 255 248 255 238 177 143 111 73 86 105 104 86 80 80 81 90 85 80 78
143 139 116 117 124 160 210 217 183 148 123 122 124 132 190 228 203 136 128 151 205 258 250 259 265 267 265 235 183 112 70 54 91 127 109 83 78 91 97 98 86 75 73 64
100 91 103 99 57 139 164 188 169 160 112 135 178 186 203 202 158 138 107 135 195 221 236 256 263 252 243 180 88 33 47 26 92 111 92 88 95 100 96 86 77 83 90 107
55 106 94 52 74 92 162 125 137 155 176 195 217 216 190 134 144 110 87 120 186 233 268 258 247 232 163 106 78 76 -1 62 94 109 109 102 97 90 91 91 107 117 121 125
79 84 70 72 68 99 138 130 198 245 253 243 196 171 166 119 84 44 42 117 192 222 237 250 219 182 166 139 112 80 94 106 119 113 105 98 102 108 114 120 124 126 123 123
78 64 24 61 116 141 154 110 163 199 192 157 152 138 71 74 42 69 122 172 213 244 241 227 206 171 152 144 124 109 120 118 111 103 105 121 118 111 130 132 126 137 140 116
113 78 94 69 122 147 131 80 204 191 158 122 85 50 41 43 58 87 108 158 198 219 216 193 178 161 158 119 120 123 111 106 111 121 122 111 127 134 129 131 131 144 147 144
145 105 50 177 213 141 118 151 140 119 88 67 33 18 19 21 56 93 132 165 196 217 205 194 183 170 138 142 125 111 112 115 118 122 116 118 125 127 137 146 149 151 160 154
98 90 134 104 126 149 113 96 77 68 50 45 31 39 69 77 81 97 130 181 202 217 210 175 165 169 158 135 124 118 120 126 128 117 122 113 123 129 150 148 170 182 169 161
123 117 144 166 173 137 110 97 81 72 45 36 55 78 85 98 108 130 152 171 198 195 185 184 181 154 140 132 129 134 127 126 127 127 99 128 134 149 174 179 187 158 153 166
150 141 155 130 139 121 123 109 99 87 73 78 85 101 113 112 120 133 145 182 209 204 187 164 154 162 153 142 141 139 135 128 117 116 119 128 143 163 167 175 144 145 155 155
99 95 142 99 130 139 135 104 95 80 86 105 110 111 124 131 132 149 168 187 185 179 176 167 156 144 150 149 142 131 122 109 106 116 134 137 155 166 112 75 61 57 49 88
162 145 148 134 148 126 100 98 112 126 124 111 115 108 125 140 144 163 175 172 173 171 163 149 138 144 142 129 124 116 113 107 122 132 145 151 155 155 160 131 78 61 45 50
120 168 184 112 90 101 107 107 118 110 101 94 101 104 115 144 153 158 165 162 154 154 149 136 128 125 120 111 105 107 122 110 137 146 143 143 139 143 158 159 154 143 91 60
147 119 108 112 114 118 125 118 117 118 104 81 76 88 118 143 156 152 152 150 149 140 130 122 113 111 101 102 125 135 133 131 129 128 132 111 144 150 151 148 149 157 149 115
162 153 118 101 85 104 113 107 121 90 60 55 80 105 122 145 151 148 148 142 138 118 107 111 120 119 123 130 129 128 126 73 90 124 131 142 146 142 145 151 154 149 150 139
138 114 107 130 105 121 113 96 63 58 68 79 82 113 144 149 149 141 129 127 115 102 113 132 122 122 115 110 116 127 135 134 81 136 143 143 143 140 148 152 146 150 147 131
105 103 152 156 146 128 84 41 50 76 95 111 134 153 157 156 146 150 138 138 133 128 132 128 120 110 111 120 127 140 145 133 135 142 147 145 129 129 143 139 135 136 141 129
158 154 152 140 99 64 49 50 62 84 113 134 166 152 158 171 175 162 156 146 140 138 125 119 94 109 128 120 121 142 141 143 149 154 144 107 130 129 141 131 130 132 133 123
152 147 100 92 68 42 42 65 88 105 126 163 182 195 194 187 175 169 172 143 133 139 117 106 109 127 130 126 104 134 141 146 149 153 147 123 136 129 129 108 111 125 119 105
113 121 93 65 52 63 75 91 105 113 134 166 182 185 189 205 192 177 163 154 125 120 125 111 127 136 149 124 112 139 153 158 155 152 143 136 129 127 128 129 133 121 110 112
110 96 76 89 97 90 84 87 106 135 154 171 192 217 214 188 174 160 136 132 137 114 125 132 140 114 115 85 140 149 158 156 155 146 139 134 136 139 140 144 136 120 112 107
91 104 113 112 103 99 107 106 124 144 158 178 196 198 189 174 156 148 135 130 143 122 133 141 111 88 89 138 155 159 150 142 138 135 139 142 143 153 160 148 117 107 104 21
109 111 117 121 122 129 115 126 144 167 180 193 195 197 187 169 153 140 140 121 105 112 128 131 110 89 97 160 153 146 142 137 140 148 139 95 149 153 144 130 120 109 110 2
129 137 143 138 127 114 125 154 210 230 230 226 225 198 165 146 137 135 134 133 108 127 142 104 88 95 138 143 141 136 133 138 138 123 130 145 142 145 137 120 105 93 -12 -20
121 124 137 133 137 143 162 187 222 220 215 213 198 168 148 142 135 135 134 118 134 113 137 136 134 119 127 130 119 120 124 129 125 132 114 132 139 136 112 90 84 13 -2 10
151 160 169 176 180 190 192 197 209 203 194 184 159 139 132 125 121 124 116 128 129 133 133 129 129 118 112 113 110 123 133 142 111 117 123 132 127 114 91 76 22 5 4 16

GFSNGP_con_3kmhel_015.txt.gz
Helicity
125 133 151 233 259 235 226 169 140 96 120 75 64 67 102 134 132 149 180 210 220 251 250 249 261 250 232 222 191 158 152 115 96 32 25 105 126 101 81 73 62 50 52 56
103 103 105 133 162 193 166 192 183 160 102 88 137 172 164 138 137 158 176 170 174 206 232 250 250 243 239 223 198 160 133 127 15 -6 102 113 101 86 73 61 59 57 58 61
78 99 92 88 84 145 148 180 144 184 104 164 187 184 189 198 205 192 173 125 150 183 220 259 250 245 239 207 164 143 126 97 83 47 108 104 89 80 82 69 59 59 73 85
99 124 87 48 79 106 170 122 204 179 135 165 215 261 263 258 225 219 138 127 156 212 255 263 260 244 210 178 161 123 104 98 65 109 131 108 93 83 75 67 62 72 82 85
83 103 47 38 40 81 126 94 109 160 208 260 287 285 281 233 164 119 105 91 143 207 250 259 241 215 194 173 114 108 105 100 126 128 106 99 92 79 65 67 80 86 85 80
85 87 81 25 50 69 79 81 118 197 233 264 243 194 144 142 109 95 95 135 193 229 251 249 226 198 176 142 128 118 123 124 111 99 96 87 77 68 68 80 89 103 96 99
99 74 56 56 78 97 109 33 203 217 204 194 190 150 138 95 87 101 130 170 193 213 217 211 191 173 168 138 142 130 120 105 98 92 89 76 76 70 83 93 99 103 111 102
129 89 21 125 168 134 100 185 199 196 170 150 127 110 88 73 78 102 130 159 180 208 212 203 185 174 151 153 144 119 98 94 98 99 94 92 79 86 94 96 100 101 109 125
94 88 109 119 129 150 106 142 135 141 108 97 83 59 40 44 63 84 102 132 159 190 207 195 192 179 166 142 109 99 107 109 104 95 93 75 84 92 106 101 112 118 129 161
103 105 121 150 217 194 164 149 132 118 102 91 77 68 71 74 75 85 116 151 171 181 189 188 186 164 132 107 104 112 104 100 99 87 73 90 108 106 113 114 113 115 140 160
124 140 190 188 198 194 200 175 161 137 104 79 76 74 82 84 91 115 135 159 182 194 190 177 144 130 122 120 117 109 105 101 88 87 89 99 103 101 103 94 93 111 127 145
48 80 175 151 203 189 175 143 114 90 84 89 85 84 102 109 113 138 169 186 188 174 150 130 128 135 125 109 109 114 104 89 85 90 107 108 112 116 74 51 38 38 45 90
84 177 210 287 271 193 165 116 101 104 91 81 94 101 115 135 153 161 169 165 147 126 123 123 128 133 115 113 113 103 95 90 96 100 108 110 119 113 120 107 59 45 44 47
101 219 270 204 164 134 124 102 100 87 86 99 112 128 138 131 138 144 137 127 136 137 136 137 133 127 107 100 97 92 91 70 116 122 122 123 106 109 121 126 126 125 88 56
128 176 164 191 153 119 102 84 76 83 84 97 102 77 76 99 121 124 133 136 144 150 149 140 133 115 100 99 90 90 104 121 127 123 113 89 119 120 123 123 130 136 123 84
230 267 211 153 104 83 81 63 70 79 86 83 65 63 102 129 144 146 145 146 157 169 159 140 116 96 91 97 109 121 127 93 99 122 116 117 118 123 129 131 128 121 116 119
251 176 143 120 70 57 48 72 84 90 80 60 55 83 118 138 164 168 161 155 159 157 138 118 103 97 107 127 136 127 127 124 89 128 126 127 135 127 129 127 129 122 126 106
119 100 63 62 56 64 64 62 63 54 39 28 60 101 130 148 148 162 160 168 164 144 124 107 115 120 132 132 127 133 138 135 132 140 144 138 122 122 132 122 123 117 122 117
141 114 92 104 81 81 75 68 38 24 53 76 112 114 131 151 171 180 192 183 173 156 141 137 119 127 132 121 118 145 142 145 153 155 140 110 125 123 129 115 115 114 120 128
168 137 112 91 84 89 71 46 51 63 81 108 138 159 163 179 197 206 198 166 163 148 123 116 121 130 124 124 109 140 153 152 149 145 146 127 134 121 115 92 100 113 120 106
110 108 95 86 72 53 46 51 66 76 86 106 127 139 158 189 207 213 199 176 153 135 132 121 126 134 143 122 117 152 161 152 149 151 145 133 121 114 115 116 122 120 102 96
82 71 65 62 61 77 87 93 98 103 106 115 134 170 196 198 200 182 155 153 142 139 123 125 132 105 118 109 154 160 156 154 154 148 138 126 124 126 124 123 120 101 91 59
57 54 62 77 103 119 129 116 98 99 106 116 133 153 165 172 180 188 179 156 134 109 122 128 101 104 111 155 163 159 149 142 136 133 129 129 127 131 129 114 94 91 71 32
53 68 97 127 136 135 132 119 105 107 126 149 170 179 181 183 171 152 131 109 101 104 113 108 104 108 112 163 153 148 142 136 135 136 126 84 127 126 114 109 97 91 71 15
82 106 134 152 151 134 126 109 137 150 176 200 207 199 184 163 149 129 122 118 106 111 115 106 106 111 138 142 146 139 133 136 138 129 121 126 121 117 114 100 84 71 13 8
92 121 154 159 146 122 108 109 141 152 177 193 186 174 163 145 123 114 103 100 110 103 117 123 126 119 126 128 120 124 129 127 118 118 100 114 113 108 95 70 58 20 13 26
147 173 178 172 156 133 129 140 168 185 193 190 183 163 144 124 107 108 106 105 107 115 124 125 122 112 106 112 116 128 130 133 105 108 105 105 97 94 81 42 27 9 15 25

GFSNGP_con_3kmhel_018.txt.gz
Helicity
91 73 -29 23 108 89 103 69 89 29 34 8 44 45 30 49 102 139 157 148 153 184 198 199 232 262 280 280 250 201 167 139 125 99 87 63 105 100 94 91 79 72 67 55
74 82 68 65 44 57 66 66 56 52 17 82 107 114 86 84 126 121 118 143 177 190 183 215 237 264 277 268 221 168 157 143 115 94 80 108 104 100 84 75 71 68 74 64
97 80 76 46 45 64 61 58 66 53 -10 69 112 119 115 138 144 133 146 164 165 165 180 213 245 275 272 231 190 170 156 116 95 94 118 104 92 85 94 90 76 82 71 67
54 62 43 62 74 26 63 53 74 47 75 59 76 167 237 256 235 227 218 170 159 159 198 241 277 269 254 220 196 157 101 95 104 111 109 101 101 99 100 95 84 80 75 79
76 28 54 45 43 63 94 12 23 9 91 128 218 285 304 300 271 235 190 152 124 150 209 245 244 244 233 215 189 107 121 127 114 109 112 102 104 105 92 103 90 80 83 84
99 88 48 54 36 36 41 43 45 128 170 212 224 162 215 232 216 178 130 113 131 186 206 220 234 222 214 203 150 134 124 121 115 106 94 105 100 94 97 91 85 94 87 97
73 24 57 38 46 57 62 50 70 111 168 228 211 218 199 141 118 110 101 113 153 159 183 213 218 216 222 174 149 131 122 118 103 100 102 87 90 93 87 86 95 91 98 106
55 31 17 64 113 86 93 106 98 137 191 229 209 171 135 112 98 84 104 120 127 170 207 220 211 200 182 151 141 121 120 112 107 98 100 99 99 95 92 90 96 99 101 96
42 53 70 81 96 112 89 133 139 178 161 141 129 103 91 83 82 91 100 124 154 188 225 218 200 171 156 153 128 129 124 115 100 94 99 93 93 85 95 103 111 100 98 97
78 81 82 79 114 138 142 187 183 153 126 96 91 82 86 84 80 91 114 144 169 199 202 188 175 167 142 145 135 125 107 94 99 98 96 89 100 106 106 98 98 95 96 115
104 90 95 81 129 202 233 213 194 159 131 110 87 75 70 74 82 98 126 160 169 156 147 173 166 151 147 143 125 98 90 96 93 95 89 92 100 110 107 90 98 104 112 124
50 53 86 114 212 232 239 202 160 149 134 121 92 82 83 89 100 120 137 150 153 166 167 173 166 164 140 114 95 94 96 104 105 96 100 109 105 106 93 77 71 65 52 87
81 98 137 199 255 236 253 189 154 119 106 91 89 82 85 107 123 148 168 168 154 159 176 187 162 128 111 103 97 98 95 92 102 101 111 114 117 117 116 119 95 72 54 56
137 217 203 203 219 219 210 169 135 129 103 88 87 97 114 134 142 140 150 169 190 191 170 142 135 127 120 107 99 92 93 87 102 112 118 124 129 128 134 130 126 126 98 80
167 162 139 251 276 231 175 131 119 96 83 81 82 87 100 113 116 149 185 191 181 151 140 140 132 129 122 111 104 100 100 109 121 128 138 140 134 126 126 129 135 134 122 93
232 231 265 262 222 160 122 99 89 75 70 76 75 74 84 109 139 158 161 159 148 131 138 138 130 132 128 116 102 97 110 105 118 142 141 139 136 137 140 138 129 130 120 107
271 233 249 203 120 91 77 77 71 67 73 71 69 81 109 122 127 127 136 141 142 152 151 143 143 138 116 108 109 114 129 140 125 133 136 151 145 138 126 124 129 125 115 97
117 121 86 108 92 82 78 74 75 75 72 70 83 86 87 91 89 112 141 163 164 159 156 151 143 125 117 121 122 126 136 139 142 146 151 146 138 123 126 116 118 110 112 102
98 115 96 90 86 90 85 73 72 84 82 75 82 73 73 80 101 142 178 181 183 177 180 162 145 124 125 123 122 129 137 140 145 152 147 126 129 120 123 109 109 106 108 111
178 174 120 125 110 93 96 99 93 87 84 82 74 74 72 92 130 168 186 185 184 175 173 159 138 128 125 119 115 129 129 133 137 144 149 137 128 122 112 98 102 109 97 43
162 124 102 98 90 94 97 89 83 78 80 74 64 65 89 134 160 185 190 184 207 180 154 137 128 123 126 118 102 117 133 137 142 147 144 133 120 113 109 110 109 97 50 63
102 94 77 70 82 104 106 104 99 99 89 87 96 120 143 159 168 171 171 167 182 169 140 125 122 119 109 88 112 130 135 140 145 144 133 121 119 117 112 111 102 76 79 14
60 60 71 82 91 102 113 106 98 95 105 112 121 129 137 159 166 167 174 180 155 134 115 113 103 89 85 108 129 140 138 136 133 126 119 119 117 114 118 112 86 77 53 -9
76 70 82 99 112 111 120 139 141 140 145 152 157 156 165 177 181 173 172 143 120 105 97 98 92 83 94 132 139 137 129 122 117 119 116 95 114 115 106 86 78 64 14 -10
91 83 78 83 105 136 164 154 163 156 162 175 186 198 201 190 173 148 131 116 98 95 96 87 89 111 131 132 129 124 118 111 117 113 110 115 108 97 84 62 57 17 -2 -0
60 67 86 112 142 157 156 134 148 131 135 157 171 164 156 144 132 123 111 92 88 90 97 102 113 119 121 118 111 101 102 104 108 112 109 101 89 77 -8 5 -4 -15 -5 13
91 96 127 179 198 182 160 145 144 149 151 148 158 148 142 132 119 103 90 93 95 97 102 111 114 111 109 105 98 98 105 108 105 108 96 91 81 67 -54 -39 -25 -12 3 21

GFSNGP_con_3kmhel_021.txt.gz
Helicity
169 115 7 21 13 17 34 33 45 24 60 64 41 26 50 29 30 71 117 146 158 152 163 181 207 227 243 265 254 255 252 231 199 144 102 78 85 102 112 108 100 89 87 78
54 69 59 36 14 2 28 25 19 19 44 103 155 133 95 49 61 83 103 149 133 136 179 204 216 226 258 253 267 257 244 207 145 99 76 82 98 115 115 104 83 82 83 91
55 40 61 52 32 35 19 -18 10 31 2 47 122 90 61 73 73 89 109 118 126 158 189 209 210 218 227 267 274 260 219 165 108 76 85 109 123 116 93 81 83 92 99 113
120 81 44 82 73 8 23 33 27 -1 27 106 83 70 142 151 110 141 155 147 160 196 200 213 224 229 286 280 262 228 184 122 69 83 113 128 108 93 93 101 101 111 118 130
91 58 109 54 26 58 61 29 -0 7 32 101 222 231 195 277 291 244 220 204 193 183 193 207 218 259 260 251 230 195 167 87 88 117 124 112 99 101 95 109 112 119 129 119
41 47 51 58 26 31 35 62 38 24 47 181 179 117 142 225 222 233 224 188 171 169 178 193 234 224 232 237 210 203 116 93 112 119 111 100 98 94 104 110 125 132 113 110
32 56 45 13 26 35 55 64 39 55 117 155 93 201 249 210 224 191 165 145 142 149 174 215 200 217 232 216 202 126 99 119 124 100 103 97 94 101 117 121 118 112 111 118
61 74 4 33 54 75 57 47 27 64 94 189 226 227 228 195 159 128 124 128 136 175 182 182 197 208 223 190 138 113 132 129 114 97 96 99 109 116 114 110 115 117 121 127
47 37 60 50 101 84 52 50 61 118 138 165 178 173 152 134 112 99 103 126 123 145 172 185 184 178 175 178 139 134 127 111 99 96 100 110 115 112 117 113 121 136 140 142
71 29 51 48 68 60 88 94 104 125 136 130 143 119 112 96 96 105 100 104 120 146 169 186 166 163 182 158 127 123 111 108 109 109 105 95 119 121 126 140 153 148 150 158
81 44 48 48 65 97 147 175 196 178 143 126 123 125 120 112 92 84 95 117 132 165 174 181 177 177 147 128 120 113 117 117 108 107 101 96 111 127 135 125 155 154 145 149
44 46 58 53 123 161 214 226 205 203 200 163 128 122 108 91 89 100 119 134 163 188 198 189 156 143 125 115 115 127 124 116 108 108 104 119 132 141 109 100 102 104 81 99
80 75 121 108 168 199 249 238 201 183 157 162 141 100 84 89 96 121 148 166 178 181 176 160 138 124 125 131 133 124 110 97 108 100 109 121 129 141 144 143 110 87 77 76
126 172 155 144 210 251 260 249 219 188 157 127 102 87 92 111 124 138 150 163 183 181 165 142 132 138 146 139 126 105 92 78 102 110 126 135 150 157 164 169 161 157 110 74
151 148 115 196 251 276 251 227 206 162 125 105 94 94 95 106 129 144 166 175 176 158 146 152 158 152 146 128 113 100 105 107 117 129 128 132 146 159 161 157 154 154 142 107
238 228 207 243 269 264 227 178 148 122 95 88 86 91 102 118 136 147 144 141 136 140 162 166 158 149 141 124 109 103 101 92 109 127 145 141 147 156 153 156 153 154 140 133
279 225 236 230 225 194 149 117 104 90 91 91 103 105 113 126 126 121 122 135 156 183 180 163 152 153 134 123 112 109 116 125 112 142 145 146 148 138 157 153 146 147 144 133
173 166 134 192 181 150 136 130 114 103 100 99 99 96 92 81 87 110 134 158 173 171 159 151 156 149 128 124 118 117 125 138 150 145 142 138 143 150 139 142 138 137 146 134
192 186 189 187 160 158 137 120 104 101 96 89 91 73 74 88 108 138 158 158 160 159 164 185 175 135 125 123 127 127 130 133 135 140 144 121 142 137 132 132 135 136 135 132
302 230 228 217 155 133 128 100 93 97 94 88 89 96 103 117 136 153 153 141 165 209 210 171 144 129 128 121 120 123 115 122 133 141 148 140 135 128 126 110 119 138 131 120
254 243 231 189 163 132 109 92 88 86 90 100 107 120 129 137 141 151 152 150 195 198 169 147 139 136 136 121 118 119 125 131 141 141 140 137 125 127 133 131 135 132 119 114
245 217 169 128 116 108 97 94 99 106 115 127 138 141 141 144 150 148 165 185 189 172 152 136 133 144 115 99 116 114 128 135 135 138 139 130 133 136 130 125 124 115 110 97
198 140 109 104 89 86 89 92 109 125 139 142 141 138 140 149 144 142 155 181 173 159 134 126 125 104 97 108 105 120 129 123 129 131 132 132 133 128 128 128 111 82 93 16
134 117 103 89 80 83 107 120 147 160 166 169 173 164 153 157 177 182 182 165 151 137 116 105 96 84 82 101 111 121 122 125 132 135 129 95 125 127 118 102 48 57 28 1
111 101 95 98 108 121 140 140 156 159 172 181 187 189 188 192 189 169 159 143 126 112 99 82 79 77 93 102 115 122 126 122 119 120 124 130 122 106 91 52 -31 -2 -9 -11
103 107 110 128 125 123 126 130 154 161 162 168 170 168 173 168 160 145 132 117 99 85 85 82 83 88 99 108 111 110 110 112 116 121 113 115 107 100 91 -42 -34 -18 -6 4
133 119 113 124 133 141 151 159 161 159 147 146 172 169 163 153 144 129 109 96 87 82 78 81 89 97 109 108 103 100 106 110 98 107 103 104 97 92 -4 -37 -18 -3 6 27

GFSNGP_con_3kmhel_024.txt.gz
Helicity
310 -88 89 73 16 60 67 81 115 146 51 33 42 25 18 2 71 151 171 198 245 271 210 226 237 248 282 281 258 256 262 251 225 193 155 121 92 91 84 88 87 89 105 116
66 120 60 56 46 52 34 55 68 87 75 95 89 94 42 36 61 134 153 231 263 236 198 241 251 278 318 290 270 266 255 242 209 162 120 85 82 75 77 78 89 102 109 112
80 38 64 42 -2 5 30 26 34 32 -6 70 133 176 119 101 90 173 190 210 227 211 220 246 278 330 310 274 254 265 258 215 169 134 75 74 72 77 81 87 95 102 108 123
87 63 32 30 46 25 35 49 38 29 40 96 113 275 387 254 157 153 181 224 235 238 274 325 356 316 317 265 266 251 210 182 162 76 72 74 83 81 83 97 106 115 123 128
76 46 61 43 32 52 64 84 39 38 62 200 299 379 364 383 334 334 368 327 287 325 360 387 367 353 308 275 241 200 189 174 116 74 79 84 77 82 93 108 111 130 135 129
96 74 56 65 44 40 62 67 67 35 129 252 320 247 169 247 361 406 391 354 347 344 348 341 292 267 256 213 189 185 184 135 75 74 79 72 87 99 104 106 121 130 124 121
66 65 54 6 15 58 65 57 60 85 184 258 277 133 219 273 300 282 272 271 261 248 238 220 208 216 212 187 190 177 138 86 78 71 73 85 96 93 102 111 125 128 123 116
76 22 36 37 18 45 24 24 33 119 204 332 284 284 301 259 232 213 200 179 172 212 200 197 190 200 179 194 165 135 98 81 71 85 92 88 81 101 103 116 125 124 120 128
70 24 45 83 30 46 39 29 88 136 155 211 227 208 197 192 179 138 122 134 154 167 180 174 168 159 182 160 144 110 84 97 112 107 81 77 95 102 117 116 123 126 131 147
81 56 65 40 63 65 68 100 115 125 145 168 191 167 171 150 128 114 102 111 132 153 153 161 164 188 165 137 106 107 121 128 103 81 82 97 103 107 122 120 126 125 133 152
97 86 82 47 52 111 168 176 175 174 168 168 170 140 119 104 99 94 90 98 112 124 133 129 130 139 125 116 125 142 133 98 81 95 101 99 102 111 111 110 107 116 142 161
93 51 48 29 67 151 172 187 211 247 230 179 142 139 125 112 103 94 98 96 120 124 167 149 133 125 132 134 137 128 101 89 96 103 101 105 118 125 91 72 63 71 61 95
47 102 96 126 164 163 214 222 237 254 218 206 155 146 150 134 92 91 101 110 153 181 168 149 151 155 143 134 127 99 92 97 102 104 106 118 117 116 125 114 81 74 65 67
148 200 153 134 128 210 289 309 287 262 215 184 175 157 129 110 101 111 116 137 165 180 163 158 152 145 140 130 110 105 108 97 106 105 118 121 115 124 133 136 143 148 107 63
153 136 125 219 325 319 307 299 304 256 208 186 140 112 81 77 93 114 145 161 164 161 155 156 161 143 134 123 121 118 111 104 102 113 119 99 124 132 138 149 153 152 132 101
255 275 273 282 279 271 275 278 277 218 182 141 113 89 78 88 109 122 128 130 140 126 138 155 143 132 140 136 132 116 104 84 83 116 125 131 136 137 144 148 146 135 133 128
299 274 258 222 228 241 249 238 215 178 138 107 87 87 98 96 102 110 110 121 158 162 150 143 141 148 149 135 120 116 116 110 69 120 130 134 137 138 146 149 141 136 136 133
170 238 220 231 228 276 285 237 185 141 104 85 80 71 71 76 75 90 115 138 153 148 137 140 168 169 145 130 133 129 115 114 111 121 130 135 130 138 142 136 129 135 140 141
199 220 192 219 233 260 251 200 152 118 91 72 74 77 84 99 112 114 122 120 121 135 142 173 175 148 126 122 125 119 110 106 114 122 126 111 141 143 134 128 127 134 142 141
330 309 317 303 272 235 203 144 119 105 80 82 89 98 112 124 125 123 116 130 150 159 173 168 154 138 140 136 111 115 107 107 114 125 139 134 142 130 121 104 114 128 125 109
312 311 334 293 261 204 152 109 91 90 77 81 89 96 102 104 111 122 141 156 152 181 172 155 136 135 148 118 108 105 107 114 126 137 142 140 131 122 124 125 123 120 107 79
242 288 267 249 228 204 145 107 90 82 86 95 105 106 118 129 148 175 185 162 144 175 153 135 132 135 113 97 106 107 113 123 132 142 144 134 124 125 130 129 128 111 61 18
247 239 229 188 161 129 121 116 96 86 96 95 100 125 142 145 143 140 152 157 156 144 125 120 112 108 98 117 110 111 120 128 135 134 128 121 125 139 129 123 100 13 -5 -9
263 236 187 126 113 122 133 104 116 115 125 153 178 169 153 148 167 163 158 152 143 126 119 106 107 106 109 110 110 120 127 131 125 122 119 80 135 132 117 101 69 -22 -19 8
204 159 132 136 130 107 101 87 109 127 158 181 188 177 167 168 142 130 137 131 131 126 115 112 111 103 107 110 118 126 126 119 111 107 115 120 119 117 109 85 -30 -31 -6 6
162 155 134 113 91 77 64 83 115 129 151 162 154 147 152 150 148 143 136 135 123 118 108 96 89 93 104 115 119 116 104 105 104 105 92 107 108 104 81 -22 -30 -11 19 28
140 121 138 150 122 102 114 134 159 159 141 137 147 140 142 142 142 141 136 120 111 97 86 85 90 94 108 111 105 105 110 111 86 89 91 100 101 94 -11 -26 -3 30 45 61

GFSNGP_con_3kmhel_030.txt.gz
Helicity
219 146 19 102 44 12 140 -79 130 222 189 57 46 40 71 130 145 165 173 188 188 194 205 235 254 261 263 254 244 234 234 213 203 190 183 165 141 124 122 138 135 125 114 108
112 6 53 8 23 98 127 158 209 148 171 56 65 106 67 67 114 125 154 172 192 207 219 218 246 271 273 257 227 208 200 202 190 192 168 153 130 132 141 140 128 112 113 105
87 94 99 76 129 19 104 145 84 176 62 38 59 47 21 30 56 94 152 196 214 214 209 242 264 266 239 215 196 194 197 194 189 171 160 146 142 143 137 129 111 103 100 105
169 158 78 105 47 32 59 30 38 38 84 69 67 105 104 57 35 57 114 158 200 230 254 262 269 268 262 215 189 190 196 189 178 168 162 148 140 135 126 106 105 106 101 96
71 73 68 130 72 53 42 61 55 32 56 95 148 160 126 91 67 140 204 218 246 261 303 301 291 272 240 196 189 197 186 185 173 161 149 139 145 147 103 103 105 100 96 98
32 43 34 42 65 44 42 76 48 56 92 87 129 130 84 116 152 260 305 304 328 311 315 317 261 249 230 204 198 186 178 171 156 146 149 151 134 113 95 100 87 101 104 111
-14 17 53 37 42 31 63 67 62 48 72 137 147 99 185 202 285 309 312 318 319 304 303 277 259 252 232 192 183 178 177 163 156 155 147 122 108 100 97 92 96 106 117 121
9 12 46 50 58 44 39 50 42 43 72 185 217 261 263 249 287 310 348 337 316 332 287 241 227 230 204 205 176 170 164 167 166 148 125 126 122 104 100 102 112 119 124 117
17 6 29 63 66 54 37 27 13 35 84 191 257 245 234 254 283 302 312 307 261 272 248 202 195 202 206 153 160 167 171 179 158 145 141 123 106 96 103 115 124 122 112 123
36 25 1 50 54 75 59 42 40 48 82 149 239 207 236 251 253 246 219 221 205 220 203 185 168 167 167 156 161 170 181 168 158 147 125 106 101 101 115 122 122 117 127 129
10 -39 -19 45 44 54 77 78 98 94 84 125 193 163 163 167 161 147 134 132 142 157 164 152 158 177 166 160 156 175 171 156 135 114 107 104 110 106 115 106 113 131 131 132
86 37 50 65 76 86 89 66 77 114 123 113 118 125 125 129 106 114 134 125 146 139 150 141 161 169 150 141 147 159 153 128 109 111 108 112 122 125 105 106 102 102 110 135
65 62 101 37 140 102 97 76 91 115 103 131 115 125 114 131 107 114 116 104 98 91 111 129 151 156 136 138 148 146 131 114 112 114 117 120 124 129 135 118 86 91 109 130
84 126 127 104 73 110 168 166 195 212 188 161 149 132 123 139 114 113 80 63 90 117 127 135 146 146 138 145 143 132 123 120 117 113 115 119 127 130 135 131 120 121 121 101
129 31 60 133 168 168 192 216 244 222 199 201 143 139 135 130 119 99 83 107 137 143 135 139 147 139 131 131 135 131 125 120 117 116 120 127 135 141 142 131 130 135 134 111
106 122 116 161 162 175 220 225 256 204 193 171 160 144 132 142 130 112 107 116 133 107 120 137 136 124 126 131 131 128 127 127 122 127 127 132 138 136 132 138 139 137 130 118
158 123 151 156 145 155 173 180 191 172 174 170 152 143 160 155 138 113 96 91 123 134 123 129 138 134 131 124 128 132 130 117 116 128 131 132 128 132 144 144 141 132 120 104
97 115 108 182 197 229 229 229 220 196 179 154 145 141 131 102 82 87 99 134 168 174 155 147 142 128 126 131 137 130 116 116 119 126 126 126 132 145 147 150 136 122 114 103
145 200 211 240 229 248 230 228 212 193 168 139 126 101 78 82 82 100 122 150 157 166 134 127 134 139 146 142 135 122 118 120 124 126 130 131 153 150 149 133 118 110 112 105
245 246 265 257 218 227 223 210 212 198 145 137 127 108 108 95 105 130 146 161 125 122 122 121 138 146 137 113 132 123 126 129 126 130 138 151 147 144 131 102 101 107 103 100
227 263 301 295 285 233 232 209 190 155 117 101 105 101 111 106 123 143 169 184 147 133 128 139 133 117 104 129 130 129 131 127 131 136 141 145 137 127 114 106 105 103 100 89
220 274 299 322 299 255 244 209 178 142 117 123 132 130 139 134 147 180 168 150 117 134 131 127 109 105 120 143 128 127 124 131 135 142 147 137 126 122 115 110 109 99 86 -38
256 264 275 265 248 238 213 186 147 121 119 106 105 110 120 119 141 171 157 116 127 131 122 108 111 125 150 132 123 123 131 137 140 136 130 128 127 129 119 111 95 88 -40 -31
267 251 288 248 241 223 215 158 163 156 152 143 136 125 142 173 208 177 153 134 135 126 115 115 129 142 140 117 118 131 141 140 129 123 125 103 124 116 113 100 86 -35 -28 -1
242 244 218 214 198 176 159 146 185 176 183 181 176 167 152 115 112 105 116 115 130 125 121 133 137 130 115 121 134 137 132 120 113 121 118 116 110 110 100 87 -23 -30 3 39
213 184 169 155 138 110 111 112 140 119 139 162 172 164 168 157 134 119 114 122 117 129 126 116 107 115 123 127 128 124 114 109 110 110 100 110 103 98 83 -4 -23 12 49 99
253 205 211 199 149 111 89 92 105 85 100 128 161 131 130 119 119 120 120 117 123 124 115 110 117 121 118 121 121 109 102 113 99 102 106 105 99 96 47 -21 26 64 117 140

GFSNGP_con_3kmhel_036.txt.gz
Helicity
303 353 448 467 387 429 316 263 319 194 128 32 -22 -57 -12 52 129 157 145 114 119 169 240 276 310 321 324 330 312 281 281 266 246 223 204 190 181 171 172 140 154 135 134 132
323 402 248 181 223 249 382 228 303 193 81 -2 -9 -45 44 178 170 148 107 77 84 142 221 243 253 270 285 272 251 245 246 233 216 215 201 191 178 172 152 157 143 132 137 124
351 228 140 176 247 326 224 115 196 217 239 89 191 373 287 246 197 91 52 58 75 121 172 186 205 229 227 222 222 230 229 217 214 205 199 182 171 159 154 147 133 137 117 95
283 142 38 120 104 239 307 194 238 204 380 394 383 234 152 205 158 60 56 76 103 151 172 189 215 228 233 206 211 223 223 213 200 196 188 176 172 155 146 135 132 102 91 95
67 79 62 87 105 139 144 190 255 273 304 274 185 225 197 135 111 85 62 92 115 133 174 194 205 213 242 232 233 229 203 193 178 175 182 166 161 150 137 124 103 99 88 81
2 55 31 54 2 84 84 115 223 293 320 312 217 149 116 62 70 76 107 141 168 172 195 224 198 233 255 227 210 191 174 182 193 188 168 154 145 141 107 92 101 88 85 83
-15 -11 19 21 16 60 20 45 3 88 112 117 118 158 144 72 121 127 148 187 190 181 182 196 223 247 248 205 178 182 213 215 200 174 163 151 129 107 115 101 92 90 86 96
22 4 -3 -1 13 46 23 27 33 4 -8 48 -7 -25 -2 96 130 149 177 187 208 245 225 203 217 249 229 207 196 220 218 209 187 171 150 133 140 115 98 95 94 94 96 99
42 17 -3 24 22 0 50 45 5 -3 43 164 179 109 81 175 167 180 195 194 185 235 258 235 218 214 240 199 224 222 210 189 170 162 152 135 115 102 94 92 92 89 94 106
45 19 -9 -2 29 38 41 13 14 22 72 83 128 107 151 180 177 183 179 187 198 257 261 253 235 255 238 201 199 204 200 181 167 154 132 114 104 93 93 90 92 94 100 106
60 30 13 32 32 33 46 35 37 47 58 86 132 118 123 140 160 175 194 206 205 247 266 258 254 255 203 179 186 197 184 168 146 128 125 109 96 84 88 85 84 94 101 109
-6 -31 46 105 46 22 28 35 29 67 99 110 104 108 128 165 147 145 176 185 249 253 263 244 245 212 177 157 165 169 154 138 131 121 109 107 103 101 100 82 76 82 89 113
36 45 37 55 63 38 64 54 41 57 62 95 82 113 130 145 125 144 173 194 211 209 207 198 199 196 160 142 136 153 148 127 117 122 112 106 109 112 109 104 85 84 106 115
90 76 77 48 94 102 106 95 113 95 101 103 97 125 155 173 143 175 174 162 172 178 172 161 165 158 124 133 155 141 131 143 123 109 105 104 106 106 110 115 111 118 113 109
80 72 70 103 186 153 98 125 128 116 112 138 137 154 155 166 167 157 141 141 146 152 136 140 149 137 115 125 135 134 127 115 110 107 104 107 111 112 114 116 126 127 123 100
90 110 130 154 177 119 92 169 169 117 127 141 159 159 157 170 163 146 118 100 126 100 95 120 130 113 123 131 131 124 119 119 115 111 113 113 114 115 116 123 122 116 122 116
122 121 128 101 73 95 62 108 140 135 150 172 169 165 188 196 176 147 125 111 119 104 99 119 126 121 124 124 124 112 105 104 122 116 113 113 111 114 122 115 115 120 116 100
7 5 27 76 110 142 153 180 192 176 180 166 184 175 176 146 132 119 119 132 159 164 133 119 119 123 125 119 116 104 106 110 113 118 116 111 109 118 116 113 115 113 111 98
70 105 137 168 157 182 199 215 219 210 203 178 187 176 150 131 111 98 100 125 124 131 97 116 143 135 125 112 113 108 114 121 126 120 115 107 117 115 112 113 105 103 100 96
154 173 209 239 202 232 265 240 235 243 194 204 212 180 152 106 98 110 118 124 83 95 121 129 126 119 112 119 122 114 124 130 126 115 113 122 117 116 115 90 92 97 93 93
196 209 247 285 303 298 281 219 241 239 190 164 163 126 106 96 101 101 121 131 111 127 121 124 108 106 108 116 123 127 132 127 121 117 117 117 116 119 104 98 98 93 94 86
220 253 265 291 309 307 256 259 242 224 178 181 151 136 134 117 118 135 114 114 107 124 108 107 100 123 120 136 125 127 126 120 113 114 119 124 125 109 102 106 104 100 91 21
221 252 263 267 299 310 294 248 242 183 189 138 114 103 104 85 87 120 114 86 101 120 117 107 121 138 136 127 125 124 118 113 113 115 122 122 110 110 112 108 101 97 53 -15
235 252 281 271 280 293 307 262 232 208 184 148 124 99 106 124 135 109 125 126 141 132 114 117 130 139 141 125 121 121 115 112 113 117 118 83 109 115 115 113 97 80 -29 14
246 266 275 270 323 295 253 224 228 206 190 165 140 120 111 86 73 96 124 115 127 125 125 137 146 147 127 121 118 110 106 111 117 118 111 112 115 115 113 96 64 -42 4 56
233 251 229 200 223 201 184 167 200 139 146 158 143 115 120 140 142 121 111 120 117 127 122 123 125 125 117 109 108 106 111 119 112 107 101 116 111 111 94 84 -38 17 62 106
261 249 288 311 269 197 166 151 147 112 106 118 135 103 123 118 114 115 115 104 108 118 124 126 119 110 107 106 105 107 113 114 90 100 114 111 108 105 93 -21 39 87 113 134

GFSNGP_con_3kmhel_039.txt.gz
Helicity
257 307 360 435 388 281 416 485 304 254 369 261 83 28 -13 5 51 91 117 100 105 140 194 264 317 320 333 349 349 334 335 306 264 241 222 196 173 154 143 141 123 98 96 107
278 291 295 340 239 246 120 207 175 218 300 156 49 -31 1 83 63 135 129 111 98 114 156 222 249 268 297 304 307 298 301 275 229 214 194 178 164 154 151 139 89 92 109 100
124 96 130 88 183 162 82 106 116 161 187 102 77 93 98 89 173 204 160 81 54 60 100 143 181 226 245 259 277 286 263 217 201 188 186 175 158 150 139 91 90 107 96 88
96 95 36 125 127 114 135 83 191 128 124 146 164 195 269 157 198 164 75 31 23 62 112 155 185 218 249 240 237 237 219 202 183 187 184 163 152 135 97 94 108 90 92 89
28 85 127 -0 101 101 156 179 180 173 229 236 257 297 156 107 119 76 27 15 30 55 115 141 158 194 242 229 223 209 191 185 180 169 159 141 132 102 108 102 92 91 73 77
30 73 57 86 73 86 135 159 199 226 274 274 268 241 177 175 128 89 50 54 80 95 125 160 171 212 227 195 187 191 183 178 163 150 136 126 105 116 100 89 97 83 81 81
66 52 62 70 79 74 36 62 130 140 158 173 237 224 160 72 57 39 44 72 72 101 142 168 168 186 197 179 192 195 198 174 151 139 141 118 116 98 96 99 88 88 87 87
25 30 23 22 29 37 89 52 61 87 84 100 87 69 68 54 68 52 79 105 124 167 165 138 149 206 216 220 178 169 164 169 163 144 125 115 116 107 97 95 99 90 85 94
39 37 12 24 68 47 64 80 21 -11 -47 -18 56 6 79 47 49 61 80 118 139 197 206 167 161 195 240 162 171 182 184 167 145 134 128 110 110 103 98 95 82 83 89 94
16 15 12 -2 9 5 16 25 40 20 19 56 70 70 91 123 105 127 111 145 169 235 235 232 200 211 213 165 167 181 164 137 128 130 121 109 101 97 85 75 83 93 94 92
24 10 14 10 5 30 37 23 5 35 29 49 101 111 107 139 130 137 163 163 183 234 247 228 222 226 173 156 165 165 144 132 132 124 115 108 95 71 72 70 70 79 83 92
23 20 17 19 88 16 39 25 13 47 68 80 107 112 138 136 112 140 179 185 252 257 264 232 232 203 157 131 134 140 142 128 118 112 103 94 84 87 85 96 96 98 94 102
37 51 43 40 40 38 67 86 36 51 52 86 118 95 104 119 146 167 189 208 223 215 215 210 194 167 123 119 126 136 134 117 113 105 91 88 92 101 105 113 97 99 102 95
56 112 84 35 79 89 113 68 108 89 67 63 79 116 132 165 149 177 181 169 178 191 184 164 166 153 109 119 142 134 120 124 97 86 91 97 102 105 100 99 96 96 97 106
94 70 59 107 137 176 135 143 179 151 89 127 111 126 135 168 184 175 151 153 166 169 140 139 150 132 102 107 122 116 108 96 92 96 99 112 104 103 107 104 98 98 105 102
79 74 112 125 122 145 119 92 201 102 99 118 144 151 157 174 164 151 128 104 130 100 98 121 117 82 91 112 116 108 100 118 115 107 107 106 109 113 109 103 104 109 107 103
122 86 109 103 57 85 35 25 104 83 114 138 135 141 172 187 181 154 127 113 118 99 78 91 96 93 102 102 104 99 100 106 121 109 110 112 111 109 102 106 111 106 99 87
26 59 73 63 77 165 121 107 151 142 146 135 143 127 148 146 123 99 104 120 149 142 102 84 91 104 112 105 101 100 103 102 108 114 111 107 107 109 114 115 111 106 90 83
-16 1 66 123 113 169 191 189 198 203 188 159 167 147 136 124 99 86 82 110 109 112 69 91 128 117 98 104 108 100 106 113 116 111 110 110 120 124 123 116 106 87 82 79
96 128 168 196 180 204 228 215 227 233 180 194 184 179 161 109 91 100 104 109 62 70 89 107 104 101 107 116 122 109 115 115 114 117 115 129 131 126 119 101 88 83 81 79
167 183 217 247 249 233 232 194 238 239 189 162 198 168 134 103 107 109 126 124 78 98 99 107 97 99 104 114 117 114 115 119 126 131 134 134 127 122 111 95 86 84 83 71
176 214 241 255 274 277 244 216 238 208 226 224 195 163 148 132 118 120 89 92 78 107 92 97 103 116 112 129 115 115 118 126 129 134 135 132 126 113 99 93 92 85 78 48
184 222 262 262 294 325 320 290 273 222 196 172 164 130 118 76 75 119 105 67 89 104 102 94 115 128 133 117 112 116 125 131 136 135 131 121 107 105 101 94 92 86 68 -23
203 239 288 293 308 338 348 311 284 224 212 195 153 109 107 120 122 81 119 109 126 120 105 110 121 127 125 107 111 123 131 136 138 129 111 85 109 105 99 99 94 80 -31 13
212 241 273 292 321 295 285 256 288 252 237 206 162 127 110 82 70 82 121 112 129 122 120 128 129 123 107 110 121 130 135 134 122 112 115 107 107 106 103 88 88 -30 22 65
212 221 237 223 258 247 250 231 256 190 203 198 163 125 115 137 141 129 115 111 103 117 109 105 101 109 111 119 132 134 128 113 108 102 96 110 106 105 88 82 -13 35 82 112
261 253 268 298 276 229 206 211 210 170 143 149 163 109 127 137 123 112 108 99 96 96 102 101 98 106 119 119 124 118 112 111 91 100 114 112 105 96 87 9 50 94 117 138

GFSNGP_con_3kmhel_045.txt.gz
Helicity
51 61 48 50 72 96 145 276 325 312 98 99 -22 -8 -5 6 -35 45 72 54 -35 -57 90 134 153 181 173 186 203 237 283 332 391 371 333 284 276 263 233 200 171 149 124 108
113 62 23 80 30 24 67 104 91 124 135 74 44 37 63 12 25 -34 -46 -58 -5 79 121 116 167 172 158 189 254 291 354 405 366 315 273 264 254 218 200 178 152 126 112 107
40 41 47 40 14 45 105 92 78 89 74 4 5 102 100 88 83 127 179 110 21 48 62 91 142 133 165 251 328 384 408 363 275 247 262 240 215 200 172 152 122 111 102 119
50 25 47 72 67 54 85 19 -6 53 39 30 37 12 -30 -20 46 -1 32 12 3 19 89 125 151 166 216 304 349 358 355 342 208 228 225 204 200 177 150 125 110 107 112 92
20 20 40 21 36 -29 43 20 53 -2 -5 8 13 -10 -53 37 -12 -60 -57 -39 -16 67 147 143 168 165 250 369 407 363 276 223 157 191 200 179 170 153 133 121 111 99 100 90
38 -2 3 30 45 78 26 25 25 15 29 11 8 75 47 69 36 36 69 92 114 113 124 146 157 199 278 276 228 145 124 160 158 169 163 160 147 136 121 111 107 95 84 71
26 10 21 55 52 80 -21 11 9 -5 70 49 2 4 24 20 20 3 -3 6 10 32 61 51 38 48 93 106 130 134 151 159 164 163 161 144 117 109 110 101 83 74 69 65
14 26 26 48 37 -10 -3 63 5 9 42 16 21 9 -40 -48 -24 8 20 6 11 39 40 37 53 103 131 143 129 151 165 180 178 148 110 103 114 98 91 83 73 74 88 89
20 32 6 19 -1 -6 12 15 -1 45 35 15 6 18 -36 -30 -12 -12 6 53 103 87 108 115 117 114 160 130 147 176 181 155 124 116 113 93 84 88 82 81 86 89 93 86
-6 -3 14 -17 -11 40 38 13 20 -3 96 12 37 -3 19 12 28 32 19 26 32 59 79 90 88 117 129 118 132 149 134 116 113 103 92 92 88 85 86 85 84 82 88 102
14 68 15 54 22 46 47 30 22 14 46 67 73 40 30 30 40 76 68 58 63 89 121 150 153 159 131 120 117 131 127 109 104 93 99 95 92 86 84 105 101 97 106 102
-31 29 26 29 17 40 41 25 9 21 49 70 72 85 83 79 80 104 133 135 142 140 191 175 158 150 132 119 114 116 117 101 99 96 95 87 79 81 85 94 93 85 85 101
-38 48 28 33 34 53 41 30 33 39 39 72 93 102 95 114 113 131 146 149 168 194 187 192 188 200 138 118 107 103 111 108 98 95 94 92 94 98 95 91 66 60 72 103
52 45 31 38 48 71 63 62 86 39 51 74 93 99 112 147 150 166 178 174 190 219 238 227 212 187 135 121 122 128 126 120 104 103 100 98 102 95 88 89 99 122 143 128
16 33 76 91 125 121 65 72 73 71 70 82 82 93 108 151 159 181 189 206 239 264 244 211 196 163 119 114 114 112 104 105 101 96 103 98 86 81 87 103 117 126 134 129
64 65 91 123 144 116 80 122 95 111 117 87 66 99 118 152 174 208 208 193 243 213 172 164 156 121 103 101 109 110 114 115 103 93 87 83 88 94 106 117 124 133 135 127
64 74 113 114 92 96 108 119 110 95 72 92 80 114 147 200 241 241 215 203 207 183 144 125 120 98 100 97 104 95 92 93 87 88 95 95 95 109 128 136 143 137 119 100
32 45 75 75 78 118 109 85 119 72 50 66 109 138 170 192 219 203 193 184 189 171 121 98 91 97 105 101 94 87 87 92 95 96 91 101 122 129 139 143 129 117 109 101
40 38 16 46 90 59 58 52 66 55 68 105 131 147 167 199 206 188 152 147 137 133 95 93 108 110 104 94 89 88 92 95 95 100 107 109 133 147 143 136 122 116 115 102
-52 -81 -48 36 47 69 65 59 100 101 106 156 208 207 202 187 173 164 135 137 90 85 89 92 96 97 95 89 85 92 101 101 98 109 129 138 145 148 142 123 120 117 109 95
-7 1 36 65 79 99 103 139 185 194 187 191 216 192 180 174 159 148 141 137 91 90 98 94 82 79 76 81 88 99 94 94 107 125 134 139 143 145 145 142 133 123 106 93
38 54 82 117 162 179 188 198 208 222 227 234 227 236 202 196 168 145 106 107 85 95 86 81 79 82 90 92 93 91 96 106 118 129 137 145 151 158 160 150 141 117 95 68
107 121 131 146 169 214 238 234 236 237 253 244 224 211 197 181 142 153 128 78 89 87 87 84 95 99 97 91 90 98 106 114 125 134 141 152 161 161 157 138 111 86 68 44
94 117 147 194 218 249 278 258 270 296 325 279 236 203 206 209 164 99 101 102 113 102 89 87 92 97 86 87 97 103 110 121 131 136 138 137 161 146 122 99 85 72 44 45
106 150 171 187 215 261 298 313 361 374 363 316 274 224 194 142 114 102 127 123 124 108 100 102 96 85 85 95 99 106 114 125 133 132 143 145 123 104 95 89 79 60 84 114
81 108 143 176 212 255 282 318 359 337 350 297 245 219 172 140 145 152 142 132 115 112 96 76 72 77 88 95 100 105 113 118 123 130 127 112 94 94 86 82 67 95 113 117
120 140 200 222 246 260 277 298 335 273 245 271 276 201 163 151 144 138 130 118 111 99 80 73 75 83 89 95 100 107 113 117 112 125 109 96 85 82 82 59 80 103 112 117

GFSNGP_con_3kmhel_051.txt.gz
Helicity
-3 -8 16 39 46 24 120 173 186 226 134 220 92 53 94 75 156 130 119 153 158 140 147 66 103 185 283 392 418 429 430 341 310 290 276 317 373 361 406 359 294 249 290 301
23 19 16 20 12 53 90 84 158 201 233 138 111 103 95 164 121 65 71 192 87 64 120 115 159 195 270 322 344 342 343 307 259 277 339 378 383 404 371 318 301 313 176 139
32 67 34 5 40 113 91 120 165 139 179 74 17 55 135 122 45 35 21 140 99 66 80 208 257 297 294 280 323 305 289 272 292 365 451 470 420 296 272 354 258 186 158 117
17 47 13 8 29 43 75 31 28 89 62 26 -8 190 153 100 49 36 48 175 223 184 239 283 306 282 234 257 273 280 287 355 435 501 398 266 239 300 224 158 116 69 111 119
12 17 17 21 21 15 57 -2 36 33 52 6 -13 141 131 63 45 55 44 88 150 157 153 175 195 223 246 299 324 341 318 317 331 246 262 278 270 228 133 118 124 92 81 105
37 13 19 25 -6 31 68 -1 53 62 -14 -17 -30 64 62 19 61 79 64 57 91 121 173 217 197 239 281 243 285 332 273 273 240 189 180 238 195 100 53 42 83 92 95 88
8 8 29 26 19 41 18 -25 61 84 95 38 66 50 43 36 50 99 67 125 120 129 154 163 134 162 104 5 97 107 88 129 105 113 104 61 26 24 63 76 89 87 97 98
17 18 25 23 31 5 -5 52 75 75 106 149 93 93 62 29 9 16 31 63 110 136 119 93 61 50 80 46 14 25 43 36 61 13 -8 1 31 51 68 72 93 96 105 113
7 25 32 4 0 60 58 58 57 76 100 163 88 55 65 22 -16 14 -15 -45 -36 -18 -37 -63 -58 -43 -36 -47 3 -3 -16 -4 45 29 29 35 54 62 77 85 94 98 99 98
38 50 37 46 55 25 35 39 40 47 105 150 104 55 81 64 18 8 -18 -8 -16 -26 -28 -42 -49 -54 -9 -33 -23 50 93 32 8 42 51 61 71 69 80 83 86 79 86 92
65 55 -9 31 25 11 38 48 40 41 86 88 111 57 78 42 67 39 22 0 -11 -17 -37 -41 -21 12 8 18 57 50 17 23 52 68 69 70 71 70 72 53 64 71 67 70
42 19 16 2 14 36 49 44 20 34 87 106 110 92 110 58 41 72 65 53 51 19 19 0 24 19 9 21 43 60 64 54 48 53 60 65 66 69 80 79 77 72 74 86
21 33 2 13 47 54 52 44 39 39 35 99 99 114 100 106 109 93 77 61 73 61 52 49 46 42 19 25 42 61 70 60 65 66 66 69 72 83 82 68 99 128 137 139
27 98 30 49 44 59 64 73 98 112 116 103 151 166 191 201 159 139 85 86 122 125 109 81 64 56 33 58 83 90 83 86 65 66 67 72 72 69 74 87 101 119 146 159
-6 38 64 107 142 106 112 109 123 86 130 133 105 142 177 162 117 119 121 137 149 169 151 129 111 79 67 85 94 81 78 70 69 70 71 75 73 83 96 109 121 132 144 168
48 67 94 99 98 107 113 113 126 75 100 127 149 152 142 134 145 152 132 120 162 153 139 132 113 66 81 92 95 91 80 98 86 74 76 78 85 95 107 123 140 158 172 179
19 27 60 77 86 95 96 101 86 88 90 123 155 149 141 129 158 162 137 115 153 163 126 116 106 83 84 83 85 77 77 75 94 80 78 80 91 99 114 140 156 174 184 173
3 -2 24 56 109 106 97 90 91 126 101 106 135 106 100 89 114 128 141 172 193 180 135 102 97 97 96 83 76 75 75 75 74 72 75 84 95 122 144 155 170 187 188 171
43 21 36 63 101 132 126 119 130 132 129 104 126 91 77 79 99 126 144 180 170 157 89 89 107 108 93 86 86 78 79 77 73 73 81 101 118 135 145 160 178 182 167 134
49 35 52 65 93 113 116 110 113 119 108 91 92 84 92 85 99 135 140 145 97 81 84 90 96 103 98 94 99 79 76 74 78 82 86 112 121 132 150 171 173 152 127 93
11 -5 11 35 44 54 62 59 38 50 64 60 73 100 133 129 113 134 158 148 82 88 90 97 90 88 87 92 87 78 77 80 83 89 109 116 116 138 156 156 133 104 74 52
19 -14 -13 24 67 93 71 50 61 97 94 104 126 174 193 159 153 144 110 126 93 98 92 89 87 91 87 100 80 79 79 79 88 106 112 107 124 140 136 118 91 66 48 48
29 28 40 72 102 138 180 198 148 145 162 160 172 173 181 162 149 192 169 91 115 99 99 90 97 108 108 88 80 77 77 85 101 109 106 115 122 126 114 87 60 47 37 40
30 46 55 91 153 186 184 177 180 164 211 244 192 185 234 211 173 110 118 127 116 115 97 103 103 108 106 84 77 76 78 92 103 101 103 107 121 113 89 66 48 37 29 -14
21 21 52 102 129 139 188 220 245 237 258 285 271 232 234 180 172 159 172 139 123 125 115 110 108 110 91 78 75 77 81 96 99 108 119 121 113 104 76 54 39 28 2 5
36 33 44 68 99 140 168 187 210 228 257 275 284 231 243 191 193 177 178 161 132 124 127 112 102 91 81 76 75 80 91 97 104 108 109 111 103 90 65 46 37 25 7 29
36 54 71 86 100 130 153 186 211 210 213 234 287 260 273 237 219 197 159 140 137 129 111 97 97 84 74 72 76 81 90 96 96 110 117 108 91 77 61 53 42 23 22 39

GFSNGP_con_3kmhel_054.txt.gz
Helicity
12 14 22 20 36 88 116 118 126 136 95 232 108 77 97 14 69 10 -2 5 68 127 91 95 172 86 81 124 204 261 293 337 303 292 305 302 334 346 395 456 488 482 393 364
26 14 2 8 1 19 108 89 132 205 237 248 112 39 15 28 5 -1 0 17 99 108 95 98 91 77 114 148 191 246 292 315 336 348 368 344 393 414 488 521 544 375 388 193
14 35 19 10 34 84 38 48 134 135 178 67 20 -1 101 30 29 31 2 11 147 155 122 105 107 144 191 233 309 359 297 317 342 355 301 411 398 462 452 424 303 305 193 152
7 29 18 1 15 43 78 49 60 68 84 8 -6 114 142 68 42 42 37 48 90 135 185 162 154 193 214 190 192 256 250 355 262 251 325 359 367 355 372 329 298 170 109 84
17 14 5 21 27 15 14 -14 27 37 24 32 -24 107 82 44 78 60 39 58 79 110 143 174 165 137 154 157 210 215 183 189 219 215 334 295 325 325 307 171 128 92 73 72
15 13 13 33 49 26 32 -2 8 71 34 -25 14 14 28 27 83 67 54 66 69 89 117 126 121 135 103 108 125 119 111 117 168 229 246 220 173 129 114 77 58 35 18 29
5 8 33 44 17 23 -6 -22 64 107 83 82 55 25 46 44 58 55 111 76 50 74 97 60 49 78 150 138 18 82 123 154 151 154 101 72 47 63 46 8 19 46 82 101
30 24 33 36 40 0 1 18 11 47 72 101 100 53 36 40 42 32 57 71 40 72 84 60 47 88 58 65 44 44 16 12 18 10 9 14 16 -13 -2 20 41 77 94 112
-1 23 53 34 17 3 8 24 27 46 82 120 94 25 34 34 17 20 10 -12 -32 -23 -6 5 -2 -5 13 -39 -31 -25 -8 3 -4 -5 -16 -1 25 44 60 67 81 91 96 101
26 22 56 53 19 67 29 40 43 58 92 125 93 71 42 -4 -10 -5 7 -22 -24 -39 -48 -44 -62 -47 -23 -35 -36 -23 -9 -3 0 13 26 33 42 50 64 76 79 79 92 105
44 52 43 20 15 5 24 29 33 43 89 107 108 64 72 11 -1 -27 -35 -25 -38 -28 -29 -34 -28 -27 -47 -56 -28 6 -5 -8 5 22 38 55 65 57 61 61 75 85 87 88
42 34 22 14 -16 1 32 27 22 48 77 82 96 111 94 33 22 14 -2 -15 -25 -23 -31 -34 -20 -27 -40 -35 -2 31 26 23 29 40 44 49 61 82 94 88 88 84 93 93
13 15 9 16 -30 8 33 31 26 50 70 85 78 129 100 81 54 39 34 23 27 -5 6 4 -7 -1 -16 3 38 36 43 37 48 61 64 69 71 73 73 78 121 149 162 174
12 27 36 36 6 33 31 43 70 79 88 103 119 142 159 172 108 103 60 33 35 52 27 10 17 24 11 36 60 60 59 78 71 71 69 69 73 83 98 113 125 145 182 224
33 25 29 32 78 76 53 59 98 97 112 136 172 152 162 147 76 71 63 73 68 87 59 53 63 51 46 70 83 76 81 82 79 74 70 83 94 106 113 125 145 167 193 232
54 41 45 40 46 64 72 85 95 95 128 132 144 131 137 160 129 82 104 117 140 61 81 96 92 61 64 79 84 90 89 94 81 77 87 95 100 110 125 142 159 181 199 211
5 6 25 46 35 56 52 54 80 115 129 126 122 153 160 165 127 89 88 70 88 121 106 105 88 61 63 73 94 87 82 80 96 91 91 92 101 117 125 137 157 177 192 176
1 12 7 13 38 77 67 76 100 110 114 105 121 139 161 108 87 96 91 118 162 172 128 94 81 72 68 75 84 83 86 85 84 86 87 96 105 114 121 145 171 181 168 147
52 42 29 28 50 88 112 120 104 125 121 121 109 78 55 69 91 97 104 141 158 160 77 80 83 82 82 76 94 88 85 87 88 86 87 103 106 112 141 163 162 150 131 98
92 89 69 64 69 109 131 129 141 106 97 101 85 103 95 81 100 123 120 124 82 73 91 90 86 87 89 91 100 86 87 88 89 83 86 95 102 132 149 145 133 123 93 56
98 83 54 66 44 47 76 84 74 98 142 132 79 53 67 87 116 146 148 119 71 105 91 94 91 93 92 97 93 88 89 89 84 84 90 96 114 135 141 134 117 94 59 25
88 64 -2 -17 27 16 0 -3 -16 39 49 38 50 95 121 111 117 117 81 114 107 105 95 91 87 92 88 103 90 92 88 84 83 86 91 102 124 130 132 125 107 77 42 24
48 5 17 -4 -1 36 74 69 81 67 67 47 56 94 110 117 122 153 129 98 127 102 106 93 87 98 105 98 94 90 85 84 82 88 96 112 124 132 133 119 95 64 31 21
13 32 32 33 62 101 104 111 143 142 148 135 136 131 161 166 130 98 125 149 129 125 102 90 97 105 107 101 95 88 85 83 86 92 100 112 131 135 125 115 88 49 25 5
24 18 19 36 56 61 101 142 156 160 166 187 198 214 162 138 139 139 154 149 124 130 115 103 107 107 103 101 93 87 84 86 88 97 114 126 134 137 125 105 79 48 27 20
36 35 29 27 32 54 88 129 142 158 188 210 221 229 248 193 178 180 191 177 151 127 125 117 131 105 102 99 93 90 87 84 94 104 112 123 127 125 117 93 68 43 25 25
26 33 40 50 58 71 93 125 161 150 143 173 222 223 228 264 232 192 220 210 161 142 132 118 102 101 101 98 91 88 88 88 89 104 120 126 122 112 99 83 68 52 34 31

GFSNGP_con_3kmhel_060.txt.gz
Helicity
29 16 22 22 27 42 66 94 35 64 42 116 74 39 60 43 39 10 1 -29 -28 35 28 44 54 60 49 46 47 34 -17 -9 56 148 172 209 235 261 277 284 306 348 431 471
30 30 17 26 4 1 4 13 75 93 113 76 47 21 26 35 32 19 -16 -39 14 32 48 64 68 29 12 21 29 41 65 121 156 195 226 245 257 257 257 346 337 383 410 441
37 35 20 27 13 26 87 78 77 72 66 47 65 41 22 28 30 9 20 24 26 55 45 74 38 11 26 45 53 58 78 105 127 144 198 197 224 255 230 239 250 312 311 308
36 37 23 10 33 18 72 60 94 40 53 39 32 17 36 35 2 7 35 37 41 60 61 59 32 23 11 -6 -1 40 112 52 82 108 133 124 171 149 241 245 262 232 218 225
32 21 16 23 23 40 34 39 10 62 29 30 17 -1 22 12 15 25 54 83 61 44 50 35 39 36 24 29 34 59 44 18 67 96 77 138 199 153 147 191 203 155 180 136
26 24 16 22 57 36 19 42 37 4 9 -6 19 2 -2 4 9 29 68 103 38 28 44 35 22 15 27 25 48 48 10 -12 6 90 145 119 110 120 131 119 143 122 75 29
24 18 32 17 20 33 40 18 31 19 8 -12 -9 22 33 41 22 14 59 60 51 30 33 34 22 47 44 16 38 22 31 39 54 116 111 46 52 21 16 15 23 38 31 31
20 15 40 25 53 34 38 31 14 17 -5 8 56 60 48 45 27 31 25 30 39 21 32 30 30 26 28 24 26 31 23 23 17 -4 -14 -16 1 3 6 3 8 14 36 55
9 21 27 31 65 57 46 27 8 -0 -11 38 82 59 63 36 22 14 19 17 8 -4 2 -11 -12 -20 -25 -35 -36 -28 -28 -20 -22 -18 -18 -19 -8 -8 4 11 21 22 31 37
40 37 41 62 42 46 18 -8 -9 -18 4 45 69 90 50 42 30 11 -7 -19 -16 -19 -17 -0 -3 -33 -30 -46 -32 -16 -9 -12 -17 -7 -4 -0 8 11 18 20 27 34 47 57
42 18 23 21 66 37 28 10 -23 -1 18 30 91 82 63 61 19 16 6 -6 -13 -2 -8 2 -1 -11 -30 -26 -28 -5 -0 -4 -4 3 16 28 25 16 22 14 27 42 54 74
30 5 -1 2 -26 7 17 -5 -34 19 13 34 68 96 89 65 38 20 16 -3 7 7 -6 -3 4 1 -18 -24 3 10 10 5 9 17 17 18 22 31 53 65 80 84 84 96
14 17 16 25 13 -5 -5 -4 -12 23 9 48 69 120 97 111 81 64 35 23 7 -0 -2 1 10 9 -16 -4 8 12 26 23 25 28 26 28 29 36 43 46 93 108 121 135
34 30 30 29 39 47 19 40 56 52 47 46 108 142 113 142 108 106 74 27 50 34 24 15 18 12 -4 10 22 31 32 47 34 33 35 38 40 45 55 68 75 75 101 126
57 47 17 14 14 26 43 43 43 32 34 92 110 148 167 147 152 154 76 91 82 67 38 31 36 17 10 26 43 51 51 44 42 42 41 49 54 65 73 77 77 76 90 121
55 51 41 20 20 14 14 18 30 55 37 73 102 136 152 179 155 138 126 129 135 86 50 26 34 25 35 49 61 60 52 65 59 55 57 60 63 68 70 74 76 76 83 99
6 -17 -1 -18 1 8 17 21 36 66 73 62 85 125 173 168 163 174 141 102 70 83 75 89 58 54 56 58 65 62 68 67 76 70 65 65 67 70 71 74 73 73 78 89
8 6 -7 -22 -22 -0 22 13 45 72 83 66 118 133 147 131 123 165 168 122 145 110 63 100 93 80 73 66 70 73 78 78 73 72 69 72 72 72 71 72 69 74 82 91
23 21 23 19 27 21 23 20 68 94 108 101 129 108 94 103 116 145 155 170 135 91 70 105 101 103 86 71 86 84 89 88 82 76 72 77 80 74 73 72 72 80 88 95
47 56 64 50 66 52 51 73 114 128 110 111 101 141 128 122 128 145 154 92 39 38 104 104 108 104 88 83 97 96 92 86 84 80 80 80 77 74 76 72 73 83 96 102
58 64 75 79 84 89 74 68 88 100 110 100 114 110 123 132 127 114 76 33 3 61 126 112 102 108 99 100 104 98 92 90 86 81 79 83 75 79 76 76 82 95 108 114
74 66 103 107 93 72 45 49 64 85 81 84 91 107 102 70 44 29 23 22 65 73 130 116 106 104 99 107 104 103 95 90 88 89 88 85 80 83 82 85 91 109 118 117
183 138 95 93 80 32 21 10 1 11 47 60 58 55 59 54 62 62 29 40 100 89 119 112 105 103 100 115 109 99 92 91 86 87 92 94 92 94 93 91 103 118 123 118
25 135 88 61 55 53 19 24 33 26 31 20 36 54 69 58 46 48 59 80 108 108 116 124 113 104 129 120 113 101 95 89 91 98 97 87 96 96 97 100 108 119 122 102
-17 2 11 21 23 31 14 9 29 50 51 72 62 73 81 84 86 109 102 111 116 138 152 120 117 108 143 124 112 105 95 94 96 99 95 97 92 90 93 109 121 125 127 125
-8 -9 -5 11 14 18 15 20 28 33 45 63 92 116 119 127 141 155 164 150 161 152 173 159 137 163 152 124 111 103 95 87 83 90 89 89 93 91 98 110 121 127 118 110
20 39 26 31 32 44 40 41 49 51 55 68 77 102 128 158 197 220 246 209 186 177 189 199 204 182 149 126 115 91 97 83 67 77 77 81 90 93 101 113 122 119 110 102

GFSNGP_con_3kmhel_063.txt.gz
Helicity
36 34 48 46 40 56 70 65 42 68 45 81 55 46 14 10 39 7 19 -2 -7 20 37 57 58 47 63 64 65 57 82 105 80 29 76 170 214 227 271 325 347 362 366 398
44 33 31 48 27 20 35 40 65 49 93 84 44 36 38 41 19 24 20 28 22 31 50 37 23 35 42 45 16 1 20 63 62 106 152 143 145 175 199 267 297 341 388 359
44 35 26 42 32 46 48 42 38 52 48 36 39 31 17 15 20 25 8 14 43 35 52 45 39 27 46 29 -7 -25 15 84 88 81 77 88 139 152 167 222 240 223 166 242
41 39 35 16 26 9 66 72 66 74 73 51 40 31 25 32 24 16 6 19 45 54 51 59 37 35 50 48 31 21 45 50 18 61 88 94 122 199 233 241 186 130 171 199
37 30 32 24 26 41 35 71 50 36 81 34 -2 16 20 30 21 -0 -16 25 68 52 38 45 41 40 41 49 41 65 47 8 18 30 84 96 149 169 124 123 153 132 121 107
30 31 26 21 58 34 35 55 51 27 24 5 7 11 -1 25 25 3 -4 30 64 38 37 38 41 36 32 29 20 47 33 26 18 53 65 55 55 76 63 75 73 55 58 27
34 30 34 12 8 41 54 49 61 22 26 2 -5 -0 45 52 32 11 20 46 58 62 41 13 1 18 42 57 44 44 34 34 50 54 24 13 12 1 14 29 26 13 16 10
39 43 54 32 62 47 52 92 31 5 -2 -8 20 54 59 31 40 23 33 52 52 41 28 28 21 17 29 45 27 31 49 57 30 -8 -20 -17 1 2 6 5 8 4 11 19
25 33 18 19 39 51 47 107 33 13 -4 -10 43 42 59 30 36 17 12 8 13 13 10 -8 -7 -19 -7 -16 -30 -10 -6 -10 -16 -14 -16 -16 1 4 6 7 8 6 13 20
42 40 23 18 25 28 39 37 35 5 -13 -3 36 80 77 41 39 10 4 5 -1 5 -13 -5 -3 -27 -21 -12 -25 -16 3 -2 -13 -2 3 3 3 -0 3 2 6 11 23 38
25 -1 29 40 27 27 44 51 37 20 -0 -6 63 69 69 55 37 13 -0 4 -3 14 8 11 9 4 -7 -4 -10 13 9 -2 -0 8 14 18 20 13 15 11 19 33 39 47
34 19 -3 -0 -3 -2 -4 44 -2 -5 9 9 45 86 99 72 66 30 3 14 14 14 26 22 16 6 -13 -17 9 19 18 12 12 19 20 24 27 29 35 40 52 62 57 59
24 38 17 50 55 48 25 26 10 17 16 25 47 78 106 108 109 75 40 19 22 9 31 36 21 4 -14 -0 13 16 30 29 29 30 26 29 18 19 33 44 71 70 75 85
69 39 3 25 51 68 56 49 54 59 47 41 73 112 144 95 129 133 68 75 51 35 27 22 15 13 3 16 24 29 33 52 40 34 31 29 32 38 37 37 45 56 65 74
48 37 15 35 45 46 42 45 41 36 36 58 65 128 165 156 108 119 113 111 109 80 52 23 20 16 14 31 45 50 51 47 47 45 39 45 41 43 45 49 54 53 52 61
42 42 30 30 53 47 24 33 31 31 36 58 48 91 125 135 175 165 162 187 174 88 70 40 32 21 25 46 64 56 54 69 61 52 49 46 47 50 50 51 49 49 52 59
34 29 19 -4 17 36 32 26 26 39 52 73 60 86 141 164 162 188 185 146 126 104 79 77 43 49 43 51 65 66 71 66 64 58 55 52 54 54 53 52 47 47 53 57
8 21 24 10 14 19 20 10 11 29 56 64 105 129 140 141 131 167 179 199 187 168 100 97 89 75 64 65 71 83 82 73 68 66 64 62 60 62 59 54 52 52 54 59
32 22 16 19 20 13 15 26 25 39 70 101 130 115 110 109 121 154 183 190 183 209 106 136 105 91 77 73 97 94 92 92 83 72 65 70 75 67 60 56 55 57 61 65
39 38 36 35 40 38 48 45 48 71 92 113 120 125 132 117 135 137 150 146 138 127 157 154 116 95 98 79 92 97 98 92 84 77 78 75 71 66 61 52 59 67 71 77
52 56 54 56 55 49 66 67 70 87 93 109 115 102 109 126 114 153 151 134 133 134 137 77 77 134 104 93 96 104 100 99 89 83 78 78 70 70 63 66 70 71 77 86
52 55 52 58 65 73 64 62 66 71 77 97 104 102 111 117 122 118 102 107 117 67 48 56 102 122 105 105 110 105 107 101 94 91 81 77 77 69 68 78 77 78 86 93
-7 72 118 102 111 102 54 27 16 3 17 35 56 72 72 71 76 73 19 -0 37 44 88 117 107 102 108 117 112 115 112 103 96 83 76 79 78 77 79 79 84 85 89 97
-17 -21 4 74 131 124 71 49 18 14 -6 3 10 23 54 66 46 25 36 57 51 73 85 116 123 119 145 134 128 120 113 108 95 84 82 70 84 82 77 77 84 93 97 95
-4 -11 -11 14 16 23 67 54 23 18 33 18 22 26 28 37 57 52 54 75 87 117 128 111 120 122 160 145 133 121 114 106 95 92 84 77 79 74 72 79 88 96 105 114
18 5 3 -2 -17 -5 -1 3 22 13 18 26 40 55 79 99 95 112 119 117 129 153 171 163 150 175 168 147 132 126 115 107 99 102 108 70 73 70 67 74 87 102 104 102
26 35 24 27 26 39 41 38 34 42 44 41 45 48 66 86 88 116 159 190 209 232 231 226 218 225 210 191 173 152 147 150 149 143 125 82 80 75 61 76 94 104 104 99

GFSNGP_con_3kmhel_066.txt.gz
Helicity
39 46 48 51 38 22 43 58 53 79 71 72 64 46 32 15 -6 0 1 10 30 19 36 61 61 55 59 78 74 64 91 111 87 87 103 123 124 128 155 168 184 218 246 257
28 23 26 42 29 19 17 23 32 49 100 72 59 34 15 27 27 9 22 24 37 38 45 70 63 55 59 46 33 34 61 47 75 89 82 101 122 125 150 170 177 206 266 322
30 40 41 47 36 34 37 50 58 47 81 95 65 36 31 20 18 19 24 18 31 37 62 66 61 52 37 37 24 13 44 72 75 79 71 92 92 95 137 174 211 287 343 313
36 39 47 43 45 32 29 43 20 59 77 73 45 25 25 21 12 16 18 5 19 39 68 66 45 49 39 41 27 29 59 76 75 86 45 51 60 103 125 116 131 143 162 184
40 38 52 29 30 30 45 97 49 50 81 61 27 18 17 33 33 24 25 20 42 94 59 48 42 43 48 44 45 48 55 51 54 36 43 48 79 72 87 122 115 94 78 51
35 45 43 38 55 39 52 68 73 41 50 38 18 17 16 33 21 36 28 11 49 57 45 36 37 32 53 55 42 59 49 44 46 62 44 53 38 55 60 53 62 35 45 10
30 42 36 28 36 46 51 66 77 34 32 27 11 26 39 45 33 36 31 39 59 45 36 39 38 53 63 63 84 47 50 61 45 36 39 34 16 7 7 12 16 18 23 23
35 40 46 49 63 27 56 59 80 33 11 9 18 44 46 46 32 24 44 60 43 30 44 48 53 51 59 77 62 55 57 56 41 14 -4 0 12 -5 2 8 15 16 20 21
25 50 61 52 71 45 22 63 69 35 20 5 16 27 38 35 30 20 23 16 7 15 29 34 32 22 35 27 24 28 23 12 8 6 1 -5 6 11 10 6 6 9 14 24
38 32 1 11 4 37 47 56 39 52 28 7 0 30 44 46 33 20 17 15 20 17 17 19 10 9 -3 -10 -2 4 17 16 7 14 15 10 5 3 5 4 11 20 31 40
17 -14 -3 6 33 56 67 34 13 36 27 10 16 31 48 33 17 20 15 16 11 15 21 25 18 14 -5 4 3 13 21 16 20 21 25 26 18 12 17 20 23 37 45 51
38 34 51 36 43 20 10 52 20 41 18 14 17 38 55 48 30 23 18 23 24 37 48 41 42 37 21 11 9 19 36 29 28 31 27 28 30 36 56 59 61 63 55 52
59 74 37 47 73 66 45 54 51 24 18 25 16 35 61 69 64 52 57 54 32 50 54 49 44 39 25 16 13 15 38 42 37 32 30 33 34 37 44 51 64 70 59 58
72 73 44 36 36 51 61 70 66 51 49 45 37 51 71 96 104 88 67 68 72 54 61 58 54 42 25 26 27 30 34 41 43 37 36 37 34 33 32 33 36 43 57 60
92 105 67 33 42 55 50 59 63 58 52 50 47 57 80 110 117 109 88 91 106 95 70 67 56 49 43 39 37 42 44 45 48 48 46 46 44 44 47 48 46 46 49 58
77 53 50 56 51 55 62 63 51 58 45 46 43 50 44 73 115 140 145 136 142 143 85 75 63 73 65 56 53 46 41 52 59 59 60 54 51 52 53 52 51 51 50 51
55 51 66 57 37 32 42 44 42 38 44 48 56 60 83 88 129 159 160 161 154 131 110 95 78 92 76 68 70 65 68 75 68 67 63 57 54 56 63 59 56 56 54 56
21 25 23 26 36 44 51 31 13 24 21 38 66 84 104 133 110 122 143 193 196 166 129 120 127 111 95 86 86 81 78 85 83 72 67 65 63 68 68 64 63 59 57 60
38 34 38 28 23 17 20 22 15 2 -6 1 50 81 105 113 114 125 167 189 194 160 137 177 166 141 100 85 103 104 95 92 88 81 73 75 75 71 71 69 68 65 65 68
49 55 57 51 45 31 31 37 48 40 36 44 68 90 109 110 120 146 169 166 158 174 216 235 210 143 91 88 95 105 100 86 74 85 83 78 73 75 79 76 74 72 70 76
34 51 70 61 50 44 44 58 72 74 76 81 64 69 74 102 113 133 143 127 151 184 181 206 206 164 112 129 132 128 116 78 80 88 86 81 80 86 92 87 82 80 78 88
-28 10 36 47 31 36 48 51 55 62 69 80 85 86 101 99 114 112 116 109 162 167 176 191 149 119 79 97 151 136 86 80 89 95 94 94 93 97 93 91 88 84 86 95
-17 -25 -13 27 61 68 46 54 45 49 44 46 56 72 87 86 98 116 95 102 127 155 158 142 112 73 51 141 131 115 105 94 94 96 101 101 100 101 94 94 93 87 88 92
-4 -10 -6 -4 9 62 97 104 30 14 15 19 15 26 45 57 70 54 35 13 43 77 92 53 53 64 97 117 121 117 106 97 96 103 109 108 112 109 96 89 87 87 84 84
6 4 -4 1 2 9 48 36 60 43 25 33 15 18 12 22 25 26 32 26 37 79 80 59 68 83 129 133 133 128 116 109 108 114 115 115 116 130 117 85 82 85 79 86
14 2 1 4 1 1 6 14 22 22 23 22 8 15 28 38 42 49 53 56 68 79 96 112 125 139 165 150 140 132 126 115 114 115 137 143 137 141 106 87 77 83 76 88
24 32 26 26 35 39 42 46 40 44 49 44 42 40 37 48 52 67 85 105 124 138 156 184 192 204 208 191 190 187 183 175 158 171 163 153 126 105 89 78 77 77 76 90

GFSNGP_con_3kmhel_072.txt.gz
Helicity
53 37 33 17 47 70 91 73 86 167 55 48 95 60 31 41 48 60 43 37 30 50 43 41 49 51 70 72 80 89 99 99 90 92 105 114 120 130 134 137 152 143 135 168
32 42 32 33 32 28 48 42 66 129 166 82 67 73 82 42 70 66 56 62 74 79 63 58 63 50 59 73 83 91 94 81 80 86 88 110 119 118 111 130 125 129 172 165
35 26 33 48 34 43 64 57 64 78 72 116 110 98 79 86 82 59 75 81 73 64 65 84 75 68 68 80 92 92 87 92 86 98 119 142 121 86 91 90 96 99 125 106
35 17 34 24 43 42 47 44 43 52 94 147 125 99 65 81 58 79 91 79 100 123 110 92 88 103 108 105 95 112 112 91 92 106 100 96 89 67 76 91 89 92 75 58
33 24 16 24 20 33 50 51 36 41 91 101 68 65 49 84 111 112 103 85 112 119 105 106 123 138 105 92 94 97 94 95 88 75 70 69 67 55 66 72 65 58 35 14
45 41 13 29 19 26 24 40 73 77 55 60 66 59 39 75 88 107 99 131 154 136 90 92 109 78 93 103 113 112 76 80 73 56 50 34 11 14 19 23 20 8 -16 -8
31 33 33 16 19 33 38 45 50 65 62 44 28 34 62 99 71 52 105 142 128 94 68 88 67 82 97 97 95 77 68 68 54 23 18 8 -3 -3 4 -9 -18 -13 4 6
29 33 20 39 49 49 35 34 53 60 57 50 38 46 55 62 55 87 105 95 92 112 100 77 74 88 90 94 82 73 53 46 32 5 -13 -10 -2 -2 3 4 9 11 19 21
19 17 31 16 90 85 76 58 47 43 51 40 38 37 51 46 52 71 65 59 71 54 63 57 66 68 77 75 67 60 44 26 6 -7 -16 -25 2 5 1 6 20 28 28 31
53 25 40 20 59 47 66 69 62 56 47 40 28 49 39 52 58 63 73 88 62 64 70 45 41 37 41 33 30 20 0 -4 -9 4 20 27 20 16 24 31 40 33 34 43
33 25 30 28 73 91 66 57 56 61 39 28 22 61 67 54 59 54 65 85 63 87 54 33 31 27 19 0 -19 -12 -7 12 26 24 33 54 68 50 55 44 39 53 52 56
48 61 87 98 143 102 78 63 56 53 60 33 20 38 88 67 61 67 53 93 65 63 52 33 33 15 -2 -27 -26 13 29 35 35 39 45 53 66 83 68 59 71 79 74 66
21 33 66 77 77 75 65 58 46 31 38 58 49 38 80 77 70 62 66 108 69 49 59 48 34 20 1 -9 12 41 40 41 44 47 51 55 64 67 61 47 55 58 56 56
107 102 86 68 95 99 87 65 44 38 39 55 64 54 66 99 74 76 90 93 61 82 65 58 48 40 38 21 41 48 58 61 54 56 57 60 71 72 69 64 57 51 43 55
143 137 122 112 116 96 73 47 34 31 43 58 67 71 66 109 92 79 101 122 108 107 94 85 74 48 72 68 77 88 92 79 73 80 77 79 84 82 73 72 67 72 75 58
150 142 122 82 93 101 74 47 43 67 59 64 71 70 64 61 98 90 117 139 160 157 123 105 107 101 121 128 117 112 100 92 94 93 91 99 91 88 84 76 72 66 65 64
106 81 96 90 86 79 74 64 50 46 50 54 57 70 68 67 86 128 140 116 123 131 138 142 128 169 185 163 146 135 136 122 102 106 102 97 97 92 85 83 76 70 67 75
122 91 72 70 71 54 45 49 51 52 55 63 59 43 54 64 84 130 143 124 140 149 145 157 191 224 212 210 183 169 161 141 136 119 112 111 105 100 99 90 82 78 74 78
90 79 70 64 60 52 45 39 50 49 41 44 38 19 33 64 79 118 153 151 145 144 141 215 242 244 246 236 237 214 185 163 143 133 124 111 113 112 110 94 88 84 83 86
51 54 60 70 70 66 68 68 65 45 46 36 32 34 24 51 82 114 147 135 140 130 164 197 267 265 251 238 245 271 248 223 195 145 147 122 118 120 106 82 86 89 91 96
4 3 14 22 30 45 64 69 65 56 55 49 48 54 59 55 73 88 107 87 91 124 132 155 232 258 279 285 284 283 253 232 212 181 183 146 115 121 106 96 99 102 101 107
-9 -15 -23 -24 -11 3 12 21 27 39 45 43 53 66 76 78 86 88 97 90 102 89 143 159 178 205 266 288 321 285 247 210 189 207 205 155 148 127 108 112 117 119 119 122
8 2 -5 -9 -15 -10 6 5 5 33 50 45 45 46 56 64 67 72 75 75 94 86 125 149 146 164 195 295 316 317 257 185 186 185 196 192 170 134 118 123 124 131 132 137
30 28 16 -2 -17 -12 -7 -2 10 6 34 61 36 35 43 51 56 58 53 66 54 68 97 115 114 129 179 260 293 304 254 193 196 182 185 159 177 141 111 121 130 137 144 123
35 21 22 20 15 2 0 -2 -2 2 11 11 36 47 32 20 22 26 30 30 31 36 57 53 56 80 156 208 215 212 192 162 156 134 165 181 179 148 125 133 137 147 151 136
49 41 24 12 10 8 7 12 17 21 30 26 23 30 33 14 18 19 17 19 24 22 45 52 49 64 119 134 142 148 137 112 106 122 158 158 160 156 146 147 151 148 144 121
25 13 26 24 33 32 31 33 40 38 38 43 59 52 42 20 13 15 15 18 25 30 49 55 57 67 109 121 120 135 133 137 129 181 219 209 207 202 200 184 168 161 136 119

GFSNGP_con_3kmhel_075.txt.gz
Helicity
39 54 48 38 51 75 85 93 98 107 116 49 144 96 41 39 74 93 77 64 75 87 81 69 68 69 75 86 100 84 87 95 110 127 137 139 144 144 150 162 149 118 103 113
38 36 43 45 29 41 55 62 72 99 105 65 74 59 59 45 60 82 87 72 88 104 90 73 67 62 76 81 87 83 85 89 97 113 127 133 140 137 150 124 118 135 160 118
36 24 51 76 38 57 71 70 92 104 91 131 91 72 95 72 84 92 94 119 127 120 107 100 84 79 77 74 86 95 100 101 112 109 111 119 123 125 101 122 164 163 110 84
49 51 55 28 36 36 97 63 54 86 108 104 143 157 120 86 85 84 102 124 129 151 173 156 136 124 106 97 120 109 97 100 107 96 104 106 110 102 115 147 134 75 72 78
49 32 25 26 25 40 52 31 33 46 92 174 191 153 78 81 80 83 115 130 171 181 164 158 150 137 135 122 118 109 109 95 85 93 89 94 111 97 127 99 47 14 7 19
40 30 21 27 21 29 48 33 46 71 72 100 78 65 44 72 100 126 138 167 194 165 163 163 136 139 127 106 94 84 85 83 82 72 71 93 80 78 60 21 -17 -21 -7 -2
49 23 28 25 29 56 34 15 43 67 75 65 49 44 50 80 88 106 147 157 150 152 141 130 114 125 116 97 91 79 90 90 86 66 56 48 41 13 -9 -29 -5 3 8 8
36 35 30 36 44 30 16 49 35 45 62 66 59 57 62 68 79 121 130 112 109 132 146 119 102 97 87 78 89 95 91 77 57 42 28 13 2 -13 -18 -6 7 12 23 24
23 22 16 8 26 52 24 23 44 27 29 35 28 19 41 43 66 98 94 73 90 110 102 89 80 69 84 88 86 76 61 45 29 8 6 -10 -10 -11 -11 -2 16 20 28 33
46 33 35 39 53 46 46 47 56 49 41 30 28 35 43 55 79 101 86 71 81 100 105 84 67 67 76 80 69 60 49 29 11 -3 -16 -21 -18 -5 9 17 32 40 42 36
37 28 25 6 53 56 64 56 55 60 53 44 43 44 44 62 81 98 90 73 88 102 92 64 55 53 47 32 30 24 7 6 -3 -9 10 21 19 23 38 30 30 46 41 46
35 41 46 38 88 84 67 51 53 53 56 54 43 34 55 56 82 98 87 72 81 90 91 70 48 34 20 12 7 11 14 9 10 27 33 44 72 75 57 57 69 66 57 50
54 63 46 50 66 66 65 57 50 46 37 31 38 42 70 70 77 81 90 96 91 100 103 78 51 24 12 4 -7 11 32 26 25 36 44 51 54 69 76 62 63 57 53 53
64 86 81 91 68 85 70 69 64 48 38 40 49 59 69 94 65 86 104 96 87 104 84 70 51 32 22 11 15 35 49 38 41 45 46 55 57 56 63 64 60 51 34 45
95 109 111 118 118 117 99 87 77 54 47 57 55 57 59 84 77 67 96 107 102 110 116 64 55 31 59 63 63 63 60 50 53 48 48 56 69 77 72 68 68 74 70 51
151 149 139 132 126 110 101 103 92 79 81 75 77 79 68 56 82 87 92 127 130 129 119 98 50 56 85 105 94 93 82 69 79 73 72 86 90 91 86 79 80 80 76 68
98 109 135 128 131 109 88 69 53 42 51 66 75 84 80 83 67 101 112 112 117 126 123 118 82 97 116 114 125 120 129 117 93 102 102 105 105 95 86 88 85 84 77 73
122 120 129 118 102 78 65 63 50 38 44 58 65 72 81 72 73 79 109 119 127 120 132 119 125 111 126 154 166 157 159 148 152 131 128 124 109 101 97 96 92 94 88 82
95 90 89 81 74 61 47 50 52 52 49 53 52 53 61 63 64 70 103 129 121 104 103 156 163 193 178 131 194 210 190 206 199 171 147 118 118 114 110 102 101 100 96 91
80 63 52 55 61 62 63 68 71 69 71 73 53 53 52 50 51 68 98 105 127 139 127 143 188 172 201 220 192 198 216 224 224 206 211 183 150 125 131 84 97 103 99 96
36 20 14 12 17 20 32 48 68 84 88 72 68 60 54 59 68 72 104 96 97 108 115 112 131 178 230 226 218 224 238 263 262 247 233 209 216 158 192 143 116 113 96 99
11 10 4 -2 -11 -13 -4 10 18 26 38 44 46 47 49 57 64 68 69 63 89 80 119 135 139 133 182 203 263 278 278 265 271 259 237 227 211 221 231 156 167 128 96 107
18 18 15 7 -3 -9 -6 -3 -2 -0 17 41 48 51 43 38 44 54 65 88 90 95 118 134 122 96 100 192 250 290 301 296 307 280 220 204 216 202 188 204 166 137 107 108
20 29 31 32 24 28 7 -2 1 -5 -10 -4 12 29 43 46 49 49 58 61 60 69 78 88 86 58 81 183 210 243 273 291 274 278 225 169 199 164 196 170 183 151 122 88
28 23 34 30 25 18 11 2 7 15 23 24 19 14 12 39 47 41 27 32 42 49 58 56 50 58 96 157 181 195 202 219 221 234 194 183 142 130 149 182 176 174 151 124
53 49 46 39 33 36 28 23 21 26 34 37 36 36 39 33 36 50 31 24 24 27 29 37 44 47 69 109 126 124 128 133 133 142 146 149 109 124 155 154 166 160 149 144
68 49 55 47 43 47 45 45 38 31 34 34 41 41 46 53 50 49 52 38 37 31 29 34 38 39 79 104 111 106 106 105 106 126 126 120 122 160 185 198 198 174 165 149

GFSNGP_con_3kmhel_078.txt.gz
Helicity
55 46 60 59 78 97 87 75 109 88 76 79 68 85 108 122 109 118 101 94 99 101 84 82 80 81 76 77 76 83 105 115 115 106 123 143 166 165 160 166 154 139 144 142
63 51 57 56 43 72 83 83 72 75 28 64 31 82 97 68 73 58 68 81 81 96 96 88 84 82 85 81 82 84 96 89 79 89 105 120 129 131 147 154 164 150 148 119
43 42 41 54 15 73 79 85 94 97 51 81 86 51 77 50 47 49 78 101 107 113 109 110 107 101 90 92 85 89 90 79 73 80 102 109 114 129 146 151 140 138 135 138
52 72 56 32 63 62 102 63 85 96 103 91 70 78 71 64 58 39 98 110 130 162 163 151 144 153 139 114 92 90 93 77 70 83 101 117 130 130 131 115 111 114 149 155
61 50 32 34 34 48 65 42 49 59 94 101 163 199 127 111 89 67 86 118 160 183 196 198 182 176 169 138 113 108 108 88 73 81 107 101 113 104 93 90 106 120 97 81
54 47 32 46 41 36 53 37 38 62 72 132 191 144 104 88 83 91 110 146 170 201 213 181 167 175 159 134 102 106 98 79 76 91 92 93 96 83 82 68 61 48 51 40
52 31 43 25 27 27 46 37 40 45 92 92 83 52 63 65 82 99 123 143 180 190 163 162 180 160 134 120 97 97 95 86 95 89 77 83 78 59 44 36 35 35 38 33
50 34 28 32 51 36 18 32 22 41 52 57 58 47 47 52 74 98 121 149 147 141 142 161 179 141 121 99 96 100 93 92 99 80 64 47 33 14 18 25 39 35 35 34
42 45 26 15 29 23 33 25 27 25 34 40 47 32 34 33 55 79 100 108 110 106 129 127 118 110 97 92 106 109 96 87 69 56 39 18 3 11 21 23 29 33 37 37
45 37 26 14 39 43 38 38 42 46 41 34 29 25 36 40 67 82 98 87 83 106 116 113 91 81 79 106 112 97 78 48 43 44 19 -2 0 9 18 22 33 37 43 43
44 41 30 23 17 39 51 50 51 55 51 43 37 35 48 51 59 81 94 105 90 96 99 98 101 93 108 116 111 78 54 49 31 12 13 9 6 9 21 20 36 47 40 53
33 20 32 32 53 69 55 37 41 42 43 50 50 43 42 47 52 92 107 117 88 76 90 88 87 75 79 75 60 40 47 27 14 17 19 25 39 60 38 34 32 35 46 60
34 48 29 34 50 63 60 49 49 48 40 37 38 32 35 55 65 67 101 105 96 94 94 96 80 66 53 48 37 23 28 28 23 30 52 64 64 77 81 60 57 53 52 51
34 104 84 52 47 76 76 71 67 63 56 45 41 53 47 51 64 78 94 96 102 103 105 110 86 63 43 46 40 32 34 37 49 59 69 71 67 63 68 67 60 57 43 50
63 74 49 98 112 110 103 76 68 72 72 76 75 68 66 52 59 67 80 93 106 110 118 112 95 63 38 45 45 46 55 58 65 68 72 70 76 74 73 68 64 67 78 62
119 133 138 127 113 112 105 98 64 61 74 75 75 87 89 69 55 60 74 94 120 112 111 123 105 83 66 63 66 68 69 71 91 89 82 90 92 86 81 76 75 78 82 81
112 98 107 122 123 123 114 96 79 55 43 42 50 58 67 78 75 75 86 104 107 131 139 131 118 103 98 96 89 91 107 111 94 124 116 116 118 108 107 107 100 98 90 90
129 142 141 117 109 106 92 78 63 52 47 48 44 49 61 59 53 66 78 108 118 113 127 125 127 129 116 104 109 134 142 129 144 132 138 139 125 125 120 113 110 104 98 95
123 100 100 98 86 75 67 60 51 50 49 50 55 59 65 62 61 69 81 80 92 90 75 131 135 139 139 133 144 162 140 159 173 190 197 159 156 134 130 132 122 118 114 104
95 84 81 77 75 75 69 67 69 68 72 75 72 68 69 60 63 68 73 72 81 92 77 84 129 154 159 150 172 211 195 159 169 179 210 216 206 191 180 136 126 137 173 129
81 62 41 27 18 13 9 9 17 36 57 73 86 92 85 85 80 78 71 64 69 59 74 73 117 128 155 171 180 188 212 218 228 217 222 245 231 215 216 207 215 209 254 179
37 40 30 26 12 -6 -11 -3 0 9 18 22 33 45 52 54 54 58 53 37 57 83 78 82 106 119 143 123 187 208 217 232 236 247 232 258 253 223 221 236 228 236 265 167
14 11 24 26 21 12 22 18 9 4 1 4 6 20 34 33 37 36 44 67 47 63 57 68 83 91 83 134 170 189 200 223 257 275 281 285 271 247 225 218 239 231 191 170
9 22 29 23 20 31 28 22 20 16 12 15 10 8 8 28 39 36 33 38 51 60 54 69 89 92 102 142 161 161 179 213 248 257 267 242 288 284 223 203 174 155 163 151
17 15 26 30 31 31 31 27 27 37 38 31 34 34 34 29 14 28 46 53 47 44 41 52 65 73 98 110 141 150 169 188 205 228 245 252 261 249 208 160 141 110 138 179
15 24 38 44 48 55 55 57 57 57 56 41 36 37 37 39 37 40 32 38 44 55 36 36 37 40 56 77 101 126 143 147 140 148 173 182 178 165 163 130 115 107 143 155
44 56 78 64 58 57 55 56 66 68 65 56 44 35 28 33 38 40 56 51 43 48 55 47 40 39 37 48 72 89 102 106 94 110 127 128 128 137 144 122 118 136 163 178

GFSNGP_con_3kmhel_081.txt.gz
Helicity
71 47 84 89 129 98 66 78 102 69 45 57 59 58 65 146 157 144 103 88 96 104 97 92 89 82 77 63 57 56 74 92 100 118 131 143 156 158 169 174 169 160 154 155
71 65 49 43 61 52 47 109 57 69 46 26 56 100 78 98 143 117 82 68 82 94 95 94 88 90 85 69 56 63 89 88 84 94 97 98 106 125 142 157 153 142 141 140
50 61 48 44 23 84 101 132 100 70 68 15 38 75 58 78 92 63 48 68 81 80 86 105 101 111 102 101 91 91 90 77 82 81 83 88 97 111 126 133 136 158 152 141
45 73 47 22 41 45 124 77 127 86 22 18 1 44 49 52 54 37 54 67 76 104 125 131 139 140 151 136 118 110 83 70 77 75 83 93 107 118 132 138 148 146 151 164
59 50 31 30 32 43 41 25 73 70 57 45 44 97 98 72 43 38 67 74 85 136 156 177 181 174 169 142 131 111 73 65 80 83 85 100 122 126 129 140 142 139 140 128
71 58 41 43 53 35 40 41 43 59 44 75 100 93 71 71 75 89 92 95 118 165 199 205 194 195 173 148 126 108 86 85 103 106 94 101 110 123 118 117 122 121 107 81
65 56 47 25 29 28 61 30 42 46 39 88 80 62 85 98 103 98 92 107 147 177 180 173 189 202 172 139 101 119 112 112 104 86 94 107 116 103 90 101 88 75 65 61
72 51 39 33 47 46 36 41 29 34 44 56 62 55 57 48 55 56 80 116 130 170 163 154 177 185 163 118 123 127 117 101 98 99 99 88 92 92 78 56 50 41 38 44
44 46 35 37 61 42 31 36 31 28 38 46 56 47 37 33 35 53 75 98 117 114 138 126 145 146 130 112 123 112 105 101 97 100 89 70 57 44 46 34 36 29 34 44
52 42 26 23 23 34 49 46 32 38 47 26 42 33 48 51 62 52 59 80 95 111 88 93 110 110 95 118 115 112 110 100 98 89 65 44 30 32 38 35 30 33 42 44
50 41 37 22 24 33 47 50 49 55 52 48 41 43 34 45 58 59 65 81 101 91 80 77 98 101 105 116 124 117 110 99 96 62 40 35 18 26 25 16 39 48 44 54
31 9 22 34 42 49 57 42 38 31 38 44 42 37 35 27 43 59 72 87 94 100 85 76 95 99 83 104 122 124 106 95 82 66 47 38 42 43 22 26 22 28 37 58
32 24 30 33 39 57 62 53 50 46 37 35 40 37 33 34 42 45 69 80 88 100 84 100 100 96 86 90 88 78 77 86 76 44 47 49 53 61 75 77 74 54 49 47
9 52 62 39 32 57 67 72 65 52 46 45 47 48 48 42 52 47 62 75 93 95 92 93 105 92 87 87 63 50 59 43 70 66 59 64 64 68 84 92 81 71 51 55
40 62 40 55 93 95 93 82 75 62 51 59 67 69 75 72 59 50 51 66 79 96 99 93 94 95 97 97 72 66 68 76 81 80 79 74 89 92 93 90 83 83 88 77
84 100 93 84 95 97 84 79 61 49 48 45 56 65 67 67 77 76 56 63 96 88 105 111 110 107 121 117 95 85 74 66 85 97 99 105 113 103 93 92 99 100 100 100
96 84 76 85 89 93 90 88 89 73 64 48 42 30 27 38 46 72 84 65 82 100 112 120 125 131 135 115 114 110 99 99 79 114 118 126 130 115 114 126 120 116 110 114
121 107 115 106 103 94 93 95 79 65 54 44 33 33 25 27 31 47 61 73 67 80 99 122 121 134 137 129 123 121 144 139 149 137 140 150 141 150 152 140 134 130 126 125
112 110 113 110 91 75 66 64 54 45 43 33 33 35 35 34 48 64 74 67 60 58 81 109 103 132 141 132 153 153 143 156 154 157 163 140 171 189 183 180 156 137 142 146
88 84 74 61 62 62 57 54 49 42 45 52 55 61 67 70 64 68 64 50 59 72 71 68 86 92 138 147 144 176 170 167 176 187 169 154 165 187 210 197 213 215 218 192
82 63 56 41 26 19 15 11 14 17 14 15 28 47 62 78 86 86 78 72 107 116 107 97 88 88 83 128 156 160 187 182 188 197 202 187 184 198 210 230 234 230 239 237
31 39 43 39 32 27 21 13 3 1 -1 -3 1 10 24 37 48 48 38 44 62 102 76 73 79 82 100 62 123 151 177 171 190 210 223 228 224 222 238 262 247 225 245 245
30 27 22 19 20 19 23 27 22 22 17 8 3 1 2 -0 6 26 41 46 38 45 50 52 64 76 75 80 110 130 168 180 190 198 229 251 257 250 238 265 273 240 236 240
9 4 9 20 25 33 24 11 15 15 19 26 30 24 14 20 30 17 22 34 44 42 34 40 52 70 79 81 89 115 134 159 181 197 221 192 220 239 251 260 284 280 249 203
21 23 36 36 25 8 9 22 33 45 48 43 48 53 40 31 29 55 49 44 36 38 37 45 55 57 60 77 95 112 136 151 161 159 171 176 188 220 229 240 248 255 240 198
23 8 10 6 10 16 33 43 47 53 61 70 69 61 59 53 42 39 44 53 43 53 36 38 43 46 43 45 57 75 100 127 136 141 157 170 182 194 196 198 193 163 169 157
48 30 39 33 35 41 49 43 44 46 51 51 56 52 43 39 38 36 35 34 29 30 39 48 49 60 55 50 40 51 64 79 81 99 107 117 117 114 116 113 116 126 137 141

GFSNGP_con_3kmhel_084.txt.gz
Helicity
36 30 64 75 99 129 147 147 94 50 24 56 36 18 50 72 109 142 114 104 84 89 79 74 79 86 90 80 65 59 59 53 55 75 97 119 142 158 163 165 163 160 170 173
73 60 47 44 39 73 82 77 70 21 19 11 53 66 69 70 105 113 96 75 78 79 81 75 72 81 84 85 74 69 58 48 58 76 84 95 113 131 145 154 158 158 161 153
59 55 40 37 36 71 73 98 55 101 155 84 41 44 34 42 48 73 60 79 78 74 80 80 74 87 85 92 106 94 73 56 58 70 81 90 92 101 117 139 151 167 163 154
26 49 33 18 12 16 76 78 102 97 84 50 23 2 15 45 63 45 52 41 63 88 88 90 107 114 130 131 129 121 102 91 81 75 74 86 97 101 121 132 140 148 161 154
31 22 23 19 27 23 6 27 32 65 36 87 46 0 23 61 53 41 32 18 52 101 131 150 145 151 164 154 133 124 103 89 90 72 83 91 104 112 125 141 156 168 152 137
50 34 29 26 33 26 13 29 24 11 40 100 89 52 50 76 93 73 44 44 68 117 156 184 189 208 193 159 141 106 96 98 105 80 92 100 114 127 137 149 146 131 132 124
53 43 43 25 30 32 60 29 47 35 37 74 69 46 64 70 108 91 72 80 108 130 143 154 183 195 182 167 128 126 134 141 115 102 102 106 124 130 138 142 133 120 124 118
78 51 31 40 52 51 41 37 25 31 27 45 62 69 69 85 93 85 81 86 90 111 127 144 174 182 149 133 152 175 143 129 121 106 96 101 112 128 112 111 105 102 89 74
38 34 33 24 43 50 37 47 26 30 23 37 60 65 52 51 52 52 43 60 77 102 116 116 112 132 134 127 164 150 136 119 102 92 93 104 115 110 95 80 85 68 57 49
49 38 18 10 18 20 29 39 32 28 23 5 14 44 60 56 44 41 54 50 67 83 97 92 83 95 105 137 147 140 114 103 101 110 110 106 101 75 76 60 53 48 45 46
39 31 31 26 19 26 36 43 49 50 43 49 43 39 35 24 31 84 76 50 66 69 79 66 86 87 102 131 143 127 117 115 117 100 107 97 61 36 32 29 42 52 44 51
29 9 21 26 30 36 39 43 41 40 44 47 52 55 48 40 36 38 43 57 73 74 73 80 87 93 100 119 134 138 131 128 128 106 113 79 58 47 16 25 22 19 27 47
26 20 24 37 35 49 61 58 56 57 53 39 39 37 36 27 30 24 33 55 70 78 81 96 89 103 92 100 107 116 122 130 116 101 98 69 59 48 48 49 34 23 22 33
-3 10 36 40 35 63 71 83 76 65 55 42 32 35 34 41 53 53 48 46 53 71 82 90 100 90 103 93 95 101 100 88 98 104 89 63 56 56 72 85 77 74 65 54
24 44 43 54 78 83 86 77 78 64 48 52 49 39 48 59 64 69 71 58 52 62 69 80 98 86 109 114 102 102 116 89 77 95 84 63 74 80 82 87 81 81 88 78
88 84 73 73 78 86 79 85 63 52 59 56 50 37 30 27 33 55 66 68 64 66 70 80 91 104 119 117 107 111 105 91 104 110 111 107 106 103 100 95 94 92 95 94
100 99 88 73 70 71 66 57 47 40 44 57 48 33 25 32 30 26 47 59 59 65 66 77 81 98 123 140 124 108 120 109 85 119 126 125 123 117 118 126 117 114 104 117
73 83 108 70 50 55 61 67 59 56 50 42 38 34 36 35 16 9 33 52 46 46 60 78 101 121 116 111 146 146 137 124 133 142 137 144 136 142 149 143 132 129 133 142
123 117 108 100 90 73 65 65 60 50 44 44 46 49 46 42 48 47 49 66 68 60 82 82 79 113 141 139 123 142 173 156 139 156 167 139 143 160 167 163 161 165 172 179
83 81 78 76 74 70 63 46 33 29 24 24 28 33 45 57 68 71 71 74 68 62 72 95 113 100 114 128 97 144 162 141 153 163 177 175 164 167 169 147 165 170 193 210
75 75 81 74 52 31 21 18 13 13 6 6 8 10 10 16 30 57 78 84 90 83 72 83 93 92 94 111 118 137 137 150 156 164 168 181 169 179 178 175 186 202 208 215
41 51 52 47 40 26 23 23 24 16 13 11 8 7 4 -1 5 19 13 28 43 62 49 56 68 86 82 79 118 138 138 141 150 151 163 177 189 205 221 227 214 200 206 234
18 13 16 27 25 12 10 19 17 9 12 12 13 15 17 11 15 21 31 35 38 43 42 46 53 62 72 76 88 107 128 133 136 138 147 161 184 204 215 223 230 234 228 246
21 22 22 11 -1 1 9 14 16 11 6 7 22 28 40 43 53 35 33 43 56 62 49 45 51 55 57 51 64 72 90 103 119 117 132 134 176 182 190 193 209 214 221 212
29 24 21 27 32 20 23 20 2 -5 6 16 25 39 48 49 59 70 65 53 53 54 48 65 73 62 38 43 44 50 68 88 108 125 134 147 157 174 177 190 193 190 208 234
47 35 36 35 30 30 27 18 8 0 19 30 38 45 45 36 36 41 37 43 42 50 39 45 44 53 49 44 46 46 45 55 68 86 106 130 139 142 144 156 173 172 185 211
65 41 43 42 40 26 23 11 11 12 23 33 44 40 38 38 38 39 37 33 27 30 35 27 27 29 37 51 48 53 53 52 45 57 70 82 98 100 110 120 126 130 129 124

GFSNGP_con_3kmhel_090.txt.gz
Helicity
79 52 19 43 38 74 70 60 42 19 34 47 57 23 -4 11 22 38 60 41 48 75 90 109 104 102 102 111 115 122 119 110 97 92 80 85 86 95 107 117 133 146 151 157
71 41 16 35 41 0 6 25 29 32 51 33 37 43 31 65 59 72 71 66 63 72 82 86 82 82 88 87 89 87 92 88 82 71 71 74 74 89 102 112 119 130 140 152
88 83 60 67 46 28 36 31 26 27 46 42 82 82 78 88 72 82 76 66 60 47 59 65 62 71 72 77 91 77 76 82 77 72 64 66 66 74 89 104 115 131 140 131
101 81 58 41 33 32 16 27 -5 13 40 66 71 74 48 69 93 79 42 41 44 60 64 62 74 69 68 73 76 84 76 80 81 74 70 73 70 64 78 94 105 107 141 142
82 105 80 48 41 42 41 40 31 26 57 58 36 39 14 59 79 93 44 27 39 47 55 62 54 66 89 91 95 94 82 77 81 79 80 78 71 52 76 95 124 125 131 134
54 76 86 48 53 41 24 49 45 34 59 53 39 45 82 111 97 80 56 49 49 48 50 50 62 97 114 114 111 95 83 87 92 100 95 81 76 83 95 104 117 123 137 123
40 60 40 31 23 13 39 67 32 17 30 29 36 74 106 102 116 124 127 106 88 74 68 70 98 132 133 134 119 118 127 123 123 120 118 125 128 134 106 109 118 124 118 114
53 58 58 27 22 40 57 43 17 9 13 19 37 52 76 92 104 124 141 119 114 96 90 98 113 138 133 119 138 160 160 153 148 144 156 153 147 138 110 116 124 116 110 111
33 60 48 20 16 29 36 31 36 19 20 16 28 45 50 62 77 91 98 100 98 91 89 102 102 105 112 125 150 154 143 132 138 145 148 134 131 128 134 128 131 115 108 100
30 39 30 26 18 12 22 29 31 24 28 12 24 28 34 46 64 66 70 79 83 89 82 75 75 75 94 118 134 127 116 121 131 152 138 113 124 130 126 121 110 91 82 80
22 27 29 36 41 27 30 42 39 43 55 47 34 36 30 32 34 42 45 44 47 59 58 54 54 63 85 93 104 108 105 111 123 138 137 122 117 125 109 90 86 70 63 58
49 42 30 27 36 34 40 54 49 40 43 55 50 47 41 50 50 44 44 40 49 50 80 51 57 62 73 87 85 81 92 105 118 141 165 142 126 106 50 49 36 29 40 29
73 55 28 28 31 51 49 59 79 78 59 59 60 48 46 36 46 42 43 44 46 47 46 52 65 69 74 85 86 73 77 93 101 126 160 162 140 109 89 47 23 5 4 16
38 30 27 36 40 59 71 81 91 100 94 81 59 59 56 53 45 45 43 38 44 50 51 54 62 63 84 89 91 85 77 85 97 108 128 139 139 100 88 53 45 30 7 11
103 91 52 59 80 87 84 74 83 85 75 72 68 63 65 62 55 36 30 46 49 51 68 77 72 75 69 75 95 101 104 103 103 113 122 110 117 104 90 53 47 47 53 46
131 72 80 81 100 89 80 83 78 76 73 65 60 60 58 54 51 49 54 64 68 69 78 83 90 97 73 73 82 91 96 82 89 130 117 105 112 102 98 83 58 55 58 69
65 103 120 107 109 112 104 101 94 87 69 59 53 50 55 63 60 66 66 60 48 43 52 71 98 102 80 78 83 97 112 101 68 124 133 131 129 107 102 97 80 72 68 91
62 72 103 129 126 107 108 112 84 80 82 72 65 64 64 59 51 46 48 55 58 70 88 100 121 119 82 69 75 96 92 105 100 129 145 136 139 127 113 116 104 91 86 98
56 76 102 117 120 115 99 93 81 81 82 73 64 56 48 44 38 36 34 47 73 88 94 87 108 121 116 92 72 89 107 111 112 110 141 115 124 139 142 139 119 106 110 121
59 84 113 141 156 138 109 90 83 67 51 38 33 33 33 31 24 23 27 34 45 26 50 72 86 81 92 107 114 90 105 113 117 119 122 138 144 144 164 148 144 142 140 141
58 63 74 93 106 116 96 73 53 40 33 26 25 23 16 10 16 18 20 17 37 37 33 34 46 62 71 78 87 92 89 105 118 124 135 135 143 143 151 158 160 161 163 159
44 44 46 51 48 48 45 42 45 44 41 30 20 12 6 7 13 13 18 37 50 62 59 57 59 68 66 76 62 66 70 77 88 112 128 130 134 137 139 136 149 157 158 167
22 17 14 9 12 18 25 27 38 45 37 16 11 12 11 15 21 25 37 46 37 34 37 46 57 73 83 72 80 81 74 70 70 77 91 109 121 127 130 124 122 150 167 164
27 25 11 3 7 10 12 14 9 6 2 10 10 10 15 22 20 19 24 17 12 16 26 39 47 63 73 66 70 76 82 89 83 74 74 69 89 95 103 108 117 128 133 127
43 47 47 28 21 10 14 23 27 22 28 18 21 31 30 31 24 16 9 11 13 26 32 37 43 51 57 59 62 62 66 72 76 78 78 75 75 78 83 87 86 84 86 96
71 56 52 43 39 42 43 48 46 45 41 37 38 34 28 29 29 28 28 26 29 28 33 38 45 51 55 53 53 57 58 59 62 65 75 74 75 70 69 79 83 86 92 102
63 56 71 67 60 54 52 52 51 38 46 46 43 34 37 31 25 27 29 34 35 36 36 35 39 41 46 48 50 54 54 46 43 48 55 60 61 70 75 77 78 82 81 82

GFSNGP_con_3kmhel_093.txt.gz
Helicity
99 69 36 36 14 33 52 20 29 43 36 54 49 22 39 -5 -24 -6 32 55 64 69 69 77 98 116 132 142 140 135 147 149 155 155 155 139 125 115 97 96 99 109 111 123
80 43 42 66 55 24 7 -14 2 12 17 34 29 42 45 22 20 22 48 60 57 67 71 71 83 103 121 122 120 117 128 141 138 125 111 103 88 83 74 69 79 98 115 135
47 21 18 43 17 14 30 35 9 0 42 78 60 63 69 79 66 55 55 80 83 84 78 86 85 90 98 107 114 106 105 102 93 86 82 78 72 62 57 63 75 102 127 129
90 56 54 53 40 45 10 25 7 12 45 47 60 73 94 89 87 99 82 63 70 81 88 90 93 91 94 103 95 92 88 81 78 81 85 87 82 74 62 61 67 80 97 124
94 91 76 44 55 55 45 52 49 38 53 64 62 52 25 37 72 84 84 53 53 68 80 93 89 89 88 88 91 90 81 83 84 87 96 87 84 63 58 52 62 77 78 106
55 91 113 90 57 50 41 45 41 39 52 62 52 47 75 123 99 93 92 109 89 89 83 70 64 69 74 83 91 98 98 101 101 106 100 97 92 100 119 78 84 68 103 112
47 73 65 52 37 23 62 89 48 43 54 48 52 82 86 87 99 102 118 119 131 119 81 62 65 78 86 105 107 132 128 145 132 130 124 119 137 148 143 143 123 98 113 104
55 61 53 37 31 74 84 61 42 38 37 41 54 65 82 97 100 113 137 152 143 116 106 98 103 89 101 126 183 168 161 151 150 148 149 145 138 138 140 151 134 97 106 107
65 99 52 43 42 42 41 43 45 47 39 42 44 56 60 70 82 98 118 147 135 117 97 92 89 91 105 124 137 138 144 141 149 135 126 123 132 144 159 141 132 110 107 105
45 47 52 42 31 27 25 32 40 37 37 24 47 45 45 52 71 83 78 85 91 95 96 95 96 104 98 100 99 121 117 112 127 122 114 126 149 151 149 150 144 125 99 97
17 33 34 29 50 33 27 37 39 38 51 57 55 50 40 38 41 45 59 69 76 88 94 91 84 80 95 91 91 91 93 99 119 110 110 126 139 146 139 138 147 140 104 86
76 90 64 49 46 41 29 40 54 52 57 71 62 56 48 50 50 49 46 42 41 50 69 68 70 91 86 88 95 93 95 102 103 103 110 135 144 142 92 95 87 67 51 47
74 66 44 22 29 29 40 57 75 75 69 52 72 66 57 49 57 55 51 46 44 41 44 52 60 68 86 98 105 95 94 96 96 86 105 127 154 144 135 102 67 55 35 29
40 49 30 53 46 45 46 73 87 83 90 84 78 67 56 53 56 58 55 47 46 48 44 49 60 74 86 90 93 101 92 91 120 96 108 120 136 143 143 135 110 79 25 14
104 91 50 44 49 66 78 74 73 78 81 83 78 67 58 53 51 49 46 45 39 35 55 57 60 78 93 91 100 82 83 103 119 118 126 124 136 136 130 124 104 70 60 36
99 118 104 79 69 86 94 83 69 68 68 66 61 57 46 39 42 47 52 54 55 63 73 76 79 113 104 91 89 91 79 72 85 119 122 112 133 124 119 117 116 87 75 73
13 76 113 98 85 80 98 114 116 99 81 68 61 50 40 39 43 53 53 56 57 58 67 74 72 84 100 90 81 91 90 106 48 105 127 124 134 132 128 128 122 123 103 92
19 18 63 61 92 105 101 132 114 101 90 67 59 56 61 68 61 51 43 33 36 49 75 71 70 85 88 101 83 82 94 109 109 104 134 128 124 140 139 133 122 120 119 102
53 43 57 73 117 110 95 116 114 103 93 64 69 66 56 50 42 37 32 32 35 30 32 38 65 76 92 102 101 71 81 94 103 103 113 113 123 134 134 136 137 134 136 131
42 58 64 83 113 128 130 136 143 137 100 86 71 51 45 42 36 29 22 18 24 16 24 21 27 38 48 67 88 78 71 77 86 96 109 120 124 130 138 117 132 146 154 165
57 46 53 57 84 101 123 124 120 115 95 61 52 45 32 22 21 17 5 10 42 38 35 39 47 50 51 56 57 51 56 61 69 80 94 105 112 121 129 133 139 146 152 158
36 26 27 43 52 66 68 63 55 57 60 58 48 36 28 19 20 17 20 28 43 48 41 39 46 49 53 70 58 63 67 66 62 62 67 80 93 103 112 118 125 134 141 141
35 30 24 27 16 14 24 33 27 23 22 24 29 37 27 24 21 16 20 50 30 28 24 24 23 23 32 34 42 53 63 70 73 73 73 74 77 86 92 93 101 113 123 135
40 40 34 39 41 14 7 22 20 5 1 10 9 15 13 24 27 28 32 22 16 18 14 8 13 26 32 33 40 47 52 61 67 72 72 72 79 85 85 87 87 93 107 109
70 69 63 65 57 39 29 32 21 15 21 20 28 39 45 42 38 43 36 28 17 20 22 15 22 25 28 34 41 44 48 60 60 57 64 68 69 70 77 85 83 84 87 95
99 93 84 68 65 64 60 49 33 36 36 31 39 44 44 46 40 32 30 23 30 26 33 35 33 33 35 36 42 39 46 50 53 56 50 51 53 55 59 62 69 75 81 82
61 63 73 65 65 69 68 62 56 43 45 44 42 48 52 51 45 38 29 29 28 29 30 32 34 34 42 43 45 49 53 57 54 58 58 57 55 52 49 47 51 57 65 68

GFSNGP_con_3kmhel_096.txt.gz
Helicity
84 49 21 2 51 58 35 63 34 45 84 107 90 70 30 -9 -24 20 57 49 69 87 95 102 109 103 132 145 160 184 205 216 219 232 219 188 171 159 158 158 147 135 120 112
86 52 28 45 22 39 40 31 4 -24 11 26 34 41 52 46 -2 -23 10 28 48 78 101 108 104 99 128 122 121 137 159 174 165 163 155 150 148 147 138 122 105 92 101 118
59 29 15 56 35 10 35 33 23 -1 33 53 77 77 38 112 55 31 21 45 73 72 73 74 72 101 118 115 124 124 135 145 139 141 138 123 115 111 105 102 104 108 97 75
58 43 49 37 51 67 19 44 35 31 37 31 42 60 62 89 102 94 28 45 68 88 92 96 102 123 121 126 112 108 117 116 106 113 118 117 113 114 127 119 108 81 49 43
72 82 63 44 48 52 45 29 46 46 61 57 57 66 91 108 102 83 75 70 70 80 93 119 126 121 134 130 114 108 103 109 103 102 110 112 124 128 113 107 96 87 67 40
65 78 99 70 53 58 51 44 54 54 49 47 48 65 75 101 92 99 112 118 127 84 113 126 111 130 131 111 103 84 93 105 118 125 129 119 121 116 113 111 92 106 84 37
68 86 63 49 47 45 93 74 52 46 41 47 49 39 49 61 71 75 95 137 203 223 164 116 109 129 113 106 89 93 115 143 150 144 148 143 157 148 123 115 115 111 99 82
78 73 65 35 52 86 74 49 51 34 35 39 47 54 57 64 78 93 103 137 161 153 166 177 169 134 113 112 121 151 172 179 166 159 168 184 169 145 127 129 132 123 114 89
67 75 56 46 53 54 49 43 52 54 51 49 57 64 73 67 63 75 91 108 132 118 115 112 103 101 101 110 142 158 166 150 150 149 149 156 147 130 143 147 149 141 129 107
58 78 42 73 64 41 41 48 54 56 46 49 56 62 68 63 73 79 75 75 86 95 87 86 83 93 88 100 114 120 114 111 133 134 135 134 130 136 139 150 156 142 135 119
54 131 58 67 54 46 34 45 51 61 61 52 52 53 42 43 49 44 49 63 72 79 96 83 90 96 117 104 89 87 86 101 122 129 115 118 127 133 135 136 152 163 150 143
63 104 89 46 35 39 49 41 47 48 64 81 72 77 62 61 55 51 53 52 55 52 57 57 75 79 73 78 94 86 106 119 142 124 107 120 124 114 82 88 84 79 90 116
104 59 39 31 41 50 42 59 82 98 72 73 92 84 77 48 52 59 62 65 64 58 52 56 60 48 56 77 89 93 104 110 128 112 92 112 120 118 105 100 74 63 69 72
113 88 78 74 44 41 46 60 77 96 102 77 64 61 68 58 53 55 49 45 45 43 45 55 61 60 59 72 91 95 97 90 104 113 103 110 114 109 121 121 115 117 80 63
77 58 26 45 49 56 58 65 74 78 71 79 83 75 73 63 52 42 40 45 51 59 75 76 82 95 87 76 88 103 108 109 98 92 100 95 120 115 111 109 107 108 115 65
35 73 119 109 98 87 80 83 94 98 90 79 76 68 54 46 38 41 47 50 49 52 61 71 79 64 65 80 81 102 104 89 87 89 96 118 119 105 110 105 99 100 114 110
4 17 34 93 134 106 106 109 121 101 93 102 78 56 46 46 54 55 51 46 43 42 60 65 64 54 57 70 67 72 90 92 67 103 125 112 114 99 104 114 106 110 116 139
63 39 51 59 73 83 93 123 115 120 134 105 82 62 46 60 63 57 49 41 43 45 47 38 35 39 45 55 70 68 72 86 93 85 103 122 122 115 109 122 120 115 114 125
49 41 61 68 60 89 88 86 111 87 98 113 97 66 54 66 60 46 36 29 33 34 27 15 31 24 22 44 67 64 74 70 76 83 85 73 90 108 115 117 113 114 118 128
49 59 74 75 82 89 91 92 95 108 124 131 131 111 99 82 55 40 28 16 21 21 25 17 25 29 35 43 65 40 34 40 47 55 74 79 86 93 104 101 111 110 115 124
30 39 51 63 69 83 91 104 118 122 124 121 118 100 81 61 38 23 22 21 23 30 32 37 28 30 30 45 55 50 54 57 56 54 51 54 63 72 88 99 109 113 117 119
20 10 30 50 67 74 67 73 84 72 54 52 59 63 68 59 39 22 6 15 18 28 22 14 15 26 24 38 24 31 37 47 55 62 68 71 68 64 66 72 79 88 103 112
53 40 26 38 53 55 29 16 25 38 43 39 27 17 8 4 6 14 18 24 12 6 6 3 6 15 21 13 10 11 14 15 22 33 45 53 59 63 65 66 72 81 83 88
74 73 65 61 64 68 51 30 8 50 50 20 3 -0 10 14 13 17 27 21 13 9 2 6 9 17 24 13 14 13 7 6 17 29 36 39 47 53 57 58 60 68 72 79
79 93 105 105 96 92 80 55 37 20 20 20 3 13 22 37 40 28 20 19 3 10 13 7 14 21 17 15 15 17 18 23 27 35 42 45 46 48 55 57 59 62 64 67
66 75 81 83 84 96 83 76 68 55 45 24 16 19 24 32 32 26 26 15 27 19 26 19 15 15 19 23 27 28 33 39 45 51 52 56 58 54 56 57 56 60 64 64
33 29 60 56 64 74 78 63 56 40 31 40 35 31 34 34 30 26 24 34 33 31 30 29 27 22 26 32 36 41 45 49 46 54 60 63 66 65 63 66 71 73 75 71

GFSNGP_con_3kmhel_099.txt.gz
Helicity
65 40 61 26 5 15 37 56 42 90 121 133 78 44 40 33 26 52 63 64 64 103 120 120 142 147 138 130 150 170 194 209 209 211 206 234 251 215 176 160 154 148 147 143
56 68 56 35 16 41 51 51 66 45 62 70 46 61 52 12 0 -13 0 20 21 46 72 95 104 123 121 115 118 140 149 148 147 157 175 186 179 177 179 174 163 146 128 101
47 47 32 76 36 -6 8 33 17 29 20 72 61 62 44 39 41 -3 -28 0 14 47 72 82 85 98 91 85 93 98 110 109 114 127 140 141 143 141 134 129 126 126 121 101
33 49 23 33 36 51 29 40 31 22 38 33 37 56 81 90 66 61 59 11 24 55 80 78 82 89 104 96 94 100 99 100 107 112 112 109 115 120 126 120 112 112 106 99
44 37 40 29 40 41 45 49 51 58 68 64 58 56 84 108 107 89 80 74 25 65 85 85 87 98 112 93 88 95 92 87 88 96 107 109 109 110 117 124 116 94 90 88
50 61 65 63 45 45 48 48 69 65 61 53 52 61 60 88 77 94 97 91 93 45 95 102 94 130 122 95 88 76 78 70 81 94 102 99 100 103 120 111 99 100 94 95
54 50 42 37 39 46 98 52 45 46 32 31 32 28 41 50 67 67 85 143 150 155 127 92 117 138 118 105 76 56 74 90 105 108 119 121 135 137 123 113 114 100 96 101
63 73 56 39 47 66 38 59 49 26 21 21 13 28 46 53 59 78 111 134 167 195 208 181 130 116 100 84 65 79 104 122 128 141 158 161 159 156 128 120 110 99 103 101
43 35 40 56 43 51 45 41 50 38 17 20 30 35 38 43 59 65 79 101 125 124 123 136 133 107 94 73 96 118 124 127 133 137 140 145 152 130 119 115 118 112 116 119
58 101 92 93 69 63 44 31 37 42 35 39 41 34 41 41 59 68 69 77 79 95 113 120 112 107 81 76 92 113 115 115 122 122 114 123 132 124 113 122 121 117 117 120
79 111 72 105 83 53 45 27 50 72 58 42 50 45 43 49 44 50 59 61 67 72 77 81 90 102 98 92 101 100 98 96 99 107 105 114 109 108 103 104 119 128 125 135
43 74 76 103 70 44 49 47 40 38 64 90 69 56 57 61 55 49 54 61 67 66 68 86 79 79 86 96 95 90 85 94 107 123 127 122 108 86 48 49 52 53 65 100
56 67 66 40 54 60 40 42 54 72 62 60 58 50 57 56 50 53 52 55 60 56 52 58 63 68 59 58 62 66 77 87 108 122 119 109 105 88 72 55 37 58 53 54
75 77 63 96 75 49 41 48 61 76 90 79 58 73 47 62 66 63 56 47 47 48 56 60 66 84 89 67 62 72 86 91 106 116 116 102 105 91 69 68 69 85 70 71
30 61 51 53 68 60 45 56 67 83 93 104 109 96 84 74 63 51 47 49 51 65 70 70 74 82 89 88 84 93 103 111 115 105 109 95 104 93 84 79 75 78 91 66
-3 30 48 69 101 137 100 110 106 101 115 126 100 87 75 62 53 55 56 58 57 66 66 64 61 73 70 64 53 68 88 88 90 98 109 95 97 98 114 89 77 82 90 90
24 44 65 85 88 96 100 112 145 149 141 134 107 105 95 82 72 62 66 63 62 63 74 68 58 44 45 52 64 72 92 89 80 84 89 91 95 102 109 110 73 73 84 98
57 47 41 43 67 88 132 124 119 128 108 101 129 128 101 83 61 62 67 49 54 52 58 41 35 35 36 39 45 51 65 78 78 74 72 81 94 98 97 92 90 82 91 98
59 53 39 58 62 74 104 98 85 86 114 121 113 96 87 91 73 72 68 55 43 39 35 31 34 36 39 42 47 27 31 43 61 68 69 65 72 86 98 102 98 97 92 92
52 55 48 48 60 77 84 84 81 80 96 102 109 124 127 136 118 95 73 39 25 17 29 35 42 37 41 37 56 40 44 47 50 50 53 52 53 61 73 68 83 94 98 102
46 45 34 31 44 59 84 87 97 97 91 97 106 120 125 112 108 98 77 48 11 23 35 45 39 31 31 36 38 29 28 32 43 52 60 68 72 72 68 71 79 86 88 93
68 61 47 33 22 26 27 27 49 59 53 51 58 47 35 35 36 26 17 8 18 39 26 17 14 13 18 32 16 19 23 26 28 32 40 46 52 58 61 69 71 72 80 93
76 77 68 59 56 59 50 27 18 20 22 44 65 67 55 19 4 5 17 20 23 20 25 17 16 22 23 23 14 16 21 22 25 27 32 35 35 38 42 46 53 58 59 68
86 88 81 71 70 67 62 68 55 44 42 22 18 33 38 28 9 12 16 23 26 22 22 19 23 28 33 13 12 15 18 22 26 33 37 37 42 38 40 43 48 56 61 62
78 81 90 89 86 75 76 79 74 74 61 44 32 24 10 29 31 29 31 18 17 21 19 14 23 25 16 10 14 14 20 28 35 39 43 45 44 50 50 53 57 63 67 73
62 64 61 58 53 58 66 76 75 71 80 59 42 35 33 35 30 21 26 19 20 17 19 11 9 11 15 18 22 23 28 33 42 45 47 51 49 49 54 61 68 74 76 77
25 13 22 15 24 39 52 65 71 59 60 65 49 34 29 31 31 25 13 16 16 13 6 2 2 0 7 18 28 37 42 45 42 49 53 56 60 64 66 72 76 79 81 83

GFSNGP_con_3kmhel_102.txt.gz
Helicity
35 52 41 33 2 1 56 26 38 83 174 263 171 115 96 83 98 112 87 57 63 88 143 198 217 213 205 192 170 174 188 192 189 194 194 181 178 174 170 172 184 182 167 156
55 54 35 38 46 15 76 90 20 48 124 98 110 83 80 49 41 37 52 53 29 44 73 85 85 101 130 127 121 127 138 144 161 179 180 170 167 160 155 160 169 164 153 130
40 63 60 64 30 29 63 38 51 61 78 62 73 73 37 39 32 28 26 24 17 16 36 57 79 95 90 93 115 121 128 130 133 141 137 123 121 126 134 138 144 147 137 118
18 45 43 41 46 41 19 35 22 30 44 48 47 26 55 66 61 40 53 18 18 34 53 68 82 96 123 108 96 99 96 93 98 110 114 116 121 117 123 128 125 116 106 101
31 35 35 42 67 48 53 70 77 38 55 55 49 32 44 68 72 75 58 66 53 31 72 88 90 102 107 88 83 88 83 84 85 94 99 101 101 107 113 117 116 118 115 106
43 51 56 42 45 49 58 42 70 63 60 47 38 34 40 67 72 84 82 85 95 34 49 76 85 110 113 92 87 72 68 68 76 82 83 85 88 98 116 121 114 116 116 110
-17 53 45 31 28 41 70 42 51 53 49 50 37 16 33 51 59 58 68 94 102 111 87 71 107 119 98 89 64 66 71 69 68 70 76 82 103 124 116 121 114 98 100 103
-16 16 45 46 41 55 34 49 49 36 17 21 24 34 47 59 63 75 91 111 126 157 153 126 100 107 98 74 73 69 73 77 80 85 99 122 132 133 134 117 108 96 87 96
3 10 46 66 61 61 43 32 36 28 17 10 19 32 46 49 61 64 71 90 113 118 137 159 143 104 88 68 70 81 90 86 98 113 119 133 154 137 115 106 108 99 103 98
18 53 90 103 81 83 62 49 48 42 18 12 26 28 38 29 41 61 73 77 76 99 126 133 125 117 91 79 86 94 97 101 113 123 122 126 127 116 111 108 106 106 105 96
26 35 43 73 93 83 73 37 42 60 56 51 43 45 58 53 53 53 61 75 78 91 102 109 114 122 117 99 91 94 102 105 108 115 119 131 121 114 105 104 103 103 101 108
13 18 18 42 54 111 68 55 52 42 66 70 59 57 54 68 66 62 69 63 65 69 71 93 98 101 109 113 106 103 103 110 116 131 130 131 139 120 77 61 40 15 23 81
-6 -22 -14 45 53 43 50 50 51 49 53 69 71 54 61 71 81 85 80 74 72 62 60 69 78 90 103 99 96 93 88 96 100 108 136 139 127 114 100 80 38 9 9 23
-11 -21 -6 7 48 54 54 62 59 71 74 83 81 89 90 77 77 93 96 66 63 68 80 75 80 95 101 103 103 101 99 96 99 110 140 147 136 131 114 106 85 66 48 26
4 -7 3 -1 9 72 75 80 105 81 82 103 122 114 101 96 90 82 73 68 69 84 93 90 91 97 102 103 106 108 103 110 122 125 132 134 141 136 119 98 89 87 78 57
15 11 17 9 7 20 61 54 69 104 115 126 133 131 115 96 89 82 76 69 62 71 87 94 88 80 67 67 74 79 80 91 124 133 124 134 124 134 126 92 94 93 89 83
35 40 63 55 45 30 32 96 121 140 150 161 171 153 120 97 119 96 76 59 61 87 90 83 77 63 61 61 69 58 61 86 119 118 112 110 105 93 97 105 102 102 102 94
59 54 60 51 29 38 53 70 106 120 105 86 114 119 122 135 110 96 80 78 82 84 86 69 58 57 60 56 53 44 41 44 65 82 91 91 86 86 91 97 95 93 97 104
64 62 57 55 42 29 54 64 57 62 77 91 100 109 130 116 82 90 102 97 87 74 75 62 59 60 60 66 70 56 52 52 55 61 69 77 76 73 78 83 84 89 92 90
65 63 59 53 48 35 43 53 51 60 68 66 79 79 86 104 111 130 139 130 125 87 63 51 57 53 59 57 65 51 54 57 60 63 67 71 74 69 70 70 77 81 79 83
67 67 60 60 50 40 44 49 49 54 65 85 90 85 89 94 109 99 88 83 84 93 51 38 41 38 35 35 44 35 37 39 38 38 42 44 48 57 68 75 81 84 78 75
64 76 78 80 74 58 45 34 26 28 35 33 35 49 47 51 56 62 69 60 34 34 30 37 41 36 37 48 32 32 31 32 32 32 33 42 48 49 50 55 59 63 67 71
71 87 88 90 89 77 73 69 54 42 32 34 32 22 30 53 80 86 62 20 27 25 34 33 33 43 50 43 34 35 38 41 45 44 42 45 45 48 50 53 57 60 59 59
72 72 83 91 97 99 81 81 78 59 55 50 57 53 51 43 23 38 35 24 28 29 34 33 36 38 43 33 30 30 32 34 33 34 41 47 51 48 48 50 57 61 61 61
68 64 68 92 93 89 90 91 79 76 69 59 61 63 70 64 51 44 59 48 35 39 35 31 34 33 29 21 19 25 31 35 36 39 40 44 47 51 56 57 60 66 63 69
73 65 61 61 65 65 54 66 62 59 64 57 62 70 72 72 58 33 41 42 48 35 34 22 17 16 16 14 13 16 21 29 40 43 46 52 53 57 59 61 65 70 75 81
54 42 44 27 21 32 42 49 47 46 56 57 52 59 63 66 56 38 19 25 32 36 33 28 27 20 20 21 28 27 33 38 38 49 58 60 64 70 74 76 82 84 80 81

GFSNGP_con_3kmhel_108.txt.gz
Helicity
64 84 29 8 -1 18 34 24 46 -1 49 72 94 100 106 96 94 100 121 110 98 121 101 107 129 163 175 174 159 139 138 142 141 145 161 169 178 180 174 171 163 150 136 140
34 43 40 27 24 -2 17 36 64 68 83 72 86 67 93 89 85 100 115 111 91 81 90 88 72 89 119 133 128 120 129 136 147 162 165 167 158 161 172 172 163 156 162 162
4 54 20 50 66 41 45 61 32 70 72 83 133 134 134 118 89 70 76 83 93 89 76 87 91 92 97 106 132 156 170 161 154 157 164 162 158 161 159 146 149 170 176 161
-3 12 -9 -6 26 28 68 82 67 48 34 36 53 45 55 72 71 88 78 73 80 77 65 59 72 97 121 130 142 151 148 135 142 149 158 156 150 147 161 167 151 140 132 124
-37 -28 7 23 30 26 48 64 51 30 40 43 31 23 39 40 40 54 60 57 52 50 31 38 49 70 104 112 117 119 118 123 119 124 128 127 138 142 144 137 131 121 108 106
-22 -49 -54 28 19 4 16 33 26 34 40 40 31 51 16 36 42 67 76 56 61 85 60 48 51 73 101 107 107 107 110 111 120 112 107 109 118 118 131 132 121 103 90 71
-24 -34 -31 29 26 13 32 23 39 31 32 37 33 17 16 22 37 46 55 80 80 89 125 98 74 93 99 103 116 127 105 98 99 101 105 104 120 123 128 125 108 88 74 57
4 -5 -15 -25 32 44 25 37 35 32 26 29 22 24 29 40 38 41 47 68 96 109 145 137 83 92 115 125 119 109 99 96 93 93 111 129 128 125 108 97 91 86 60 64
23 14 -2 -1 -15 29 26 25 40 36 37 29 26 27 28 32 40 42 49 59 63 82 131 172 150 110 105 111 95 97 97 91 92 113 106 98 105 99 110 100 99 90 82 70
43 13 21 11 -7 -17 20 36 33 32 30 23 26 14 28 26 32 32 35 47 45 67 111 137 146 152 130 120 104 99 100 99 99 97 97 101 105 108 117 118 113 106 96 93
50 42 44 30 20 7 -19 -17 41 42 40 37 28 30 31 24 33 44 32 35 42 59 76 100 99 117 126 122 111 91 102 97 104 88 88 94 95 107 115 124 138 125 114 109
58 35 54 58 40 4 -6 -13 -20 16 48 50 48 45 46 49 59 59 59 54 61 63 70 71 75 87 106 108 101 95 100 103 97 96 95 102 112 123 104 110 111 79 67 96
55 45 53 45 43 11 5 -6 -34 -30 -12 66 72 68 62 65 76 75 71 73 74 69 64 62 58 63 74 80 81 91 96 102 103 110 109 110 115 117 113 130 98 79 74 66
47 55 46 44 48 27 23 17 3 -11 -22 -8 66 95 94 87 78 71 69 53 51 52 61 67 71 66 65 68 75 80 82 94 84 85 84 90 97 106 125 128 127 134 128 118
31 28 37 38 29 29 27 28 30 25 19 18 30 56 109 104 102 95 84 65 48 70 81 62 47 55 61 70 81 85 81 79 80 75 74 76 90 115 138 143 134 132 152 150
49 29 32 34 35 39 38 38 32 31 60 69 55 52 66 105 127 127 118 106 86 85 72 62 43 53 52 63 67 69 76 95 89 69 57 52 64 88 118 130 139 118 141 131
84 46 53 48 45 46 46 58 68 75 89 99 93 70 74 104 108 122 107 99 98 96 105 96 83 66 73 84 81 66 59 58 77 60 61 51 57 62 81 97 113 107 110 110
62 64 61 48 40 42 47 63 61 67 72 77 82 73 71 83 90 71 65 76 75 76 99 100 87 86 92 87 78 72 62 58 56 56 59 62 61 67 64 60 67 73 79 82
88 78 63 55 56 57 56 65 71 74 81 76 72 67 61 72 79 80 93 100 94 96 114 121 111 101 86 80 73 68 63 58 54 54 55 64 64 69 75 83 81 73 67 62
109 85 78 76 73 72 68 73 76 78 88 92 79 67 69 70 73 74 81 78 78 76 90 100 103 95 76 70 73 74 59 41 42 43 45 50 48 49 52 65 63 56 59 68
109 90 85 84 85 91 92 85 82 78 81 85 83 74 63 59 52 52 57 64 55 52 55 50 71 68 59 52 70 82 62 34 30 30 28 26 28 34 35 36 41 44 47 50
124 117 92 81 91 97 102 98 95 87 86 86 86 84 72 51 53 51 55 66 74 58 82 70 82 78 83 55 42 28 18 16 17 23 29 33 33 32 29 30 31 33 41 47
131 108 84 88 96 98 106 99 101 105 90 93 98 86 80 80 81 88 77 63 69 62 83 63 44 36 35 52 29 15 7 4 5 12 19 24 29 33 38 39 39 44 50 52
116 97 81 71 88 106 98 87 94 95 90 88 90 91 92 83 72 95 90 61 62 75 79 76 50 27 18 43 23 6 -1 1 9 16 19 23 27 28 31 32 38 41 40 41
101 99 105 107 102 92 74 69 82 80 73 67 67 74 81 100 105 98 85 76 60 72 88 67 45 23 42 28 29 10 2 1 -6 -11 -7 2 8 15 21 26 28 29 37 44
109 105 103 105 110 99 86 81 86 77 71 56 50 51 46 66 77 68 78 67 84 69 73 82 76 53 39 28 19 8 10 11 7 3 -0 3 7 13 18 22 27 31 33 40
108 111 116 103 99 93 89 86 91 79 68 71 62 68 64 70 71 66 61 74 74 74 78 78 77 60 44 28 21 17 20 17 9 15 19 17 14 14 19 27 34 40 45 52

GFSNGP_con_3kmhel_111.txt.gz
Helicity
12 35 59 36 30 48 26 17 10 -1 64 96 97 95 104 91 115 128 157 156 134 112 136 141 137 139 156 187 173 166 174 167 157 142 141 154 172 179 182 183 178 169 175 189
18 -18 0 24 44 45 35 46 45 45 82 58 58 63 88 96 108 125 145 169 156 123 130 131 114 113 121 149 155 158 198 189 157 159 163 168 173 176 184 197 204 198 199 173
14 6 24 36 71 34 25 35 18 58 63 69 84 83 90 91 65 67 89 110 115 102 118 93 93 98 94 111 132 148 146 127 126 144 170 175 180 191 198 199 197 207 181 148
-2 -12 -9 13 8 11 58 64 60 42 33 12 6 -2 18 39 53 68 74 87 93 82 71 82 68 83 92 114 143 153 160 163 160 164 170 166 170 176 186 175 163 140 140 152
-21 -17 -9 -16 17 6 13 59 64 35 38 39 23 -1 6 30 34 39 62 67 74 83 78 42 30 36 66 98 117 125 121 130 139 162 184 193 195 170 162 159 161 147 136 124
1 -18 -26 -11 15 -2 -7 34 45 51 55 39 41 47 32 43 41 57 55 61 99 97 59 46 42 40 58 60 71 85 94 104 117 126 136 137 136 143 145 132 125 121 119 111
15 -9 -15 -2 -2 13 -35 -4 24 25 23 29 26 8 14 29 36 38 43 69 81 81 114 119 67 61 80 85 89 84 90 105 115 118 117 127 138 134 137 140 137 124 110 99
63 45 27 -5 -9 -15 -9 35 33 34 30 22 15 10 13 25 42 56 68 75 88 98 138 151 108 87 93 95 89 90 96 101 94 90 100 108 120 123 122 122 116 113 113 96
56 48 1 3 7 1 -6 -11 42 42 37 30 25 19 18 26 39 50 59 67 62 73 108 152 156 115 111 124 97 82 83 85 95 102 103 102 110 113 119 115 116 103 103 94
40 17 2 10 12 1 -5 -11 -15 7 33 30 34 27 35 36 36 43 48 62 56 65 107 139 139 148 143 134 117 112 126 126 119 113 111 117 115 109 109 108 108 112 111 96
25 15 9 5 10 13 11 -13 -20 -17 -5 13 40 32 38 43 45 51 53 52 48 57 66 95 109 124 127 137 115 86 93 94 103 116 127 124 109 99 95 97 113 119 113 115
33 49 43 33 32 12 13 8 -12 -15 -2 -3 -7 32 63 61 51 57 64 56 61 69 71 80 81 86 103 117 104 91 82 90 85 86 70 118 89 92 89 79 76 77 103 122
36 69 47 61 51 21 15 7 -1 -1 -2 7 22 35 48 54 79 87 89 80 65 57 55 64 81 90 89 84 79 83 92 99 97 99 93 83 79 97 109 111 87 81 78 84
70 100 60 50 44 35 27 20 20 21 23 37 52 74 67 75 85 98 102 78 70 54 61 58 51 87 86 70 66 74 80 95 86 89 93 95 92 91 97 105 116 124 112 95
77 47 54 72 56 46 40 43 45 38 36 52 72 92 116 126 119 106 123 122 93 78 69 58 65 82 103 84 67 63 68 77 90 94 91 90 85 77 72 80 102 133 156 146
86 78 73 64 60 62 64 68 68 65 61 61 90 111 118 128 127 124 117 135 126 116 88 81 68 56 62 69 61 67 78 92 89 81 84 87 82 68 56 62 82 104 121 131
152 85 71 65 71 82 72 78 81 85 81 82 84 95 102 103 107 102 99 97 94 83 85 67 63 71 78 86 109 76 72 81 99 89 80 77 75 69 53 59 66 80 96 110
94 100 102 97 103 92 79 74 77 75 67 64 74 89 87 90 81 77 75 75 75 73 71 82 72 68 86 109 117 93 80 72 70 74 74 76 76 76 76 77 82 79 79 87
107 126 121 111 96 85 78 67 70 74 73 67 64 70 82 89 83 76 79 78 68 66 66 71 75 88 84 88 102 93 97 84 74 74 71 74 85 84 88 91 97 103 102 96
121 124 123 108 99 85 85 80 79 80 79 86 78 75 70 70 76 75 73 61 54 59 69 65 66 68 71 60 57 77 90 95 96 93 82 68 62 67 70 76 74 74 73 76
118 122 121 110 95 95 95 102 95 81 76 83 88 82 79 77 77 77 73 71 60 49 50 42 57 59 62 60 65 77 89 98 109 114 101 72 55 42 35 39 40 42 46 49
106 112 106 105 103 90 95 105 110 104 87 81 90 98 102 85 77 81 77 87 82 44 72 78 72 62 64 66 80 79 66 56 44 41 44 39 33 28 35 44 49 46 44 42
97 101 98 95 94 77 95 107 110 111 108 101 103 104 105 99 90 95 84 75 72 58 82 91 74 66 58 86 87 60 51 38 17 11 15 17 16 24 33 35 37 44 50 52
89 94 86 81 87 103 97 80 97 101 105 102 96 103 101 93 76 90 80 52 47 58 85 88 81 74 72 105 82 65 40 18 18 15 2 -5 9 16 24 25 26 28 31 32
86 99 108 114 98 92 77 70 81 80 84 85 85 80 82 89 85 83 92 80 58 66 84 63 52 54 87 106 80 61 32 35 25 20 18 14 10 10 11 10 12 15 17 19
103 104 99 102 110 108 101 97 102 88 90 88 80 83 78 84 81 70 82 66 75 61 89 87 87 87 95 87 77 62 39 32 30 29 18 20 21 21 14 8 7 9 13 17
116 112 109 93 104 107 116 112 114 102 101 103 91 97 87 88 85 81 78 83 81 81 80 81 85 82 92 82 70 65 63 46 27 30 23 22 24 20 14 14 14 14 20 24

GFSNGP_con_3kmhel_114.txt.gz
Helicity
60 71 66 46 80 61 86 -27 44 15 73 104 98 76 38 24 20 44 68 65 72 155 187 96 81 99 69 89 112 112 124 136 148 147 162 174 176 184 205 215 205 197 184 181
42 22 37 25 70 28 50 49 17 25 76 69 55 42 54 64 65 67 86 94 102 96 109 120 125 108 102 110 120 130 134 160 178 185 173 168 170 181 183 193 200 196 195 199
20 39 64 24 82 33 14 26 18 36 50 45 42 47 51 55 48 58 78 96 110 116 109 111 94 100 105 115 124 150 167 170 166 158 163 159 154 157 170 189 202 211 212 205
14 28 19 3 19 22 34 48 34 22 24 18 8 12 40 42 49 48 58 59 74 89 88 81 80 96 108 106 121 136 145 161 159 157 160 169 178 189 198 202 198 204 210 195
-15 -18 4 6 -6 -30 2 35 40 25 13 11 -5 -22 16 36 44 43 58 62 62 57 48 51 63 68 77 93 105 115 134 141 139 141 145 156 171 180 189 201 208 201 181 168
-8 -19 -23 -18 -2 -1 9 1 28 32 41 39 15 27 33 47 50 61 51 65 98 83 71 54 50 50 66 83 92 98 105 122 136 148 152 159 173 186 204 191 192 186 176 150
15 6 -11 -11 -9 -2 -10 -18 15 35 40 45 40 43 35 45 59 51 53 76 65 86 110 102 76 58 64 67 74 81 88 97 104 111 119 124 134 136 133 143 144 141 124 112
41 40 43 -14 -9 -16 -25 -22 -24 -32 24 27 27 18 22 35 49 66 76 82 87 84 103 131 124 89 83 102 93 82 78 91 89 98 111 111 114 124 114 110 113 123 129 134
32 14 -17 -24 -21 -10 -13 -14 -20 -28 -37 -25 24 22 29 36 45 56 66 70 71 82 104 135 146 131 117 125 91 72 72 79 80 83 90 91 95 108 112 109 114 120 128 131
44 23 -2 -18 -15 -8 -5 -12 -19 -24 -27 -28 -38 -13 29 27 38 55 59 63 48 62 82 104 126 136 125 113 109 101 98 92 93 94 106 114 126 119 115 116 117 116 112 113
19 17 10 2 0 1 -3 -7 -15 -21 -27 -28 -12 -20 -17 4 39 48 63 68 62 61 54 62 70 93 94 108 88 71 87 82 124 149 127 132 123 133 145 143 130 128 122 124
30 52 20 46 44 28 30 18 6 -1 -2 -6 -4 -8 -14 -4 19 47 66 66 66 66 64 69 75 75 84 96 96 76 57 62 76 73 70 76 86 94 126 153 115 112 123 126
14 66 34 77 58 28 32 25 20 17 13 12 3 8 12 20 46 80 82 81 72 68 77 83 81 72 66 62 77 88 87 91 81 86 83 79 71 73 90 81 57 60 63 75
80 131 78 75 49 45 33 32 35 38 40 38 37 40 61 83 106 104 107 101 94 87 77 62 69 69 66 79 87 92 100 86 74 72 76 87 96 101 102 105 110 112 95 104
85 40 38 100 82 59 47 46 57 57 56 57 51 58 69 86 98 116 130 121 109 91 83 69 72 75 74 85 109 99 118 123 121 95 74 67 70 78 83 83 77 81 108 134
85 72 89 96 91 73 71 75 81 82 78 87 84 79 78 93 117 143 145 134 103 82 86 80 78 61 53 67 76 88 106 107 94 73 74 78 76 80 82 85 80 71 76 96
161 88 76 73 82 85 81 86 92 105 115 124 116 103 90 78 76 90 97 101 96 88 83 80 79 65 59 74 89 82 94 111 136 142 125 104 95 95 97 90 80 73 80 91
55 73 84 78 107 111 102 99 100 102 103 113 108 100 99 89 79 85 89 93 93 91 82 81 86 88 88 90 89 95 109 107 120 143 156 141 117 100 106 118 122 103 98 111
88 109 108 113 113 107 101 103 102 103 108 110 104 88 83 88 88 85 90 96 93 84 75 76 81 75 74 77 79 77 81 89 92 94 110 110 104 103 109 108 107 115 106 105
133 112 117 122 113 105 99 100 109 108 111 113 103 97 91 90 85 85 84 76 71 75 84 78 82 74 66 63 52 60 63 65 75 83 77 81 86 90 89 90 89 84 86 85
128 117 118 105 93 95 102 109 112 108 117 113 103 101 100 101 101 100 100 87 87 86 76 73 73 72 73 69 66 69 67 64 59 65 59 71 93 100 97 89 75 65 56 51
121 118 106 87 81 89 92 101 104 111 112 106 104 110 111 111 108 101 82 77 89 78 82 83 83 77 76 68 70 74 78 75 67 68 55 52 43 51 65 74 78 84 68 59
115 104 89 83 87 84 86 94 88 96 104 111 109 112 113 117 117 110 92 101 89 86 80 83 78 71 70 86 98 97 86 76 74 73 66 40 39 40 42 49 53 40 40 44
110 87 76 74 86 85 79 79 84 85 83 89 93 100 102 101 93 93 84 63 47 53 68 78 78 67 67 81 85 77 72 60 54 44 26 20 26 24 25 25 25 26 24 32
92 89 89 95 92 82 81 75 85 90 93 79 74 76 85 90 85 82 87 77 63 76 83 67 55 53 67 80 87 88 81 74 69 46 42 45 43 37 31 26 21 20 21 19
98 92 84 87 88 92 97 101 104 105 108 97 90 94 94 98 98 92 95 83 90 88 86 92 94 90 83 86 91 84 77 67 64 63 56 44 41 30 18 18 16 18 17 14
100 88 94 92 90 103 108 111 113 115 115 117 108 114 114 107 105 93 89 94 94 88 85 86 89 84 88 89 86 79 73 68 58 62 59 47 33 27 23 18 15 18 20 17

GFSNGP_con_3kmhel_117.txt.gz
Helicity
43 50 49 36 26 53 80 29 45 13 45 36 23 23 -0 -4 9 8 68 126 230 398 291 170 96 70 74 95 90 48 21 46 61 72 103 134 163 195 206 197 181 219 230 200
37 30 35 27 66 26 35 12 -17 -1 14 -2 5 -2 21 16 17 52 67 43 52 105 135 165 142 124 78 75 85 74 96 101 112 117 127 149 189 193 203 214 244 234 224 221
21 51 77 4 46 14 13 20 20 17 9 7 8 18 30 32 30 36 47 68 78 79 69 57 46 31 46 72 89 110 122 134 146 144 154 167 161 175 187 183 195 217 211 209
1 47 26 6 19 37 1 14 24 20 14 7 -11 3 27 37 36 43 47 52 67 71 58 66 69 66 74 94 110 118 123 134 134 128 130 134 145 151 181 189 205 223 240 235
11 -12 14 25 -11 -6 20 10 22 17 21 18 -22 -16 45 34 30 32 40 45 41 34 37 46 68 73 79 89 92 104 111 126 135 141 156 147 158 156 165 192 205 202 206 206
-12 8 18 -17 -1 -1 37 2 -0 11 19 26 30 21 25 30 35 39 44 48 59 66 72 73 72 65 68 92 104 112 111 117 126 134 136 150 160 170 179 180 198 208 212 205
21 47 17 -8 -10 -10 50 1 -6 -2 11 29 17 9 11 23 32 28 29 41 40 65 87 108 101 84 90 99 104 95 98 113 122 132 144 155 177 180 200 213 223 213 200 179
61 72 79 -9 10 26 -12 -8 -11 -20 -30 -46 -14 25 25 20 26 42 49 43 43 43 69 107 134 104 119 135 100 85 88 91 93 113 139 138 140 147 156 161 162 157 159 160
49 44 -11 -15 -29 -12 -7 -9 -12 -18 -23 -25 -28 -38 -49 -30 41 39 39 47 40 37 55 88 103 104 108 114 114 87 80 81 82 81 82 83 98 116 129 128 133 144 157 151
71 51 35 7 -6 -9 -11 -17 -16 -20 -19 -14 -15 -16 -19 -31 -35 -13 52 68 57 59 66 57 53 71 85 104 107 103 103 98 109 92 90 93 98 96 100 117 124 131 147 146
49 46 37 35 22 16 10 5 -0 -5 -8 -6 -3 -6 -4 -4 -5 -7 1 38 59 75 78 79 80 84 81 76 62 56 96 69 78 97 103 136 145 138 147 175 174 159 146 144
25 64 49 72 85 54 52 36 8 7 3 1 9 17 18 16 -6 -22 -8 27 66 71 81 85 86 92 93 100 108 101 82 66 58 63 66 87 85 77 82 90 108 113 119 137
-11 56 38 68 92 82 71 51 33 25 21 22 24 33 39 41 33 22 38 69 88 88 83 80 76 75 60 60 72 85 91 96 83 87 103 102 98 98 80 65 36 38 57 56
61 102 60 75 48 84 70 57 50 47 44 47 46 49 58 63 69 64 72 86 97 93 89 80 68 51 25 35 64 75 90 83 89 96 100 111 123 125 124 107 107 97 57 50
53 13 13 72 80 84 72 64 57 56 64 69 74 78 81 86 95 100 99 115 116 122 114 90 67 54 53 69 80 89 97 104 110 99 109 110 119 132 134 119 100 93 105 92
77 31 53 69 74 68 63 58 54 61 70 82 97 115 121 117 128 120 122 127 109 96 94 86 77 88 82 93 94 91 93 88 87 97 93 87 106 108 115 111 104 102 92 81
126 62 53 54 56 60 57 61 68 81 96 110 128 131 126 132 134 119 106 101 100 90 82 92 94 93 91 96 93 91 93 97 98 90 91 99 90 94 107 115 114 101 92 91
56 53 56 55 71 71 71 76 83 92 93 106 117 121 115 120 114 109 109 111 93 80 80 95 100 98 91 86 85 87 86 85 84 83 81 77 86 92 81 84 96 117 121 114
76 84 75 65 75 85 90 95 98 106 115 116 114 111 114 111 105 108 114 103 90 85 82 103 112 94 87 90 89 83 81 72 70 71 68 65 66 65 76 84 92 103 125 126
135 128 118 111 102 105 111 110 110 115 128 132 121 116 110 105 106 104 102 95 89 92 114 104 106 94 91 88 75 77 78 76 75 70 67 68 67 62 67 68 64 71 86 87
163 154 139 126 118 115 107 109 109 116 143 143 127 115 110 114 124 117 119 108 107 100 96 93 100 98 97 89 85 78 74 70 72 75 80 77 70 58 47 54 61 70 71 70
164 147 141 138 130 126 110 103 107 123 132 131 126 118 119 114 119 116 113 114 125 112 110 109 103 84 91 87 94 88 89 92 90 86 79 76 75 65 57 60 64 63 89 108
155 140 130 126 127 115 102 97 104 115 114 110 116 123 128 128 128 128 121 133 131 117 115 106 84 72 76 101 99 105 99 92 90 87 88 94 84 68 50 46 47 46 52 55
142 125 126 126 119 107 95 97 104 113 107 105 111 112 121 119 110 117 113 94 97 103 109 99 96 83 86 118 107 103 93 99 105 108 106 75 78 79 67 54 57 54 44 33
134 146 150 136 107 96 100 107 119 118 113 112 115 123 118 122 139 125 136 119 100 112 118 97 86 84 116 115 111 112 105 107 109 102 93 94 86 81 71 68 61 57 42 31
132 127 117 106 101 109 116 129 119 112 120 120 124 133 135 139 141 131 133 121 130 111 115 114 123 114 115 111 115 110 108 106 98 89 78 84 80 77 70 56 48 34 26 22
133 132 132 114 112 119 124 125 128 125 126 129 122 127 142 146 150 150 140 141 134 124 123 117 113 97 102 105 108 109 115 111 89 90 81 70 66 64 59 53 36 22 22 11

GFSNGP_con_3kmhel_120.txt.gz
Helicity
64 33 27 110 98 95 50 18 49 3 57 71 73 43 37 45 121 105 230 404 425 321 286 213 208 162 133 117 87 72 61 44 23 37 60 47 37 36 85 99 78 84 92 120
60 67 15 68 135 46 52 69 -2 12 16 -34 41 46 50 60 81 107 125 198 268 301 258 296 196 93 67 88 97 35 29 39 36 52 66 79 80 99 115 124 142 163 186 202
78 103 67 29 67 19 30 57 32 38 11 -28 26 30 57 54 63 77 115 117 111 91 75 30 43 77 76 49 61 61 52 45 50 66 87 96 123 139 150 171 194 197 177 181
59 69 46 14 17 32 8 48 6 -18 -17 -20 -57 -15 16 43 44 51 58 65 92 67 71 86 56 9 -2 52 62 46 45 63 70 80 102 115 140 151 143 166 173 194 195 194
17 24 8 13 1 -0 16 29 26 -4 -14 30 59 -28 32 12 -12 -12 -8 5 20 27 14 45 72 62 60 62 67 92 111 106 94 79 89 103 115 134 143 153 160 172 167 168
-7 2 20 36 17 12 40 -11 -32 -15 -5 -5 17 -29 -27 -13 -5 8 14 11 18 31 51 82 67 60 79 89 94 101 85 84 96 100 105 105 103 109 109 115 135 147 157 163
16 22 -4 -8 2 22 3 -29 3 12 -4 8 -3 -26 -22 -7 -8 -0 10 17 18 48 78 96 71 59 59 65 80 62 72 91 98 109 118 115 123 119 118 126 146 158 153 171
115 122 107 -20 -1 23 15 -3 -18 -6 -4 -10 -2 20 18 18 12 12 16 16 24 38 57 81 96 81 91 122 101 69 58 61 76 90 100 106 113 121 126 131 145 145 150 162
116 131 20 1 -15 7 15 17 13 5 -3 -9 -9 -13 -15 -16 -2 32 48 36 25 35 46 62 74 76 93 106 106 97 97 93 84 70 71 70 87 98 110 104 114 125 142 156
102 94 90 64 36 34 15 21 13 11 11 9 22 14 9 2 -9 -21 -18 21 46 64 77 87 73 63 50 59 67 59 75 84 73 72 77 83 97 94 100 108 119 122 122 125
58 70 65 75 75 74 62 52 48 26 21 30 42 43 49 45 32 31 39 54 68 77 66 64 65 77 84 87 76 66 60 60 71 59 72 78 76 67 84 101 129 142 138 114
56 99 51 63 87 90 78 69 54 56 54 41 45 73 85 91 75 69 69 70 88 96 96 91 98 94 90 82 73 77 84 81 77 79 76 84 86 89 65 54 67 85 97 109
3 32 5 71 98 79 78 84 65 51 47 61 59 78 95 102 98 109 100 96 104 99 94 95 105 104 85 87 88 99 124 121 105 103 103 107 108 95 80 84 75 61 59 62
89 144 66 81 34 76 81 72 67 64 64 70 67 69 91 96 95 102 109 106 106 105 94 101 103 106 92 81 48 79 108 123 136 142 136 119 108 103 101 89 96 105 116 81
65 19 6 49 80 95 92 78 58 48 58 62 72 85 99 103 107 121 114 102 97 104 98 102 94 90 89 72 77 91 97 95 101 97 104 103 110 108 108 106 104 107 132 132
106 68 78 91 79 84 82 72 54 50 68 58 81 112 127 129 147 141 131 117 106 89 84 90 88 83 77 78 90 91 104 99 99 105 99 98 99 104 99 86 79 85 99 122
187 89 83 76 85 78 66 66 67 78 100 95 133 143 122 112 123 116 114 110 105 95 96 93 95 92 79 96 95 88 92 87 79 86 88 91 84 78 76 81 82 88 94 79
108 100 104 88 102 99 92 99 106 106 106 121 127 129 129 112 102 106 118 124 112 96 89 85 98 106 99 94 92 96 101 96 88 81 83 80 76 74 71 69 72 80 89 89
100 109 111 105 105 119 124 126 124 128 140 127 131 125 132 134 131 124 127 121 111 113 102 102 103 107 93 90 106 98 92 81 75 78 80 72 76 71 71 63 57 61 67 73
160 148 160 170 166 158 164 139 132 134 131 137 140 141 138 133 139 134 130 120 123 123 125 119 117 108 96 97 91 100 85 79 78 75 75 72 69 66 64 54 52 50 51 53
187 179 185 188 186 170 153 140 144 134 136 143 142 138 145 145 149 144 138 130 128 112 117 105 116 114 113 106 101 106 88 84 84 83 83 77 64 56 55 58 59 57 49 53
187 193 184 179 172 168 151 141 145 141 134 130 128 141 143 115 112 118 127 137 145 128 141 134 134 111 115 85 120 105 98 99 104 100 84 71 68 75 76 63 43 42 44 44
192 195 193 177 165 146 143 135 127 123 120 116 115 113 111 120 127 132 128 124 128 118 126 130 111 89 88 117 139 128 111 114 114 103 89 97 97 91 73 66 76 75 59 46
193 175 171 166 165 165 146 117 108 102 102 111 119 116 128 130 118 129 130 98 93 116 137 134 111 86 89 147 149 134 120 125 117 115 114 76 95 95 90 85 86 78 74 47
161 185 194 190 163 134 117 111 114 106 102 108 108 114 123 148 164 149 135 144 120 129 157 112 87 85 129 150 152 136 127 129 121 121 118 110 94 83 75 76 81 80 81 68
170 165 168 155 141 127 123 128 118 113 120 115 108 118 127 138 144 143 152 143 157 136 153 146 143 129 137 141 143 120 125 123 108 102 106 107 96 85 71 63 64 71 65 44
179 175 183 168 141 134 125 120 125 119 120 119 115 121 125 135 147 150 148 162 163 165 159 150 138 116 124 119 117 112 106 105 103 112 114 113 100 76 63 51 48 50 49 35

GFSNGP_con_3kmhel_123.txt.gz
Helicity
45 50 40 84 73 90 68 81 94 132 132 139 108 134 127 272 322 652 608 714 616 459 376 303 374 303 251 225 147 111 163 96 -36 -27 -39 -18 -1 50 32 -35 -1 84 134 187
64 46 -12 33 54 78 64 58 59 97 90 110 18 28 82 243 353 352 597 447 351 350 363 331 250 188 153 134 90 31 48 50 23 8 2 28 40 39 61 61 55 33 21 55
88 76 44 42 39 18 55 42 42 65 113 90 34 27 57 93 112 126 249 379 309 305 308 240 155 81 81 37 48 60 58 17 30 26 42 46 54 60 59 45 67 77 90 135
57 30 39 23 22 14 18 50 56 69 111 56 14 50 73 86 82 83 115 129 124 127 100 108 92 92 80 72 55 19 24 19 21 23 35 53 73 78 86 88 95 103 118 118
21 21 2 6 19 27 26 54 75 60 57 129 83 105 62 114 88 68 40 33 28 8 34 35 34 37 45 51 30 49 48 26 6 -6 11 36 64 72 83 93 100 106 117 113
17 20 40 21 12 2 18 -22 34 39 47 -14 82 -13 70 58 -1 10 -9 -8 4 25 54 62 64 45 55 74 76 80 58 48 53 60 62 32 -18 15 40 50 62 77 87 80
-6 -9 21 14 9 -0 20 34 18 14 18 14 -2 3 47 41 -18 -12 -1 2 6 31 44 44 40 47 76 78 88 59 62 68 78 79 71 73 80 72 79 93 87 100 95 110
27 35 64 -8 4 51 38 -6 5 -3 3 5 9 13 19 22 19 19 3 3 11 5 14 18 11 14 52 82 47 42 57 72 80 76 65 64 65 71 90 98 105 115 111 106
93 62 -4 -9 -2 16 14 13 24 22 22 28 31 34 31 28 10 5 2 1 -4 -21 3 34 41 25 41 20 14 25 51 73 83 91 89 78 76 67 64 63 74 81 89 103
49 48 38 40 16 18 33 46 32 27 31 43 63 60 53 32 20 20 16 9 -2 -8 -8 -16 5 27 35 42 48 47 47 56 54 60 72 79 86 98 102 87 75 68 70 75
19 -9 18 28 41 60 60 60 68 55 62 70 86 84 87 93 76 43 24 16 15 12 5 14 26 27 25 29 26 23 27 41 62 71 77 72 70 77 86 93 102 92 71 59
66 51 17 3 66 79 102 99 93 99 93 91 98 107 102 103 91 99 112 83 64 46 37 37 45 42 44 44 45 42 32 35 53 71 87 96 101 108 116 116 111 90 83 82
9 32 -18 2 82 78 73 88 83 84 85 101 86 99 112 125 132 156 162 165 144 127 122 89 94 110 87 78 66 58 65 68 66 78 85 102 113 107 108 116 109 120 109 95
58 135 19 87 64 78 76 80 87 84 84 84 95 106 119 131 147 150 150 144 140 143 161 157 135 114 99 100 100 102 85 86 102 105 106 116 114 98 81 73 99 126 140 129
120 52 59 91 100 102 97 97 81 71 72 77 96 119 127 132 141 150 148 125 120 137 130 119 107 93 83 88 94 83 86 93 97 103 117 123 120 109 95 80 74 70 80 112
96 71 100 124 128 130 109 84 75 73 83 83 103 123 134 155 163 148 134 133 135 122 112 113 104 83 82 88 87 93 97 92 97 99 98 102 103 107 105 92 82 78 70 65
187 110 105 100 117 114 73 71 75 81 97 107 117 128 132 136 140 131 118 118 121 137 127 121 106 100 98 97 102 92 85 87 88 105 103 97 94 92 86 80 81 72 66 59
91 126 112 123 124 114 84 81 93 102 102 104 115 113 111 114 111 119 123 132 135 122 113 98 93 104 100 108 106 102 99 95 96 98 94 91 84 78 76 71 71 74 69 59
100 96 109 118 128 120 116 120 114 107 118 118 120 105 103 112 120 125 138 117 122 118 121 105 100 119 121 106 107 110 105 98 99 98 90 76 86 79 77 75 76 75 70 64
138 116 123 138 149 156 152 139 143 139 118 116 122 121 115 112 117 121 140 120 129 129 110 117 127 128 116 106 95 123 114 111 106 97 93 93 93 87 77 54 41 45 49 51
185 170 181 187 170 170 171 172 165 143 122 123 127 114 109 110 130 144 147 129 140 109 110 105 128 126 126 120 116 135 132 125 115 103 102 105 103 96 73 60 60 49 31 27
213 210 197 210 209 201 176 167 154 138 127 122 108 103 109 98 112 125 111 131 130 113 136 143 145 120 135 112 145 148 140 129 121 118 116 111 106 90 76 86 79 53 50 65
203 203 217 210 196 192 187 168 139 131 128 107 90 93 101 110 125 134 124 113 116 114 123 131 116 104 105 143 163 159 158 146 131 121 120 118 107 100 95 88 78 69 64 72
207 216 197 207 225 219 187 138 128 122 114 100 97 99 119 126 109 126 119 98 94 108 133 131 121 108 106 158 154 154 158 146 125 116 116 85 104 96 96 90 82 72 63 56
201 224 241 220 185 158 167 142 132 113 104 93 91 97 105 122 130 134 135 129 108 120 152 126 114 101 123 140 151 147 145 138 120 120 115 109 97 90 86 85 79 67 54 51
216 189 162 158 166 173 162 158 139 127 120 106 101 106 108 109 112 112 129 122 142 134 156 160 164 154 145 131 131 126 132 119 101 99 101 94 85 80 80 83 80 62 43 36
207 200 212 198 174 164 157 142 143 125 111 112 102 110 111 114 115 119 119 131 146 154 159 169 168 148 147 133 124 116 112 103 84 80 74 76 79 77 81 79 67 48 34 29

GFSNGP_con_3kmhel_126.txt.gz
Helicity
39 43 25 10 33 15 -16 50 148 201 257 272 243 319 310 392 808 928 625 407 419 423 297 251 213 158 177 269 82 93 98 78 65 99 86 123 87 46 37 93 162 192 227 202
50 19 -44 -4 50 21 12 39 81 100 181 121 71 93 303 349 494 579 502 471 485 481 406 287 244 189 204 151 181 139 93 71 28 59 69 52 49 61 80 108 109 95 98 100
48 52 29 6 31 6 4 31 63 96 137 85 45 66 222 374 364 401 507 491 572 398 383 269 279 155 96 69 84 83 97 78 40 52 61 35 59 49 69 -8 -10 61 42 37
47 18 9 13 22 33 8 18 48 74 139 35 73 32 95 134 210 181 234 247 244 172 151 151 113 121 109 115 88 78 75 39 56 20 14 11 37 38 46 74 73 67 76 104
-8 -18 15 -2 16 28 24 49 52 79 67 124 89 51 108 118 110 116 140 163 166 118 104 105 95 49 26 51 53 75 59 54 28 10 27 50 53 55 84 85 89 90 70 70
-21 -30 7 11 14 -2 40 58 49 41 42 14 67 32 56 126 100 62 40 68 63 89 71 71 78 40 59 92 90 82 50 25 8 6 14 41 27 12 15 49 63 67 78 81
-8 24 25 16 13 15 45 68 18 8 11 18 3 17 24 22 31 39 48 58 86 64 35 78 100 29 55 56 73 34 27 41 65 75 71 64 49 43 59 41 30 53 63 61
-1 50 80 22 27 106 69 25 23 14 15 12 6 15 27 23 22 18 13 24 34 32 38 54 47 10 14 40 20 14 21 49 65 66 74 88 99 107 102 97 119 111 77 96
73 59 5 21 27 16 32 56 38 42 42 36 29 38 35 35 28 25 18 15 12 18 7 26 41 21 35 36 11 34 46 35 57 61 77 77 81 96 104 116 112 108 118 137
12 35 38 43 30 30 34 22 16 21 32 43 40 41 43 48 35 34 23 8 -4 -16 -15 -6 9 17 14 23 19 44 49 60 81 76 67 77 69 80 87 99 109 125 130 131
-17 -15 -13 2 26 42 41 30 31 23 30 42 44 51 53 44 43 30 15 -4 -25 -53 -56 -52 -44 -35 -21 -7 -3 -9 9 35 69 86 103 107 107 113 112 107 106 106 109 116
42 40 36 11 39 43 88 80 70 79 68 49 53 50 35 36 25 11 15 12 31 28 31 20 13 -0 -2 -0 5 -10 -22 -37 -9 25 57 79 96 114 134 141 147 147 140 122
2 29 28 -25 108 71 86 86 64 50 52 72 65 89 68 34 17 14 8 7 25 20 9 -2 16 43 38 29 36 43 51 46 38 47 44 48 69 103 120 141 149 173 188 184
18 88 17 25 79 78 77 79 78 73 83 78 84 87 111 113 134 137 125 112 107 93 71 41 33 38 28 35 55 71 79 86 92 91 88 82 73 76 82 112 147 152 153 171
54 25 32 56 90 95 91 116 89 77 81 84 79 99 132 147 139 138 145 154 156 141 120 107 96 78 79 84 88 83 97 105 111 116 118 108 106 103 94 88 85 107 127 125
100 81 124 152 142 145 142 111 94 67 71 73 85 91 101 106 124 146 141 143 151 122 119 117 95 90 102 108 97 107 109 95 105 125 113 115 122 124 117 108 92 81 86 103
236 147 126 115 148 157 131 134 103 96 85 92 96 115 142 148 147 139 126 123 125 133 126 121 104 105 116 108 121 116 113 113 109 109 106 115 117 119 117 109 99 88 74 60
137 139 141 148 155 147 114 102 96 103 105 94 118 149 141 137 117 106 98 129 149 123 114 97 99 107 112 116 122 126 129 126 117 120 124 118 123 124 112 95 79 74 76 70
94 119 127 125 135 131 135 130 114 115 125 136 165 132 114 106 106 112 137 145 144 124 118 113 96 105 129 123 130 144 141 131 127 132 123 116 130 117 104 95 86 80 69 54
159 136 141 138 164 175 151 138 161 160 151 167 151 148 129 115 121 125 138 119 137 138 121 113 118 132 132 128 120 153 148 146 146 138 143 140 127 110 106 96 90 75 46 41
188 191 168 179 166 160 167 190 196 183 168 159 150 120 109 112 118 118 142 115 127 106 99 98 121 129 135 136 141 157 159 161 157 151 150 140 125 115 109 101 90 73 53 59
192 215 209 212 220 210 201 207 196 198 177 156 131 133 140 120 111 105 98 110 137 101 114 127 137 132 146 135 164 169 175 175 168 165 156 144 131 116 105 99 91 82 78 70
180 203 229 248 241 226 245 223 197 181 163 144 133 126 120 107 111 127 111 115 112 108 116 125 124 114 115 154 180 187 187 185 170 168 161 151 132 122 109 97 91 84 78 72
166 194 221 252 300 334 266 190 177 153 133 127 118 109 119 109 87 102 95 90 82 95 124 131 134 131 136 170 181 184 182 181 174 159 150 109 129 119 110 99 87 80 73 64
159 209 255 284 264 208 213 212 192 165 147 126 108 96 88 100 112 128 125 114 97 113 131 122 129 134 166 188 198 185 174 170 154 144 135 126 117 113 99 88 75 68 68 70
174 212 219 211 202 218 218 209 162 147 136 118 108 109 108 112 113 109 110 108 120 118 135 150 163 178 191 189 172 165 164 150 134 130 123 122 112 93 73 66 72 75 75 72
189 204 241 238 228 229 198 170 162 133 116 117 116 116 112 123 127 123 119 128 130 133 142 155 181 194 188 174 175 175 161 144 125 123 116 105 90 70 59 58 66 71 64 63

GFSNGP_con_3kmhel_129.txt.gz
Helicity
-12 4 38 52 33 24 21 58 143 192 298 338 321 375 414 535 473 524 352 229 261 321 320 218 207 162 149 206 171 115 146 198 206 124 316 300 290 272 305 143 159 157 187 173
37 41 -5 -0 14 11 12 29 97 46 270 221 237 271 421 517 560 683 452 375 329 382 253 261 301 216 273 187 154 119 101 120 170 137 138 195 241 182 240 259 166 273 153 150
40 62 43 16 13 4 4 29 86 46 126 111 210 215 384 415 493 429 456 505 400 386 271 322 249 230 238 175 85 100 82 70 70 42 88 70 93 98 95 149 106 142 228 224
42 31 2 41 32 30 30 25 65 65 94 133 139 190 100 159 336 317 240 290 235 192 212 176 136 146 134 147 152 102 62 52 15 -4 -11 2 9 53 36 32 52 70 96 110
-15 -1 18 -5 10 8 8 18 17 64 68 77 87 69 132 117 145 161 171 143 105 102 89 83 106 99 72 128 158 173 155 128 91 76 86 97 98 68 62 58 56 59 80 83
-16 -21 29 4 -19 -9 8 24 7 33 13 35 27 58 144 129 105 115 103 114 118 99 95 131 148 75 51 86 85 102 75 60 66 71 63 63 69 94 97 110 123 113 112 107
76 92 63 16 4 -2 48 58 -0 -2 1 16 30 51 63 74 76 76 79 68 89 55 57 84 79 52 26 43 54 43 15 -0 -0 25 38 38 52 60 63 79 89 84 78 104
118 143 129 45 44 108 62 14 11 33 46 53 50 69 76 63 66 65 55 71 51 27 42 54 51 -10 -12 8 27 -0 -4 -19 -9 -4 -15 -17 -1 14 54 76 100 126 122 110
132 103 66 80 75 72 70 92 102 98 97 93 84 85 75 66 60 65 44 34 26 15 12 62 55 33 -9 10 -8 -20 28 29 35 66 60 57 76 73 75 94 103 108 112 126
13 19 67 53 40 39 68 70 69 56 52 31 22 33 46 45 45 42 30 24 17 -2 -19 -10 5 -9 -18 -7 -4 9 10 10 18 38 60 73 89 96 88 110 120 121 124 123
-11 -21 -25 3 17 22 16 13 26 11 13 5 -3 16 28 35 33 32 25 24 18 -7 -11 -22 -57 -46 -32 -38 -48 -38 -24 -0 33 40 52 59 74 99 106 111 113 109 112 105
54 27 39 -8 65 38 54 36 5 -1 -5 1 18 34 32 31 30 34 32 12 7 -0 -17 -43 -71 -71 -69 -51 -66 -62 -61 -58 -28 -24 -7 20 38 43 86 126 151 168 177 155
17 -22 45 -35 -1 54 59 54 34 28 14 31 8 20 28 29 34 35 40 32 26 21 5 -4 -12 -27 -41 -46 -52 -49 -26 -1 6 18 20 14 22 43 75 88 87 142 185 189
52 52 5 11 30 69 9 -7 -26 -46 -38 -35 -29 -20 -2 12 6 21 26 12 9 8 16 26 33 38 18 14 23 36 40 71 63 52 49 64 71 66 54 60 97 131 131 122
90 72 20 53 46 105 64 85 59 22 11 -0 -21 -22 -3 13 5 -5 -12 -9 -7 -7 -12 -20 -3 24 20 38 60 79 90 96 108 113 115 122 118 123 112 116 116 113 122 135
95 83 49 78 130 152 166 118 96 72 74 64 56 43 40 50 51 65 84 111 117 93 90 92 66 54 46 65 79 84 101 115 132 135 127 127 144 151 152 143 133 127 123 113
219 96 88 82 150 181 184 173 138 128 111 97 92 98 108 112 113 117 126 136 128 115 100 106 86 81 87 89 94 108 114 122 128 141 129 140 147 154 154 148 141 128 99 68
93 84 134 145 175 180 165 146 149 148 138 113 128 131 130 141 117 107 106 123 112 99 95 88 86 86 90 99 109 120 124 134 139 139 156 161 162 166 162 156 141 128 109 91
96 77 123 131 140 172 175 169 155 144 151 153 165 137 129 116 115 106 113 129 122 100 84 87 87 91 101 107 116 133 137 138 143 162 174 163 183 178 169 156 140 119 106 101
118 127 110 112 146 178 171 170 188 178 163 181 174 160 136 119 120 121 129 123 129 117 102 104 108 115 118 116 111 150 150 153 163 180 193 190 185 176 162 139 131 122 111 98
90 109 133 135 129 140 154 198 228 219 209 215 197 165 148 132 137 146 160 125 104 96 96 91 111 119 126 130 135 151 166 179 190 202 210 206 191 177 163 151 138 128 117 105
83 109 134 144 160 160 170 193 228 257 256 222 195 191 181 155 148 140 125 117 122 102 117 118 121 109 133 123 161 170 186 198 210 223 215 200 194 184 169 158 142 130 118 98
46 94 116 162 180 183 224 239 253 256 237 215 201 191 176 159 158 155 117 101 113 100 116 126 116 105 107 152 177 188 196 214 225 218 206 198 190 180 165 146 133 124 106 91
25 53 104 155 211 271 291 270 254 243 230 232 202 174 177 163 131 102 87 101 102 105 114 118 120 117 130 178 184 196 218 219 200 188 186 148 164 161 148 136 123 110 89 61
-17 29 121 167 212 233 252 297 317 292 265 222 188 164 135 122 127 128 109 102 93 110 120 112 116 120 160 180 190 212 204 185 181 186 182 166 147 129 118 114 102 79 67 71
-19 -6 35 97 157 214 288 334 284 263 267 234 186 152 130 119 99 88 96 92 105 109 128 137 147 151 160 172 189 183 171 170 175 179 164 144 123 112 104 95 88 71 66 73
55 49 91 85 93 208 291 335 340 285 227 236 221 166 141 132 111 124 107 114 118 130 137 134 141 154 172 189 182 176 181 187 180 172 149 124 110 97 102 99 77 63 71 85

GFSNGP_con_3kmhel_132.txt.gz
Helicity
34 58 46 55 42 4 -38 25 73 172 248 340 343 317 321 381 320 316 272 283 255 135 99 148 134 100 102 255 250 285 397 253 128 -2 -17 -15 100 223 212 153 161 193 200 204
71 73 52 30 18 30 -2 -14 76 202 309 292 307 339 361 332 352 401 398 339 300 297 304 434 256 293 203 175 165 222 208 85 107 346 195 105 194 240 218 228 216 227 174 186
43 52 21 -16 44 38 29 16 31 221 276 179 303 337 322 296 296 282 281 299 295 292 280 270 253 269 210 194 193 180 190 137 139 134 155 145 105 128 265 235 176 111 223 287
46 22 -9 21 36 34 35 49 54 85 117 92 169 164 123 117 200 180 198 222 241 214 200 192 173 188 188 214 200 175 160 164 186 156 130 143 154 133 135 120 127 57 92 177
16 0 -8 3 26 20 32 27 61 54 65 69 90 120 118 102 119 103 103 126 158 134 130 131 131 111 94 144 159 169 187 150 121 109 102 70 91 98 95 115 197 177 111 112
21 -9 -1 12 21 -1 -3 41 31 26 -5 36 58 91 101 91 84 82 57 51 47 48 19 60 117 115 101 136 135 116 94 94 105 88 69 77 89 110 102 104 125 104 108 147
127 90 66 37 44 12 38 54 21 6 18 26 53 46 38 52 59 60 70 82 81 47 28 45 42 21 10 29 26 47 63 59 70 84 62 21 -6 -10 -26 2 47 81 104 117
143 154 123 67 96 141 109 65 79 59 58 51 52 67 70 62 62 54 57 69 50 29 13 43 35 11 8 14 29 19 17 5 12 24 27 35 37 41 52 43 56 70 80 90
145 111 71 74 72 83 66 88 85 89 82 75 75 79 67 60 48 38 36 31 31 0 -9 14 10 -9 -35 -8 -19 -20 -39 -5 -26 -11 4 29 41 39 49 75 82 93 103 113
67 63 121 88 53 45 57 62 71 67 80 77 70 60 51 52 44 45 34 26 10 -21 -21 -13 -17 -54 -54 -49 -30 -11 -18 -22 5 26 31 36 39 43 42 50 55 67 89 106
124 105 76 84 98 71 57 47 58 46 55 51 22 23 27 22 15 19 9 6 -5 -19 -37 -41 -51 -49 -30 -27 -50 -62 -60 -44 -32 -27 -17 -15 -9 4 18 47 68 51 65 76
51 -2 -7 -6 23 71 82 47 37 45 23 8 19 26 8 14 11 15 18 8 -8 -20 -26 -27 -35 -41 -38 -41 -48 -42 -37 -43 -41 -36 -22 -14 1 6 36 60 86 108 121 103
37 17 2 -43 -62 37 71 36 19 19 5 26 -6 3 -1 0 2 15 17 19 14 6 -6 -10 -20 -23 -34 -47 -50 -46 -48 -51 -38 -20 -6 28 52 78 89 52 51 93 92 89
39 76 46 25 8 40 40 32 41 22 13 3 4 -8 -4 7 17 22 10 3 11 15 28 24 9 -7 -15 -18 -15 -19 -23 6 8 15 46 58 55 54 58 84 104 94 54 63
31 61 17 33 92 84 97 147 127 98 77 56 42 38 37 35 25 15 39 48 46 51 57 64 60 52 39 29 37 39 35 38 50 70 72 73 71 78 96 112 123 125 128 125
-1 54 39 23 31 96 166 151 139 102 96 88 80 59 42 41 51 56 48 43 56 61 47 42 54 78 84 78 77 72 80 87 106 109 112 112 119 131 136 146 152 148 150 137
35 31 50 9 53 85 114 127 136 138 130 115 83 79 74 66 71 77 72 68 68 62 59 52 47 74 81 81 81 84 105 113 118 135 126 128 138 143 145 151 154 146 130 107
77 58 75 122 111 91 94 107 124 133 135 107 135 128 111 107 90 72 69 81 91 79 70 67 72 79 85 88 92 100 111 121 132 134 138 138 137 145 154 161 153 143 134 124
80 51 71 76 111 129 128 138 153 152 154 164 194 147 131 124 127 119 128 133 118 98 76 87 75 84 94 92 102 119 129 132 137 146 147 138 165 172 175 169 155 142 138 129
35 73 74 95 100 124 128 140 172 196 204 230 216 209 179 158 172 169 169 147 138 131 124 102 99 96 98 102 99 138 141 138 141 151 162 169 179 183 177 152 151 154 147 136
23 8 43 83 108 115 120 148 184 182 218 256 268 228 198 218 212 189 192 153 112 102 97 92 107 108 104 107 119 138 139 142 145 151 164 179 186 173 161 159 165 163 149 133
14 31 50 61 90 104 125 144 164 187 237 256 248 265 274 250 233 203 166 153 149 101 126 117 108 102 115 100 130 135 140 142 149 163 181 187 177 163 160 165 158 149 132 110
-44 -12 19 46 85 108 116 164 199 223 237 255 262 266 265 253 265 246 184 128 133 106 111 103 76 73 81 114 130 138 145 152 161 185 189 179 175 177 177 162 148 134 114 104
-86 21 38 41 38 99 161 163 163 197 237 276 282 283 305 309 253 193 194 175 148 130 124 105 99 83 77 118 133 137 142 152 170 186 178 144 172 173 170 148 132 113 105 86
-134 -97 -11 12 42 92 94 118 179 209 253 289 319 318 292 260 256 207 190 166 123 125 140 90 99 94 111 122 133 138 147 163 170 170 161 164 161 162 146 132 117 104 100 96
53 51 9 11 52 119 171 175 147 188 243 276 309 343 332 294 263 259 242 203 186 179 138 134 165 138 127 121 128 127 136 145 146 141 141 147 147 138 125 112 104 103 99 80
207 151 186 146 96 109 178 212 239 228 227 288 268 313 344 332 277 245 215 229 242 205 123 195 168 128 106 109 123 132 141 137 127 133 135 133 131 120 110 103 98 90 75 71

GFSNGP_con_3kmhel_135.txt.gz
Helicity
59 69 53 25 12 24 26 -2 76 107 163 185 197 265 249 233 288 342 294 253 266 249 144 143 193 129 67 60 26 -74 -225 -317 -301 -191 -182 -135 -159 -81 9 14 33 -4 126 207
56 102 91 38 41 60 41 4 74 121 92 136 201 182 209 248 304 297 294 303 291 309 266 294 221 254 157 180 178 167 -9 -312 -309 -290 -470 -37 37 -3 82 87 114 398 445 212
59 35 36 29 49 75 28 6 82 92 103 116 206 146 147 169 254 251 233 229 224 228 246 235 203 207 214 194 143 182 347 344 139 187 222 357 293 565 364 209 150 145 188 215
60 29 45 31 46 55 52 40 102 119 81 87 110 94 69 64 111 151 168 193 189 184 195 188 173 152 111 141 147 165 222 238 252 240 171 166 294 269 292 279 218 175 184 269
54 72 42 16 46 52 45 26 82 90 48 53 36 53 52 45 55 79 114 119 114 105 102 100 118 132 115 101 111 147 168 183 206 137 110 129 143 131 98 125 140 118 111 120
117 92 80 40 31 23 5 55 23 24 15 11 27 34 51 21 34 49 67 78 109 100 78 72 111 109 67 90 102 104 122 114 114 128 120 113 96 80 75 56 24 44 63 75
258 174 89 91 73 34 32 45 33 40 34 27 10 6 29 21 38 46 47 48 50 54 49 72 84 36 41 74 56 62 73 71 79 89 91 87 86 103 79 61 77 90 101 112
146 107 89 134 116 109 91 54 59 70 66 54 43 50 50 40 33 29 47 48 41 25 34 40 27 -6 -18 4 33 30 19 25 21 20 32 38 19 38 63 72 102 114 113 128
174 140 105 119 108 100 59 51 54 45 41 41 46 53 50 49 42 40 37 36 22 14 3 6 -5 -20 -39 -18 -11 -11 -17 -12 -5 -1 15 25 31 29 29 47 46 54 66 76
78 51 160 139 85 75 63 48 36 30 40 45 39 42 40 38 32 31 34 30 8 -19 -37 -33 -35 -35 -35 -14 -14 -16 -18 -27 -38 -29 -24 -21 -11 -4 0 9 18 28 38 48
150 102 76 85 103 78 83 40 29 18 26 34 18 14 12 14 15 13 14 8 8 10 17 10 5 -4 -13 -22 -29 -22 -37 -43 -38 -45 -39 -36 -28 -26 -30 -6 -4 -9 4 9
38 32 -1 -3 3 122 113 104 62 66 26 7 17 18 9 2 7 20 31 32 36 37 38 29 11 -10 -21 -24 -23 -30 -25 -30 -34 -35 -30 -24 -32 -30 8 12 20 29 28 27
12 6 -1 2 -18 -11 64 72 80 81 59 64 18 24 17 -4 16 34 42 47 37 34 26 22 9 -5 -19 -30 -37 -34 -40 -49 -39 -16 -1 13 22 43 48 26 35 58 65 69
21 2 -22 60 6 21 34 44 79 65 68 56 53 45 31 24 32 40 33 21 24 30 30 23 12 -5 -13 -14 -16 -16 -15 -4 2 11 25 35 48 49 54 68 75 63 62 82
21 41 56 37 28 43 72 123 144 110 93 77 76 84 85 69 63 56 48 52 54 49 35 43 35 15 21 25 23 19 19 18 31 45 49 52 60 68 71 67 68 76 89 101
8 9 19 64 4 46 80 115 150 126 135 111 125 118 91 92 92 94 99 106 120 74 56 58 51 48 57 60 56 48 33 45 63 71 81 87 93 100 98 109 114 119 131 131
63 42 55 68 84 74 93 84 116 127 145 163 140 128 144 134 136 129 108 97 81 76 81 82 66 84 77 86 99 103 99 99 109 116 110 112 110 109 114 121 124 135 129 112
80 76 20 54 88 95 91 100 107 122 145 133 159 187 188 189 136 121 112 112 108 106 102 97 112 123 121 122 122 127 125 134 131 118 111 112 111 115 119 124 130 132 127 117
101 57 54 60 71 81 85 97 122 132 150 177 201 208 193 177 166 172 197 192 163 142 118 129 110 125 126 125 134 138 138 144 142 129 120 112 121 125 129 135 133 128 124 124
98 97 63 72 61 78 79 89 94 117 149 204 213 221 214 184 187 200 218 189 166 161 152 150 144 132 129 134 122 136 140 138 124 120 120 118 119 123 137 132 133 133 133 135
50 51 48 69 84 73 80 91 99 102 114 152 186 197 207 191 242 259 274 218 156 163 151 155 163 153 146 136 124 140 122 120 115 121 123 124 129 142 151 145 138 142 141 145
1 34 60 37 49 74 72 76 92 104 119 149 168 196 246 242 271 272 256 241 216 196 210 193 181 138 136 103 145 133 148 137 120 127 131 134 141 145 142 139 141 143 139 136
-148 -140 -88 -63 -44 14 67 86 96 121 129 152 179 198 232 234 297 350 285 212 254 224 217 187 149 117 92 148 156 142 201 174 139 126 126 138 146 137 127 130 136 130 128 125
-24 -22 -33 -44 -49 -39 -11 60 59 80 105 142 162 183 239 303 297 295 312 244 204 189 187 174 140 109 153 198 158 168 225 168 123 115 123 111 137 132 126 121 120 119 115 105
77 104 112 91 74 79 72 56 70 68 77 108 147 202 225 275 271 277 327 310 227 236 241 178 165 177 203 188 153 128 248 155 109 112 127 128 123 118 105 108 107 106 107 107
98 110 122 129 150 154 167 157 147 139 146 135 159 197 239 272 296 296 303 265 262 223 241 236 254 192 176 175 189 267 228 128 96 107 118 114 107 98 97 96 97 103 105 99
66 36 88 96 105 102 111 138 156 143 144 178 164 186 210 279 328 338 276 288 273 258 264 269 235 184 192 234 264 236 150 106 97 119 117 105 96 93 92 93 100 91 84 81